GFSNW_850_spd_000.txt.gz
Wind_Speed
34 30 31 33 32 31 29 16 3 18 17 5 1 4 4 4 4 1 2 4 3 5 3 4 3 5 2 2 1 3 1 5 2 2 2 2 1 3 4 5 3 1 3 5
33 31 31 33 35 35 32 15 5 17 19 4 2 2 2 3 3 2 2 2 3 3 4 5 2 3 0 1 1 5 5 1 3 6 5 4 2 3 4 5 3 4 4 5
32 30 31 34 36 37 29 14 2 4 8 4 9 4 3 4 2 0 3 3 4 4 3 5 5 3 2 2 3 6 4 3 5 6 4 2 3 4 4 5 3 3 6 4
31 30 31 35 38 39 29 13 5 8 3 1 5 5 3 3 2 2 3 3 3 5 4 2 3 2 2 4 2 4 4 4 2 2 4 2 1 4 6 6 5 6 5 7
29 29 31 36 40 41 26 12 7 6 3 19 7 5 7 6 2 2 1 5 2 2 5 6 8 6 3 4 4 3 4 3 0 0 4 5 3 5 6 4 3 7 2 7
28 29 32 38 42 43 18 12 11 12 2 4 6 6 6 8 5 3 1 6 5 4 1 7 14 11 12 6 5 3 3 5 3 3 3 5 6 8 8 5 4 6 6 8
27 28 31 37 43 44 22 17 13 6 2 3 6 7 6 6 5 7 3 6 6 9 28 28 23 25 23 21 14 5 4 4 3 2 3 2 6 2 4 5 4 6 3 5
25 25 29 35 41 43 25 16 9 7 2 5 4 6 6 12 9 4 4 3 7 26 6 5 5 5 6 5 6 7 5 4 3 4 3 5 5 5 7 8 7 9 7 4
23 24 28 33 39 40 29 18 10 5 12 7 12 6 7 5 4 4 4 11 30 3 5 4 4 3 4 2 2 4 5 6 4 3 4 6 6 3 5 4 5 13 16 14
23 24 28 32 36 39 27 19 13 8 5 10 15 5 8 9 6 4 5 9 3 2 3 3 3 3 2 3 4 2 3 3 4 2 3 8 7 3 5 5 7 12 23 25
22 23 26 30 34 32 24 23 13 8 5 13 11 9 13 12 9 5 11 5 1 4 4 3 4 3 5 2 4 6 7 6 4 3 2 8 8 4 7 6 5 13 24 25
21 22 22 27 32 29 24 16 11 9 7 9 10 9 11 6 8 15 20 6 6 7 4 1 3 2 2 2 3 2 2 6 4 8 6 5 15 8 15 6 7 12 21 20
20 20 19 23 28 30 25 19 15 11 16 12 10 11 11 9 8 9 9 5 7 7 6 9 3 3 4 4 5 1 4 6 2 2 4 13 17 21 27 21 22 22 18 20
19 17 18 20 23 21 19 18 17 11 10 6 4 9 11 10 11 7 6 4 13 12 8 5 3 3 9 3 3 3 4 7 4 5 12 17 19 19 20 22 21 21 21 18
18 17 15 16 18 17 17 19 14 14 5 6 9 11 10 8 7 6 4 5 11 9 5 3 3 5 4 2 2 3 9 7 4 6 20 11 16 19 14 16 21 22 19 16
17 16 16 16 17 16 15 6 9 11 11 6 2 4 5 7 7 7 9 9 7 7 5 4 5 5 6 4 4 12 18 20 22 19 20 17 20 19 19 22 22 20 16 17
15 14 13 13 12 12 6 6 10 10 9 4 4 2 4 6 6 6 6 6 4 4 3 4 4 5 7 3 4 22 19 19 19 19 17 15 18 17 16 16 14 13 15 15
13 12 11 11 11 11 10 10 10 10 6 4 3 2 2 3 3 3 2 3 3 1 2 2 3 6 3 3 14 18 18 15 16 14 13 14 15 14 11 9 12 14 20 25
13 12 12 11 8 5 8 8 8 7 4 6 3 4 3 3 3 2 2 0 2 1 3 2 5 1 4 2 11 13 10 9 11 10 7 8 6 4 7 10 14 23 20 13
15 15 5 5 8 12 10 4 3 3 4 4 4 4 2 2 2 3 1 2 1 1 3 3 2 2 3 14 11 10 11 12 9 7 2 5 9 10 16 18 17 15 10 4
12 4 5 14 14 5 3 4 5 4 4 3 3 1 2 2 2 2 1 2 0 2 3 3 1 1 6 11 12 13 11 8 7 4 6 8 13 17 14 13 13 10 4 4
8 12 15 8 3 4 5 2 2 2 2 2 2 2 2 2 3 4 3 2 1 4 1 1 1 2 5 16 18 18 17 17 17 14 17 17 15 15 14 8 3 4 8 12
11 5 4 3 5 4 3 4 1 1 1 1 2 1 1 2 1 5 2 3 3 4 1 1 2 8 7 9 12 15 16 16 15 17 17 14 11 8 5 3 6 11 11 12
5 4 4 2 2 2 2 1 2 2 2 3 3 3 2 2 2 1 2 1 1 2 1 2 2 3 3 8 9 11 10 10 13 12 9 7 4 3 3 6 8 9 10 10
5 4 3 2 4 4 3 5 5 5 5 5 4 4 2 2 2 2 2 2 1 1 2 1 10 7 8 7 7 7 7 6 3 1 4 5 6 6 6 7 8 8 8 9
5 5 4 6 4 3 4 6 6 5 5 6 4 2 2 2 1 2 2 3 2 1 1 9 8 5 4 7 5 4 1 1 1 1 3 5 7 8 9 9 8 9 12 13
4 4 8 5 9 6 5 6 4 5 2 2 3 3 3 2 2 1 1 3 3 8 11 10 9 4 3 3 3 2 1 1 2 3 4 6 7 8 10 12 13 13 14 17

GFSNW_850_spd_003.txt.gz
Wind_Speed
42 41 39 36 35 32 31 19 3 23 21 4 2 4 5 3 3 3 4 4 3 5 3 4 4 6 1 2 2 4 1 4 3 1 0 1 1 3 4 3 4 1 0 5
43 42 39 36 37 36 37 15 5 21 22 4 0 2 2 2 2 1 2 2 3 2 4 4 2 3 2 3 3 5 5 1 3 3 2 1 2 2 4 5 2 5 3 3
44 43 40 37 37 38 34 17 3 5 8 6 9 5 3 1 3 2 3 5 3 4 3 3 4 3 2 2 3 4 3 3 4 7 3 1 4 4 4 3 3 4 6 4
45 42 40 37 38 41 32 13 4 9 3 1 5 4 6 5 2 2 2 3 2 5 4 2 3 2 2 3 4 3 2 4 2 1 1 1 2 4 8 7 4 6 4 8
42 40 39 38 39 44 30 11 7 6 4 18 7 1 6 6 2 1 2 5 3 2 5 6 8 6 4 4 2 2 2 4 2 4 1 3 3 5 7 6 3 10 4 11
39 39 38 39 42 47 19 10 14 19 1 4 6 6 6 8 6 1 3 6 4 3 1 4 10 8 11 6 5 3 2 6 3 3 2 2 5 9 10 5 5 7 8 8
37 36 36 39 43 48 22 18 20 8 2 2 6 8 5 6 6 5 3 6 4 8 27 29 24 26 22 18 12 4 5 4 2 2 1 1 4 2 2 9 6 12 4 4
34 33 34 38 44 48 22 22 21 8 3 6 4 7 5 12 8 4 4 3 7 30 6 4 4 4 5 5 7 7 4 4 3 3 3 5 4 3 5 6 5 10 12 6
30 31 33 38 44 45 20 25 18 14 13 7 16 8 9 5 4 3 4 9 30 4 4 3 4 3 4 1 1 2 4 5 3 3 2 4 4 2 4 3 4 2 11 7
26 27 31 38 43 45 23 19 19 8 4 4 18 9 9 9 6 4 7 11 4 1 2 3 3 3 1 3 4 2 2 3 3 2 3 7 6 1 4 3 4 2 12 14
25 27 31 36 41 46 27 21 15 8 4 15 10 14 15 10 10 5 11 6 1 3 3 3 3 3 4 2 3 5 5 5 3 3 1 6 6 4 5 4 4 6 10 14
21 24 30 35 39 43 29 21 17 8 6 8 12 12 13 10 14 16 22 8 6 8 4 1 3 2 1 2 2 1 3 4 3 7 4 4 13 9 11 10 9 11 11 16
21 21 28 35 40 40 23 22 17 13 14 12 10 11 11 13 12 13 10 6 9 8 7 8 2 3 3 4 5 1 3 5 3 1 2 10 15 17 23 25 26 27 27 23
21 22 27 33 36 31 27 19 20 12 9 7 5 9 10 13 12 9 8 12 14 14 8 5 3 3 7 3 2 3 3 8 4 4 11 15 12 13 11 13 15 18 17 18
22 25 28 30 30 33 17 18 19 14 4 7 9 14 10 11 11 13 12 11 15 10 5 3 2 6 5 2 1 3 10 6 4 5 17 8 14 15 15 17 17 19 19 19
24 25 24 25 28 29 27 7 11 13 14 8 3 5 7 12 13 15 16 12 10 5 5 3 5 4 4 4 3 11 16 18 20 13 14 16 21 21 18 16 17 18 16 11
19 23 23 22 23 21 14 9 12 14 12 6 4 3 5 9 9 7 6 7 4 3 4 3 4 3 6 2 3 5 11 12 15 16 15 15 13 9 15 16 15 11 6 9
20 19 19 17 16 18 17 16 16 13 7 5 4 1 3 4 3 3 2 4 5 3 3 3 3 5 2 3 4 14 13 14 3 8 7 10 10 11 9 6 4 6 14 21
18 17 17 17 15 7 12 15 12 9 6 6 3 5 4 3 3 3 3 2 3 1 1 1 4 1 3 3 12 15 15 11 14 11 6 3 2 4 3 3 8 16 21 18
17 14 4 5 9 21 14 5 3 4 5 5 4 3 2 2 3 3 3 3 2 2 1 4 2 2 5 9 7 8 11 10 4 1 5 8 10 11 12 17 17 16 15 12
7 4 6 16 12 4 4 5 6 5 4 4 3 2 3 2 2 2 1 2 1 2 2 3 2 2 2 11 15 15 15 16 17 12 11 12 14 18 19 16 15 13 11 8
8 12 15 7 4 6 7 2 2 3 2 2 2 3 3 3 3 4 2 3 1 3 3 1 2 2 9 8 14 17 17 19 21 18 18 16 15 13 12 11 9 5 6 9
10 4 4 4 5 6 4 5 2 2 2 3 3 2 2 3 2 5 2 3 2 5 2 1 2 9 8 15 15 15 14 12 13 14 13 11 9 6 3 1 6 10 11 12
4 4 5 3 2 2 1 2 2 3 3 7 7 4 2 2 3 1 2 1 1 3 3 3 4 6 13 12 9 9 7 9 9 8 6 5 5 5 6 7 8 9 10 11
5 5 3 3 4 5 5 6 5 4 5 5 5 5 2 2 3 1 2 2 1 1 2 1 12 14 11 8 4 3 5 6 2 2 5 5 6 7 7 8 8 8 9 9
5 7 4 4 5 4 5 8 8 6 7 6 4 2 2 2 2 2 2 4 3 2 2 16 13 13 11 10 5 3 2 1 2 1 2 4 5 6 7 8 9 9 11 12
4 5 10 8 11 7 6 7 5 5 2 1 2 2 1 2 2 1 1 2 3 12 15 13 12 7 0 3 4 5 2 1 2 1 3 4 5 6 8 10 12 14 17 20

GFSNW_850_spd_006.txt.gz
Wind_Speed
42 44 42 39 38 33 31 17 7 21 25 12 10 11 6 4 4 4 6 4 5 10 9 8 8 9 1 4 5 5 3 2 4 7 3 2 2 3 6 4 4 0 2 4
43 42 43 41 42 41 38 19 13 19 29 9 6 4 6 5 4 5 7 7 2 2 7 5 5 6 2 4 5 6 6 4 4 5 5 4 7 6 3 5 1 5 3 2
39 42 43 43 43 40 34 20 8 10 15 10 15 12 11 9 3 2 3 4 3 6 4 0 6 7 3 4 3 3 4 3 5 7 0 1 6 11 10 8 3 4 8 10
43 40 43 44 42 42 35 14 10 18 9 11 13 15 12 14 5 4 5 3 5 6 5 4 5 5 5 4 5 3 3 5 4 1 1 3 4 8 13 15 12 7 7 11
33 41 45 44 43 44 35 14 8 12 23 19 12 10 11 16 7 5 6 6 7 6 5 6 9 9 6 4 6 5 1 3 3 4 2 2 6 10 11 15 14 15 16 19
36 44 46 46 45 52 25 14 15 23 6 11 14 9 13 13 10 1 0 5 6 4 3 5 10 8 9 6 5 6 3 6 4 3 1 2 5 15 17 11 11 12 12 11
37 43 47 47 47 51 29 16 14 15 6 9 13 13 10 11 10 6 4 5 3 5 20 21 19 18 15 12 10 4 5 4 1 1 2 3 1 1 2 12 15 13 16 9
39 44 46 45 46 50 32 19 16 9 4 12 9 14 13 8 6 4 5 4 3 24 4 3 3 2 2 4 7 5 1 4 3 3 4 6 9 4 4 5 5 4 12 10
40 42 42 42 46 50 29 23 18 13 11 9 12 19 15 7 6 5 4 8 22 4 2 2 3 4 2 4 4 3 4 3 1 3 3 4 3 3 1 2 6 6 2 2
38 38 40 43 46 49 28 24 18 17 9 6 16 16 14 8 6 5 8 11 4 2 2 2 2 3 1 3 5 3 2 1 4 4 4 5 1 2 3 3 3 3 2 4
36 37 40 43 46 47 27 25 23 17 8 6 16 14 12 10 11 6 11 7 3 2 2 2 3 2 4 3 2 4 4 5 3 2 3 4 6 5 3 3 4 4 5 6
34 36 39 41 46 46 28 25 21 18 7 6 11 20 17 18 17 12 20 2 7 8 3 1 3 2 1 1 2 3 3 3 1 6 1 3 10 7 4 6 10 11 11 13
32 35 39 43 47 46 29 17 18 12 8 6 6 6 12 14 17 17 10 6 8 7 7 6 2 3 4 4 4 3 4 5 3 2 3 10 11 12 14 13 14 14 14 16
30 34 38 42 46 47 27 17 16 12 10 6 3 9 8 11 16 16 13 15 16 17 8 4 3 3 4 2 0 2 1 8 4 5 12 10 9 9 7 8 10 13 13 14
28 32 37 42 45 45 22 17 16 17 5 5 6 11 7 8 13 10 12 21 19 11 5 3 2 5 4 2 0 3 8 5 4 5 10 6 10 7 8 12 13 12 13 12
27 31 35 39 43 35 23 13 14 16 11 6 4 4 5 11 16 19 20 17 13 6 5 4 4 4 4 4 4 2 1 6 8 7 9 12 13 11 7 7 11 11 9 6
31 32 34 39 42 31 22 10 15 20 16 5 5 4 5 11 13 9 9 9 6 4 5 3 4 4 6 3 4 3 8 10 10 7 8 5 7 5 8 7 7 8 12 14
27 28 29 33 35 17 7 7 14 13 6 5 4 2 3 7 2 3 3 4 4 5 4 3 3 4 1 3 3 9 10 10 3 12 9 4 5 6 9 9 11 13 14 18
27 28 30 29 23 16 18 14 13 9 4 5 3 5 4 4 4 4 3 3 3 2 2 2 4 2 4 2 6 8 10 9 8 5 9 10 9 10 9 9 13 18 18 15
20 18 8 6 8 26 17 4 3 2 5 5 4 2 3 2 2 3 3 3 2 2 2 5 2 2 4 2 3 4 8 11 5 1 7 11 14 14 15 16 15 14 13 12
10 5 6 17 12 4 4 4 5 5 3 5 4 3 4 3 2 3 3 2 1 3 3 3 3 2 4 6 8 10 9 9 10 11 12 13 15 16 15 14 12 10 6 3
8 13 14 6 3 4 6 3 2 3 2 2 2 3 5 4 4 4 3 3 1 3 4 2 3 4 8 9 13 15 15 15 16 18 18 15 12 9 7 4 2 5 8 10
9 4 4 4 7 6 3 4 2 2 1 2 3 3 3 3 4 5 2 3 2 4 2 2 3 12 13 16 16 13 12 12 12 11 10 8 6 4 4 6 7 8 9 10
6 7 5 4 3 4 3 2 2 3 4 9 9 5 2 2 3 1 2 2 2 4 4 3 4 15 19 17 12 9 9 9 9 8 6 5 5 6 6 7 8 9 9 10
6 5 4 4 3 5 4 5 5 5 6 6 6 5 2 2 3 2 3 3 3 2 1 2 14 20 17 12 9 7 9 7 4 2 3 3 4 4 5 5 7 7 8 9
6 7 3 4 4 3 6 10 10 5 5 5 5 2 2 2 2 3 2 2 2 2 3 15 18 15 12 10 8 6 3 5 3 2 1 1 1 2 2 3 5 7 11 16
4 5 9 10 11 7 6 7 6 6 3 2 1 1 3 2 2 2 1 2 2 8 16 18 17 12 10 9 5 6 5 6 6 3 3 2 1 2 3 5 10 14 17 19

GFSNW_850_spd_009.txt.gz
Wind_Speed
42 43 41 42 39 38 33 25 11 21 28 16 20 14 22 11 11 10 8 7 9 11 11 13 11 13 6 8 8 10 6 5 5 13 5 5 10 8 11 5 6 3 3 8
41 40 41 40 41 46 39 28 18 20 28 13 13 20 21 13 10 12 12 11 9 8 10 10 11 11 6 6 8 5 7 7 7 7 6 7 9 10 9 4 1 7 3 4
44 39 39 40 41 46 38 28 11 11 15 30 19 23 18 17 7 9 12 10 11 10 8 6 7 8 4 5 5 0 0 12 10 10 5 1 12 12 12 13 7 9 10 13
43 40 38 43 41 46 35 27 15 20 13 21 21 21 19 21 12 10 15 11 15 13 8 9 8 9 6 6 6 6 5 8 12 12 5 5 8 9 13 16 15 13 11 11
41 38 35 44 40 46 36 22 22 28 27 33 20 19 22 23 18 14 14 10 15 11 8 11 10 12 10 7 10 9 5 5 2 5 8 8 11 12 13 14 16 16 16 15
41 40 32 44 45 54 30 25 21 29 21 23 18 17 19 21 15 3 5 12 8 10 5 8 10 9 4 3 7 10 5 5 4 5 3 4 6 15 16 15 16 12 15 15
34 40 45 45 50 57 34 18 17 16 13 17 18 19 20 17 16 11 6 7 8 6 16 16 15 13 10 7 6 5 5 4 2 1 1 1 4 1 4 8 14 16 14 13
36 38 46 49 53 55 37 18 16 18 4 15 24 20 18 19 11 9 13 5 5 21 10 4 4 2 2 3 3 3 3 4 2 3 6 8 9 5 1 3 6 6 7 7
34 44 41 50 53 55 38 13 16 18 12 13 28 19 24 10 10 7 5 10 17 6 2 2 5 4 4 5 6 3 4 1 4 3 3 4 4 4 1 1 6 7 6 5
47 43 37 47 52 54 35 10 15 19 14 22 18 15 17 20 12 6 8 10 5 2 2 2 3 4 2 4 5 4 3 1 5 6 3 5 3 3 2 4 3 5 8 10
46 37 42 51 51 50 33 9 16 19 13 10 13 14 17 22 19 7 12 8 3 3 3 3 3 1 4 2 1 5 6 6 3 2 2 5 7 6 1 4 6 7 9 10
39 44 45 47 52 49 28 12 20 17 11 7 7 11 15 14 18 17 20 8 13 10 4 2 2 2 2 0 3 2 3 3 1 5 1 5 7 4 4 6 9 11 12 14
41 42 44 48 52 50 27 13 22 13 7 6 6 7 11 18 20 14 8 7 9 8 4 6 2 3 4 4 4 3 3 3 3 1 3 5 7 10 9 8 8 10 12 14
37 39 43 47 52 48 22 10 22 14 9 4 4 6 5 14 17 20 12 10 15 15 9 4 3 3 5 3 1 2 2 7 5 6 11 8 6 6 4 7 9 11 11 11
36 39 42 45 53 47 11 17 20 15 9 5 8 7 1 6 14 14 13 13 16 12 5 3 2 5 4 2 0 3 6 3 3 3 7 6 8 8 8 9 7 6 7 8
37 39 40 45 53 49 13 7 12 12 11 5 5 3 4 9 12 13 14 11 8 6 6 4 5 4 4 4 4 5 4 3 4 6 10 9 8 4 7 6 8 9 10 10
34 37 40 45 49 46 11 5 9 11 10 3 5 5 3 8 9 6 8 7 6 3 5 3 5 4 6 3 4 8 3 4 3 5 7 4 9 6 8 9 12 12 13 12
36 37 38 39 41 24 12 7 5 12 15 3 4 3 5 3 3 4 5 3 4 6 4 3 3 5 2 3 7 4 5 3 4 7 7 8 8 9 10 9 7 11 15 14
38 40 42 39 23 10 11 7 7 18 11 4 3 6 4 4 4 4 3 2 2 2 2 2 5 3 4 4 3 3 5 4 2 6 8 9 10 10 11 11 13 14 14 11
38 37 21 10 10 24 20 11 7 7 7 1 3 4 4 4 3 3 3 3 3 3 2 5 2 3 4 4 5 7 8 8 5 6 7 10 12 12 13 14 14 11 8 6
19 6 4 14 20 15 3 1 2 3 3 6 4 4 5 3 3 3 1 3 1 4 3 4 4 3 6 8 9 6 8 10 11 12 13 16 16 14 13 10 7 4 3 5
15 22 22 11 5 2 4 2 2 2 2 2 3 4 5 4 3 4 3 3 2 4 6 3 3 4 11 11 10 11 12 15 17 17 16 14 12 9 7 5 4 5 6 7
18 7 5 4 5 5 3 3 2 2 2 2 3 3 3 4 5 5 2 3 2 6 2 3 2 13 14 16 14 13 13 14 14 12 11 10 8 6 5 6 6 6 6 7
8 7 6 4 3 4 2 3 3 2 3 9 9 6 3 3 3 1 3 1 1 3 3 3 5 16 21 18 14 14 13 14 12 10 8 7 6 6 6 6 6 5 6 7
7 6 4 4 4 6 4 4 5 5 5 6 5 5 3 3 3 2 4 2 3 3 0 2 14 23 22 14 12 12 12 12 9 7 6 5 4 3 3 3 4 5 5 8
5 7 4 3 4 5 8 11 11 6 5 6 5 2 2 3 2 3 2 2 2 3 2 13 22 23 14 12 11 11 10 8 7 6 5 2 2 1 1 1 3 6 9 13
4 5 11 10 12 9 7 8 6 6 4 2 2 2 4 1 1 2 2 2 2 9 15 17 19 15 12 11 9 7 6 9 8 7 4 4 3 2 2 3 7 10 13 15

GFSNW_850_spd_012.txt.gz
Wind_Speed
36 44 42 42 40 41 33 27 7 19 33 15 18 14 21 28 22 11 9 13 16 15 13 14 13 6 14 12 7 7 8 3 3 8 5 4 9 9 12 3 5 2 0 6
38 41 43 43 43 46 43 30 19 31 34 12 12 19 25 27 23 14 15 12 15 10 11 9 11 6 4 5 4 1 2 3 4 8 8 7 8 12 9 4 3 4 3 4
43 43 43 43 45 47 40 26 9 15 26 24 20 23 23 23 29 16 16 15 12 8 10 8 9 7 3 4 3 4 4 5 8 7 11 7 13 12 12 11 3 3 8 14
44 45 44 44 47 46 41 20 13 16 11 19 18 21 19 24 16 16 20 17 18 12 9 10 9 8 7 4 3 1 2 7 11 14 16 2 12 7 11 13 10 10 10 14
44 45 42 44 48 45 43 18 16 24 19 27 21 21 26 25 21 16 13 14 13 14 10 10 11 12 8 7 8 8 4 2 4 3 10 14 12 14 13 14 12 13 14 13
44 45 44 42 47 47 30 32 23 19 22 21 19 19 23 24 19 20 18 19 15 15 8 12 12 11 7 5 10 9 7 3 2 2 5 7 5 8 15 15 14 10 10 9
45 44 42 44 42 51 31 36 15 11 16 20 22 24 24 21 21 12 10 14 13 11 20 20 17 16 10 9 5 8 4 3 2 1 1 1 9 1 5 5 9 11 12 9
43 44 41 47 42 52 39 38 23 12 9 17 26 25 24 26 26 14 13 7 9 24 12 4 4 2 3 1 4 4 6 4 1 2 4 7 11 2 2 1 3 11 9 11
38 41 43 45 41 53 50 31 29 11 9 18 41 22 23 11 7 7 5 12 15 10 2 2 4 4 5 6 6 3 3 4 1 3 2 4 1 4 3 1 3 9 10 9
36 39 36 35 49 48 50 41 28 13 14 26 39 16 17 21 13 7 12 5 4 2 2 2 2 3 3 5 6 4 3 1 4 3 2 5 2 4 2 2 3 6 6 9
33 33 34 34 52 44 48 45 19 11 8 24 26 24 24 14 17 6 14 7 4 3 2 3 2 2 3 2 5 6 5 5 3 1 2 6 5 5 3 5 4 9 8 8
33 32 33 44 42 44 50 39 20 13 18 10 18 16 14 16 18 17 21 8 13 9 4 1 3 2 2 3 2 3 2 4 2 7 3 5 7 4 3 2 4 6 7 8
32 35 40 45 41 47 49 30 6 10 17 12 12 6 8 17 12 9 7 8 12 10 5 5 2 3 4 3 3 3 4 4 1 2 3 7 10 5 7 1 3 6 9 11
38 38 42 44 46 52 51 48 14 8 13 5 5 7 6 15 15 12 6 4 10 14 11 4 3 3 6 3 2 3 1 9 7 6 9 9 1 10 9 6 6 6 7 9
36 47 48 46 47 43 38 17 14 3 5 4 8 7 2 11 16 16 12 9 15 11 4 3 2 4 4 3 1 1 8 4 3 3 8 4 8 9 7 8 10 9 8 9
40 43 43 44 42 37 32 9 2 11 11 7 3 4 4 5 11 12 11 13 10 8 5 3 5 4 4 3 3 6 12 9 6 3 5 4 8 13 12 13 12 12 13 11
38 40 41 42 38 36 10 4 11 11 11 6 4 4 4 12 15 12 9 9 8 6 5 3 5 4 5 4 3 12 8 6 6 5 4 9 8 10 12 13 12 9 11 10
36 37 37 35 38 22 2 6 17 12 9 7 2 0 6 9 6 5 4 6 6 8 4 3 4 4 1 2 10 9 6 5 7 7 11 14 14 13 12 10 10 13 15 14
35 34 31 30 36 7 3 13 14 7 7 5 1 6 3 7 5 5 3 2 2 3 2 0 5 2 3 6 10 7 5 4 8 9 10 11 12 13 13 13 14 15 14 12
40 41 19 10 15 8 13 5 5 5 7 5 3 3 3 2 4 3 3 3 2 2 1 4 2 3 8 6 8 9 8 7 10 13 12 13 13 13 14 14 13 13 10 7
27 10 6 24 20 6 4 4 1 4 2 1 3 3 3 4 2 3 3 2 2 3 3 5 3 3 8 9 10 8 9 10 13 15 15 15 16 16 14 11 8 6 4 4
14 20 26 9 5 5 5 2 3 1 2 3 1 3 5 5 4 4 2 2 0 2 7 2 4 4 15 13 12 12 13 15 17 18 19 17 13 11 9 7 6 6 6 7
30 10 6 5 4 5 3 5 3 4 1 2 5 3 4 4 5 5 3 3 3 9 2 3 2 14 14 15 16 16 16 18 19 18 15 13 12 10 8 7 7 7 5 6
7 5 5 4 3 2 1 2 2 1 2 5 7 5 4 3 4 1 4 2 2 3 3 3 5 15 19 18 17 20 18 18 17 14 13 12 9 8 7 6 6 4 4 5
7 6 4 3 3 5 3 3 3 4 5 1 4 6 5 3 4 2 3 2 3 4 1 2 12 21 22 17 16 18 18 15 13 12 11 9 7 6 5 4 3 2 3 6
7 8 4 2 3 4 7 10 8 5 6 6 6 3 3 4 2 1 2 2 1 2 2 10 22 24 18 15 16 16 16 14 11 11 10 7 5 3 3 2 2 4 6 9
5 6 13 10 10 9 8 8 8 7 5 3 3 4 3 1 2 2 3 3 2 6 14 20 24 21 17 16 17 17 15 12 11 10 8 5 4 3 3 1 4 6 10 12

GFSNW_850_spd_015.txt.gz
Wind_Speed
42 45 40 43 41 40 38 23 8 19 33 13 9 12 10 15 20 22 14 2 5 7 6 8 9 9 4 17 10 10 7 5 3 11 14 7 6 4 6 5 4 2 4 5
44 43 43 45 45 47 44 14 15 27 39 12 11 8 14 19 19 19 7 3 3 2 4 4 7 5 5 5 6 5 2 1 2 6 5 6 4 5 4 4 3 5 5 5
46 46 45 46 48 50 45 15 8 16 28 24 18 17 17 20 22 21 22 6 8 5 8 16 9 2 3 6 4 5 5 2 6 6 7 3 3 5 6 5 4 3 5 5
43 46 51 49 48 51 47 16 11 15 11 18 10 19 15 21 14 19 18 7 8 7 4 2 5 5 3 3 5 3 5 4 1 3 5 5 1 5 7 5 6 7 7 6
44 44 52 50 51 52 49 10 18 23 7 25 16 19 20 25 20 16 14 6 10 7 5 7 5 8 5 6 2 4 1 2 2 2 5 7 4 8 7 6 3 2 5 6
38 40 42 44 51 53 27 28 22 26 14 18 17 22 22 21 20 18 21 10 5 7 5 11 13 10 16 8 7 5 5 5 3 3 4 6 6 7 5 6 5 3 5 7
43 39 40 46 51 56 23 36 11 12 8 15 21 21 17 25 21 11 17 20 7 14 27 24 22 26 22 21 12 3 5 4 3 2 3 2 8 4 3 4 3 7 9 10
41 41 41 47 51 52 47 33 19 4 3 15 20 22 24 23 26 17 4 3 19 30 8 4 4 5 5 6 8 5 3 4 2 4 4 5 8 3 3 3 4 5 8 7
42 42 47 50 51 47 53 34 12 7 2 17 32 24 29 10 7 3 5 8 29 20 3 4 5 4 6 5 4 6 6 5 4 2 4 6 6 2 4 4 2 6 13 9
41 45 50 48 48 38 48 44 33 10 6 13 29 24 22 21 6 6 6 2 6 8 3 3 3 3 6 5 8 4 3 3 5 2 2 7 6 6 2 6 6 7 9 10
46 43 46 43 41 38 40 49 33 10 6 18 12 36 22 18 18 6 21 9 2 3 4 4 3 3 4 4 7 7 6 5 3 3 2 5 7 4 6 6 11 10 9 8
35 39 39 35 41 43 41 37 40 23 19 10 10 30 34 29 29 21 25 13 9 8 4 2 4 2 2 3 2 3 1 6 5 6 5 8 6 12 12 10 9 6 7 9
33 34 36 30 43 37 48 52 29 23 12 11 13 22 29 24 24 28 12 10 10 7 9 6 3 3 4 3 4 3 2 4 4 5 2 6 13 7 12 16 15 10 11 8
30 35 31 37 39 42 49 44 31 14 4 4 7 14 22 25 28 19 18 18 15 19 16 7 4 4 6 4 4 4 5 5 5 2 4 19 18 18 16 16 13 12 10 7
34 35 31 32 35 39 38 35 32 21 2 4 0 14 14 15 19 21 12 15 26 17 5 4 3 6 5 2 3 1 5 6 4 4 3 17 10 15 10 12 13 12 9 9
34 30 31 35 31 31 19 7 43 50 42 8 3 7 8 9 12 12 13 15 11 6 6 3 4 4 5 3 3 1 15 15 14 7 12 20 19 15 11 13 13 10 8 9
32 35 33 30 31 31 16 3 3 12 11 2 3 3 5 8 12 10 9 12 6 5 5 3 5 3 6 3 4 11 16 15 14 17 23 17 8 13 11 11 12 11 14 15
28 30 30 29 27 32 19 8 12 12 8 7 3 2 3 6 4 4 3 5 5 7 4 3 4 3 3 2 10 19 18 17 13 11 11 25 24 17 13 13 14 16 18 18
35 36 32 27 30 23 22 15 16 12 8 6 4 3 2 2 5 4 4 4 3 2 2 1 4 2 1 3 17 16 16 10 23 23 22 19 16 15 17 19 19 20 17 13
35 31 10 7 5 12 8 6 4 6 6 5 3 4 1 3 3 3 3 3 2 2 3 4 3 2 9 15 17 14 12 24 26 25 20 20 22 21 19 18 17 13 10 8
24 4 6 22 11 6 6 5 5 3 4 5 4 6 1 4 3 3 2 2 1 3 3 4 1 1 5 15 17 12 15 20 17 16 21 17 20 22 20 16 12 10 8 7
11 18 17 11 7 8 6 3 4 5 3 4 2 5 3 3 2 4 2 3 2 2 1 2 2 1 23 21 17 16 16 18 21 20 22 24 21 17 14 13 11 10 10 9
34 11 6 5 7 7 1 2 2 2 2 1 3 3 3 2 4 5 2 2 1 5 2 2 0 13 20 20 20 21 18 21 22 23 20 19 19 15 12 13 11 10 10 9
8 6 6 3 3 2 2 3 2 1 1 10 9 5 3 4 4 1 4 0 3 2 4 3 3 15 20 20 22 26 29 23 21 20 19 18 17 15 13 11 9 8 8 6
8 7 5 3 3 7 3 3 5 4 5 7 5 3 2 2 3 2 3 3 4 2 2 1 13 17 21 20 25 29 25 19 18 18 18 16 14 12 11 10 8 6 4 1
7 9 4 4 3 4 7 10 7 5 5 5 3 2 2 3 1 2 3 3 2 1 1 10 18 21 18 23 25 22 18 16 18 17 15 13 11 10 9 8 6 3 1 3
5 5 13 10 9 7 7 6 7 4 3 2 2 4 1 1 3 3 3 2 2 5 10 17 22 21 19 20 19 18 18 17 14 14 12 10 11 10 7 6 4 1 3 5

GFSNW_850_spd_018.txt.gz
Wind_Speed
51 46 39 34 40 39 35 32 8 28 40 14 12 16 12 12 24 14 8 5 10 9 10 8 8 10 7 8 13 9 8 5 4 9 7 7 2 6 5 5 4 0 4 5
54 51 39 31 43 46 45 20 16 32 41 11 14 7 18 22 13 6 5 5 7 3 5 5 4 4 4 9 5 8 7 2 2 6 3 3 6 6 4 5 4 6 5 5
48 45 42 38 46 49 50 17 9 15 27 30 21 19 15 20 22 20 16 8 6 2 3 2 6 4 3 4 11 6 10 4 7 7 7 4 3 3 5 5 4 4 6 5
51 41 41 46 52 52 54 23 10 18 14 19 15 20 14 21 14 17 14 10 16 8 5 2 3 5 2 2 8 4 4 5 4 4 2 2 0 2 1 5 5 6 9 8
47 41 42 49 51 56 54 19 8 25 5 24 20 19 23 25 20 13 18 12 12 8 6 8 8 8 6 6 2 5 2 3 1 4 3 1 3 5 4 4 3 5 5 6
45 42 45 48 48 56 31 39 22 26 16 19 19 20 24 26 19 19 37 11 12 5 9 9 17 21 16 11 7 3 4 6 3 5 4 5 5 7 6 5 3 5 5 4
45 46 46 52 49 57 34 38 22 13 9 13 21 24 22 25 19 21 16 31 10 6 25 29 24 25 19 14 6 7 6 4 3 3 3 2 7 4 5 8 4 7 8 6
45 41 50 46 51 50 43 33 25 6 4 12 15 26 20 22 28 21 30 17 20 34 11 5 6 5 5 5 5 5 2 5 2 4 3 4 6 3 6 5 1 3 7 6
37 45 45 49 44 51 57 34 28 7 2 14 23 21 30 15 13 13 7 15 23 24 4 4 5 5 6 4 3 5 7 5 4 2 4 6 7 4 4 7 2 6 10 5
41 42 42 45 42 56 56 48 34 7 7 8 35 18 24 34 8 9 4 9 6 8 3 3 3 3 7 6 8 4 3 3 5 2 2 7 8 6 3 6 6 10 16 14
42 41 40 41 42 57 49 49 40 13 8 12 17 34 31 31 28 8 7 6 2 3 4 4 4 4 5 4 6 7 6 6 3 3 3 6 8 4 7 7 13 17 13 13
39 42 43 41 46 48 48 29 45 37 10 8 12 16 33 44 35 20 14 10 7 6 4 1 4 2 3 5 3 3 1 6 6 8 6 6 8 6 22 21 18 13 16 14
39 40 41 42 45 42 49 30 23 32 15 27 13 7 16 38 40 32 13 8 12 8 12 6 3 5 4 3 4 4 2 6 4 4 3 2 7 14 18 20 20 20 17 17
36 40 42 40 44 41 42 30 23 23 11 2 6 6 8 25 36 34 32 35 28 14 10 5 3 4 7 4 4 5 6 8 6 3 2 18 14 21 24 24 22 20 18 15
35 36 36 33 31 34 38 26 30 26 4 3 8 3 5 31 31 27 30 34 34 24 5 3 2 4 5 1 3 1 7 7 5 5 17 10 9 17 21 22 19 16 15 17
32 31 34 29 28 32 26 8 32 44 15 8 2 11 2 19 34 31 27 24 16 6 6 2 5 3 3 4 3 2 8 13 17 10 18 20 24 19 16 18 17 15 15 15
28 30 27 27 27 31 25 10 7 34 32 5 2 4 3 12 12 18 17 18 11 3 4 3 5 3 4 3 3 9 14 17 18 24 29 22 20 13 16 16 17 17 20 20
26 27 23 27 26 24 28 12 1 15 21 5 3 2 5 4 3 6 3 6 7 7 3 3 2 4 3 1 3 22 22 24 26 26 7 20 22 21 19 19 21 22 22 20
26 23 26 26 22 16 24 20 12 29 16 7 4 4 3 1 4 5 4 4 3 3 2 1 2 1 2 2 17 24 29 13 24 19 20 25 24 23 22 21 19 20 21 18
36 34 12 7 12 12 26 15 3 7 3 3 3 2 2 4 4 5 4 7 2 2 2 2 4 0 4 10 16 20 14 24 28 32 24 24 24 25 22 21 19 20 18 15
27 8 5 19 22 14 11 6 3 2 4 7 6 7 4 7 4 3 6 2 1 3 3 4 2 2 2 11 14 17 22 26 17 11 21 17 18 24 24 22 18 15 13 12
12 14 22 17 7 4 3 3 3 4 1 2 2 3 5 6 6 4 1 3 2 3 2 4 2 2 16 19 19 20 22 19 19 19 22 22 24 24 22 18 16 13 13 13
18 3 5 4 7 7 4 2 2 1 1 1 3 3 5 4 4 4 3 4 1 1 2 2 1 11 18 24 24 24 22 22 23 22 22 24 24 18 16 17 15 13 13 13
5 4 4 4 4 4 3 2 1 1 2 5 9 5 3 4 4 1 4 0 2 2 2 4 3 16 20 24 26 26 23 22 24 24 22 21 21 19 17 15 14 13 13 12
10 9 5 5 2 6 4 4 3 3 3 4 4 6 4 3 3 2 3 1 2 1 2 1 11 18 22 27 28 25 27 25 24 23 21 20 19 18 17 14 13 11 10 7
7 9 4 7 5 6 8 9 5 2 5 5 2 3 4 3 2 2 2 2 1 1 0 7 16 18 24 27 28 26 25 24 20 21 21 19 17 16 16 15 11 9 6 4
6 4 10 6 5 3 4 3 7 4 2 2 2 5 3 1 3 3 4 2 2 3 8 11 17 22 24 27 27 22 21 20 20 19 18 17 16 14 13 12 10 7 4 2

GFSNW_850_spd_021.txt.gz
Wind_Speed
54 49 55 49 36 41 38 27 7 24 39 13 11 15 8 9 20 12 4 3 6 5 8 8 9 11 10 15 15 9 7 6 4 8 3 2 4 5 5 4 4 2 3 6
54 46 57 48 41 42 45 22 13 30 41 12 16 9 19 16 9 7 6 5 4 1 7 6 7 7 7 15 9 9 8 1 2 7 5 1 2 4 5 4 3 6 5 6
57 57 47 41 41 43 40 18 8 16 33 38 17 19 12 23 17 15 4 3 3 2 3 2 7 5 2 7 2 16 13 4 8 9 8 4 3 5 5 5 3 4 6 6
56 61 51 44 42 48 48 16 11 16 15 24 21 19 15 19 16 17 16 6 8 3 4 1 4 3 4 3 9 1 4 6 5 3 4 4 4 5 6 7 6 6 8 8
56 59 58 48 46 52 48 15 10 25 5 27 25 17 23 25 23 7 10 16 6 12 9 8 9 6 4 6 2 3 2 3 4 3 2 3 4 7 7 5 3 7 4 6
53 54 55 58 50 57 31 36 18 22 16 18 19 28 23 27 17 21 20 19 11 5 11 21 21 9 13 12 10 5 5 7 4 4 2 2 6 8 8 6 5 6 6 8
51 53 50 50 55 62 38 38 16 9 10 13 21 20 21 24 25 20 21 35 4 6 7 12 14 18 20 14 8 5 6 5 3 3 3 2 7 2 4 5 3 4 4 6
54 56 54 48 53 56 63 26 26 6 3 16 13 23 25 21 28 19 24 17 34 16 12 3 5 5 5 4 7 5 3 5 3 4 4 4 5 4 7 6 4 2 8 8
52 54 51 50 53 52 60 35 38 12 2 11 18 20 28 18 16 12 18 31 26 13 3 3 5 5 5 2 4 6 6 6 4 3 4 8 8 4 5 6 2 4 7 9
51 50 48 51 48 49 57 22 27 17 3 6 31 15 19 27 17 7 7 12 10 21 3 3 3 3 5 7 10 6 3 3 5 3 3 7 7 5 10 5 7 17 18 18
45 48 46 46 44 44 50 39 29 16 1 14 5 22 22 26 30 12 9 7 2 3 4 4 4 3 6 4 6 7 7 7 4 3 2 6 8 6 8 7 11 24 19 17
42 39 41 40 41 44 40 29 30 22 10 8 14 15 26 23 41 32 20 6 8 12 3 2 3 3 2 5 3 2 2 6 6 8 6 4 8 2 8 25 29 22 22 21
38 36 39 40 42 34 39 27 36 21 10 24 13 13 25 19 33 43 16 7 11 10 9 5 2 4 4 4 4 4 3 5 4 4 2 3 6 12 25 24 25 23 22 25
35 36 35 32 37 31 36 34 24 28 2 4 7 7 16 16 30 34 42 22 17 19 11 4 3 3 6 4 4 5 5 10 6 1 1 5 7 17 22 22 21 23 23 24
32 31 33 33 31 31 33 45 23 20 18 4 9 21 5 11 29 39 37 31 24 17 4 2 2 5 4 1 2 1 7 7 5 6 17 7 11 19 21 25 23 22 23 23
33 32 31 30 34 37 31 15 31 38 20 5 3 8 9 6 23 36 37 38 27 12 9 3 5 5 5 4 3 3 14 12 15 8 26 12 25 23 22 23 22 20 20 19
36 34 34 35 35 44 21 9 9 39 31 5 4 5 4 5 12 16 17 18 11 8 5 2 4 3 7 3 4 6 14 11 12 15 28 18 26 17 22 22 22 21 21 20
39 39 32 33 26 15 20 11 1 20 19 7 3 2 6 6 4 5 6 4 0 5 5 4 3 2 2 1 1 16 18 20 24 24 13 24 25 27 24 22 24 25 25 25
32 30 31 29 24 21 20 16 13 14 10 4 3 3 4 8 3 6 5 9 2 4 2 2 4 3 2 2 8 20 27 10 23 19 21 27 31 29 28 27 26 27 26 22
33 33 17 11 25 25 24 15 4 3 2 3 2 2 2 3 7 4 4 3 2 2 1 6 3 2 2 1 14 20 16 18 27 30 23 28 29 29 29 25 24 23 24 22
22 10 7 29 25 12 6 3 3 2 1 3 6 3 3 5 3 3 5 3 2 3 3 5 3 3 3 8 20 20 15 18 21 15 22 24 27 31 29 25 23 22 20 19
13 19 23 13 8 4 4 3 1 2 3 2 1 4 5 7 5 3 4 3 2 2 3 3 3 2 10 15 21 21 22 21 16 19 26 24 25 24 25 26 24 20 18 17
15 8 7 4 2 2 2 3 2 2 2 1 3 3 3 4 3 4 3 5 0 1 3 2 1 8 16 21 23 22 20 21 24 23 23 24 25 25 22 23 19 18 19 18
6 4 5 3 3 3 1 1 1 1 1 8 8 5 3 5 4 1 4 1 1 2 2 2 1 12 18 22 23 24 23 22 24 25 26 28 27 23 21 19 19 18 18 17
6 5 5 4 3 4 2 2 3 7 8 8 5 7 5 3 4 3 2 2 2 1 1 2 9 18 19 21 23 24 25 25 26 27 25 22 20 19 19 17 17 15 14 13
7 10 4 6 2 6 9 12 11 11 7 8 7 3 3 3 2 3 4 2 3 2 2 3 16 21 20 21 21 23 24 24 24 23 20 19 20 19 19 18 15 13 10 9
6 5 16 7 6 6 9 12 12 9 5 3 3 5 3 1 3 3 4 3 3 7 8 7 12 18 20 20 23 24 24 23 20 19 20 20 18 16 16 17 15 12 9 6

GFSNW_850_spd_024.txt.gz
Wind_Speed
53 48 43 53 54 42 36 30 7 22 40 17 15 19 10 20 21 13 6 2 4 5 6 6 7 10 10 15 14 9 6 6 5 8 1 2 3 6 6 5 4 1 3 6
57 51 45 48 53 46 44 17 12 31 45 13 16 12 21 10 17 11 6 5 5 2 2 3 7 7 6 16 8 9 8 1 1 8 4 2 3 4 4 5 3 6 5 6
62 54 48 48 53 57 51 11 8 17 40 36 18 22 16 23 13 7 5 2 3 1 4 4 4 7 2 14 11 7 12 4 9 10 7 5 4 6 5 6 4 4 6 7
64 57 50 50 57 61 53 17 8 14 13 24 17 22 15 21 17 19 16 3 6 3 2 2 4 2 3 3 6 5 7 7 5 6 6 5 6 5 8 7 6 6 7 7
63 57 48 51 66 57 44 14 8 16 4 27 22 16 24 25 23 10 10 8 8 7 5 5 1 1 4 6 5 5 0 4 4 2 3 2 4 6 7 5 4 4 5 7
65 57 53 58 61 62 37 28 21 10 17 19 19 28 20 21 17 21 12 18 11 3 16 23 22 16 10 4 7 8 7 7 4 4 2 3 6 7 8 6 5 7 7 10
67 60 60 70 65 68 37 41 17 8 5 14 21 21 19 22 23 9 27 20 3 9 16 1 4 7 7 9 6 3 7 7 3 3 3 1 7 1 4 9 6 5 3 4
65 62 62 62 64 60 42 39 24 5 5 10 13 20 23 19 23 18 16 19 20 18 5 2 1 4 3 3 6 4 2 6 3 5 4 5 4 5 7 8 8 7 6 6
62 64 61 63 62 55 52 32 40 11 3 9 17 18 20 18 15 7 19 27 31 9 3 2 5 6 5 4 3 3 6 7 4 3 4 8 8 5 7 5 4 8 12 10
60 62 58 59 60 56 50 47 34 13 3 3 20 14 18 24 17 4 8 23 11 15 2 2 3 5 4 6 10 6 3 3 5 2 3 7 8 3 10 6 8 20 27 26
54 54 53 51 53 56 54 54 38 14 6 20 7 17 22 24 32 9 8 10 12 3 6 4 4 4 6 4 4 7 7 7 4 3 3 7 11 5 9 7 3 28 30 28
51 51 49 49 52 53 47 37 40 17 11 7 13 10 16 25 30 31 23 9 10 14 4 1 4 3 1 3 3 1 3 7 6 9 7 5 15 5 16 9 15 27 31 24
47 51 47 47 48 45 43 34 43 34 16 18 23 15 18 22 26 33 16 22 8 14 13 5 3 4 4 4 4 3 3 4 4 3 4 6 9 16 11 15 25 28 27 26
44 44 46 43 40 39 33 32 35 18 7 1 9 5 8 15 27 28 34 18 32 10 10 4 3 3 6 4 3 4 4 9 7 3 3 2 10 15 16 19 22 24 22 25
37 37 36 35 33 33 32 27 23 26 5 1 11 22 12 9 22 30 33 38 26 8 4 3 3 4 4 1 3 2 7 7 6 7 15 12 10 20 21 23 24 24 25 24
34 34 35 36 40 35 23 14 30 18 29 5 3 7 9 8 8 26 33 34 32 21 7 4 6 4 3 3 3 5 20 17 20 8 20 15 16 23 22 23 21 22 23 23
31 29 31 34 33 29 18 9 5 23 12 4 3 4 3 6 1 15 20 27 19 11 7 3 3 3 4 3 4 5 22 17 15 16 25 13 21 15 22 23 24 23 23 23
32 32 32 32 29 28 16 12 11 15 10 2 3 4 3 10 3 4 7 9 8 3 5 3 2 3 3 2 1 7 14 17 21 22 18 16 25 26 26 25 26 27 26 26
32 32 30 29 26 20 17 6 6 17 10 6 5 2 3 1 7 4 3 4 2 3 2 2 2 2 4 5 7 14 13 11 21 17 14 22 29 32 30 29 28 29 29 27
35 40 11 7 19 15 18 13 4 10 15 9 3 1 2 3 4 2 2 3 2 2 2 5 2 3 1 5 4 12 10 7 22 26 20 26 29 31 31 29 28 26 29 28
23 6 6 25 21 12 3 3 5 5 3 8 5 5 1 5 3 3 2 2 1 3 3 4 1 3 1 4 10 13 13 12 17 13 17 23 29 35 33 30 27 26 25 26
11 15 27 19 6 4 4 3 2 3 3 3 2 3 2 2 4 4 2 2 1 3 4 4 3 2 3 5 12 14 16 17 10 12 22 23 26 26 27 27 27 26 24 24
15 11 6 4 2 4 5 5 2 2 3 2 2 1 2 2 4 4 2 2 2 2 2 2 1 2 5 13 17 18 16 15 18 23 23 24 26 24 24 26 24 25 23 19
3 5 5 3 3 3 1 1 1 1 1 7 5 4 3 4 3 0 4 1 2 3 2 1 1 8 12 16 17 21 22 22 24 25 26 26 26 27 25 23 21 18 18 19
6 6 4 4 4 5 8 8 7 11 8 5 2 5 4 3 3 3 2 2 4 4 2 3 5 10 13 15 17 20 22 23 24 24 24 26 25 24 23 19 16 17 19 19
6 9 4 9 4 8 12 15 10 15 9 7 8 3 4 5 3 5 5 3 4 3 3 7 8 12 13 15 18 20 21 22 25 26 25 24 21 19 20 18 17 17 15 15
6 5 19 10 7 8 10 13 16 11 5 3 3 5 4 3 4 4 5 4 4 9 7 6 6 10 13 16 19 22 23 24 24 23 20 19 18 18 20 21 19 16 14 12

GFSNW_850_spd_027.txt.gz
Wind_Speed
53 51 51 45 40 36 38 28 7 17 25 20 14 19 11 7 11 5 2 3 4 3 3 6 7 11 9 18 16 9 6 5 4 6 1 1 3 4 4 3 4 1 1 5
54 52 54 48 44 43 44 18 14 20 36 14 16 14 15 9 8 10 7 5 5 1 1 3 6 6 6 17 9 10 7 1 2 2 1 2 3 4 4 4 3 6 4 5
53 52 59 52 49 46 46 15 8 17 35 43 22 18 20 19 19 11 7 4 3 2 3 3 2 5 3 15 7 13 15 4 6 10 6 5 4 6 6 5 3 4 6 6
45 54 60 55 54 51 49 16 7 16 14 23 22 20 14 26 12 11 19 6 12 2 5 3 4 2 1 3 6 6 5 7 6 5 5 6 6 5 10 10 7 7 8 9
45 55 62 59 56 53 45 11 8 13 18 36 25 14 21 26 24 16 13 9 14 14 7 7 5 4 2 3 1 6 1 5 5 3 3 6 5 7 10 10 2 8 7 8
45 45 62 61 60 60 34 28 25 18 17 21 18 24 19 18 20 15 15 15 3 7 17 17 14 16 10 6 3 2 4 7 4 4 2 3 5 7 10 5 5 5 8 11
46 44 67 62 63 65 38 31 25 14 6 13 19 20 18 22 24 12 20 16 12 6 17 9 1 5 2 6 3 7 6 4 2 3 2 5 3 2 3 11 5 9 5 5
46 45 66 62 64 65 45 35 24 12 4 10 14 18 24 14 23 19 18 14 11 8 5 2 4 3 3 1 1 4 3 5 3 5 5 3 2 5 7 7 14 10 13 6
47 47 65 58 60 66 49 34 33 19 7 3 21 18 23 16 11 7 19 10 16 3 2 2 5 5 2 4 3 3 4 3 4 3 5 9 5 4 8 4 12 8 12 11
45 60 68 56 60 68 44 34 30 21 5 5 16 15 18 28 12 5 8 18 7 10 2 2 4 4 7 3 7 6 3 2 6 3 3 6 6 5 12 6 14 13 22 23
50 66 53 55 59 66 42 30 40 24 2 7 5 13 22 23 33 9 11 11 9 3 5 4 3 3 5 3 3 6 7 7 4 3 2 8 12 8 10 8 5 15 20 28
59 53 55 69 55 66 46 31 24 21 15 5 7 14 17 21 36 30 29 11 11 14 4 3 2 2 1 6 8 0 4 6 6 9 7 2 25 8 23 7 8 11 25 32
56 52 56 60 60 58 43 27 29 17 15 25 13 19 16 21 27 40 13 11 15 12 17 6 3 4 4 4 6 2 3 4 3 3 5 7 14 23 11 16 13 11 27 37
49 49 49 51 52 46 39 30 25 24 7 5 6 2 18 14 27 35 42 9 22 7 11 4 3 4 7 4 3 4 3 8 6 3 5 3 16 20 21 16 15 15 24 31
50 48 45 43 40 39 34 26 19 18 17 3 9 16 17 15 23 31 37 34 16 15 4 2 3 4 4 1 2 3 7 6 5 6 17 10 12 28 22 19 18 21 28 28
42 38 37 35 36 40 29 10 23 27 40 6 3 5 8 8 14 25 36 37 35 15 4 4 4 3 4 5 4 5 23 17 15 1 8 20 10 20 24 23 23 25 28 30
33 33 32 30 27 29 23 8 10 36 25 5 2 3 4 3 6 7 20 31 21 16 10 4 2 3 3 2 5 4 14 23 18 14 11 9 16 12 23 24 26 25 25 25
34 32 32 32 29 27 13 6 16 32 15 4 2 3 4 0 3 3 7 14 15 12 8 4 3 2 1 4 5 8 9 14 15 16 21 12 21 18 25 25 26 27 28 30
34 34 36 34 24 13 5 9 26 23 5 5 3 1 2 3 2 2 2 6 2 3 2 3 7 2 5 4 6 15 16 13 15 17 12 13 21 25 27 29 30 32 33 34
38 38 12 7 15 14 21 15 11 8 8 5 2 3 2 2 1 2 1 5 2 3 3 9 3 3 2 1 2 7 13 11 8 15 10 14 21 25 26 27 28 30 34 34
33 9 6 17 21 9 2 4 4 3 2 8 8 12 2 5 2 2 4 2 2 3 3 4 3 2 2 5 3 8 12 13 14 9 6 12 17 29 30 27 26 29 30 32
12 13 26 27 9 4 3 3 2 4 4 4 4 6 7 3 3 4 2 2 2 3 3 3 2 2 8 0 7 9 9 10 14 7 4 9 19 24 26 27 29 29 28 28
29 12 5 4 1 1 5 5 3 3 2 3 5 2 4 3 4 3 2 3 2 4 1 2 2 5 4 4 9 12 7 10 13 16 17 20 24 24 26 30 28 27 28 28
4 3 4 2 1 2 1 1 1 1 2 3 6 4 2 4 3 0 3 1 1 1 2 3 3 4 4 7 11 16 16 13 19 23 25 27 27 26 24 24 25 26 25 21
4 5 3 3 5 7 7 3 1 5 4 4 4 5 6 3 3 3 1 3 5 5 4 4 15 6 4 7 10 15 19 21 23 23 24 24 25 26 27 25 22 19 19 18
6 10 6 11 2 5 7 13 9 14 9 8 8 3 4 6 3 5 6 4 5 5 5 16 9 6 6 10 13 16 18 20 22 23 25 26 27 27 25 21 17 15 15 17
5 5 24 11 4 8 12 17 20 13 6 3 3 6 5 3 4 4 5 4 5 18 17 16 11 11 13 16 18 20 23 25 26 26 24 23 21 21 21 20 18 16 15 13

GFSNW_850_spd_033.txt.gz
Wind_Speed
46 45 45 42 42 39 40 34 10 21 40 18 13 15 33 46 28 40 19 19 21 28 21 13 21 23 21 16 26 27 26 13 14 17 17 21 17 17 18 10 13 12 10 11
44 48 46 43 46 47 49 23 18 23 44 12 14 25 34 39 38 26 29 26 22 18 18 18 15 21 18 13 18 25 20 18 12 18 15 10 12 16 15 12 13 6 10 9
38 40 42 46 52 52 54 20 9 15 40 39 25 28 32 38 50 31 23 24 24 26 18 15 11 16 8 14 17 31 24 17 21 16 17 15 18 18 18 16 10 12 15 15
38 41 45 46 55 59 62 24 9 15 15 22 32 33 26 34 35 41 38 23 24 24 21 19 17 11 5 6 14 7 15 21 17 24 20 20 22 24 22 20 18 18 17 18
42 43 43 45 53 69 55 15 12 25 20 38 31 27 31 33 35 32 30 26 25 20 23 8 2 10 2 11 11 13 16 15 20 22 22 21 19 18 20 22 23 21 21 21
46 45 46 44 49 71 33 24 31 31 19 26 23 26 34 38 34 39 39 31 22 20 20 2 14 9 7 12 8 10 14 12 13 17 20 19 19 17 19 19 21 17 18 20
48 48 46 45 45 73 42 46 43 21 13 17 26 34 32 35 37 32 35 39 23 25 3 5 1 3 13 14 16 13 8 12 8 10 4 14 10 16 22 22 20 19 19 18
46 50 48 47 46 59 60 45 41 19 10 22 27 30 28 30 40 25 26 40 31 26 9 6 4 1 5 10 19 18 11 8 6 9 11 13 18 13 12 15 17 17 17 16
46 49 49 48 48 49 62 44 47 26 14 15 33 22 31 20 24 14 28 33 14 20 7 7 10 9 7 7 7 10 12 9 8 7 15 18 12 16 15 14 14 13 14 13
45 46 50 50 48 48 58 36 47 29 13 13 17 16 22 35 25 18 19 15 12 19 9 7 7 12 10 9 7 5 5 5 11 13 9 9 11 13 15 13 12 6 5 6
46 45 47 47 46 58 53 40 37 31 13 19 7 20 24 30 29 16 21 19 11 11 11 8 6 6 9 11 16 10 7 8 6 10 12 14 8 10 14 15 17 7 9 11
44 49 47 43 38 68 37 39 31 22 9 7 9 7 15 21 43 33 21 19 20 13 9 6 5 4 2 12 9 17 9 9 6 8 6 9 19 20 23 22 13 10 13 12
41 42 42 45 52 60 34 31 38 18 6 5 7 8 9 20 19 19 13 29 19 27 20 6 4 4 7 6 11 8 8 8 7 9 9 13 11 20 17 15 17 14 12 12
38 35 37 41 70 40 30 30 32 28 9 3 7 11 7 18 21 13 16 18 32 12 19 8 4 4 10 7 9 8 7 7 10 17 19 20 15 15 22 17 13 13 11 14
33 32 51 62 61 33 29 27 27 24 16 6 10 5 12 11 14 16 17 20 17 20 11 6 5 9 5 3 4 11 12 14 9 9 15 13 16 16 18 18 20 15 16 16
34 50 57 54 49 39 32 10 11 15 14 1 3 4 10 15 19 23 21 25 17 22 17 9 12 14 13 5 10 17 23 24 24 14 11 10 18 17 13 14 15 17 17 19
41 43 48 46 39 33 15 5 11 16 9 2 2 3 4 18 19 24 24 25 26 13 18 14 9 13 7 7 11 11 15 23 25 23 11 10 15 13 10 9 9 13 15 17
44 45 46 38 32 26 9 8 18 22 7 4 2 3 5 17 9 11 26 23 26 18 9 8 8 10 5 6 9 20 27 24 11 9 10 12 8 7 7 5 8 10 14 18
44 43 39 31 18 10 7 16 19 9 5 6 4 3 3 10 6 8 13 19 8 9 8 9 8 6 6 3 10 9 14 6 9 4 6 7 8 7 6 8 11 13 15 16
34 27 9 5 7 15 15 6 5 4 4 3 3 5 4 5 5 1 4 3 3 6 6 13 7 9 14 19 15 13 13 10 8 8 8 8 9 9 8 10 10 12 14 15
8 5 6 15 21 17 4 3 5 5 4 6 7 13 6 3 3 3 6 3 4 5 4 6 6 4 11 25 20 16 13 10 8 9 8 6 7 9 9 9 11 16 19 22
8 12 14 11 9 9 5 5 3 4 3 2 2 3 4 4 4 3 5 3 1 4 3 4 3 4 20 23 19 16 13 10 9 8 6 8 9 8 12 15 18 21 24 28
10 5 4 3 1 2 2 3 1 2 1 2 1 1 1 1 6 3 1 2 3 2 3 3 4 18 23 21 16 11 10 6 5 6 7 8 12 14 13 18 19 22 24 24
4 4 3 4 4 6 6 5 4 4 5 6 6 3 4 5 3 2 4 3 2 3 3 4 8 21 18 16 13 13 15 14 16 17 16 18 19 21 23 22 21 24 26 27
8 7 6 7 7 10 9 8 5 6 7 5 1 4 6 4 4 4 1 3 5 6 4 6 18 17 15 16 17 18 20 23 27 27 28 29 29 30 31 29 30 30 30 28
7 10 6 16 3 8 15 11 7 9 6 2 4 2 3 5 3 5 7 4 6 4 4 15 15 16 18 20 21 23 25 28 31 32 32 32 33 32 31 30 29 27 25 25
5 5 17 13 10 9 11 11 10 10 5 2 3 5 6 3 4 4 5 4 5 10 12 14 16 18 20 22 25 27 29 31 32 32 32 31 29 28 27 30 26 23 21 19

GFSNW_850_spd_036.txt.gz
Wind_Speed
42 41 40 41 40 36 35 33 8 19 36 18 11 17 39 40 25 41 30 26 25 23 19 23 17 22 18 20 24 27 25 11 13 17 14 17 17 16 17 10 9 6 3 8
40 41 42 42 43 43 45 25 14 25 49 14 17 22 31 33 29 31 31 28 27 23 16 12 16 21 19 23 18 25 20 18 10 17 16 19 19 18 13 15 10 12 4 7
34 37 39 41 46 48 51 20 7 15 40 38 27 27 32 32 43 29 35 29 29 21 20 10 13 19 15 7 10 13 11 13 21 15 14 9 14 20 17 18 9 11 8 9
36 34 38 39 46 52 58 22 7 16 14 22 30 26 19 34 27 36 38 28 30 25 21 10 16 21 28 12 14 8 6 16 18 21 20 20 17 20 20 20 21 17 13 20
38 37 35 41 48 51 65 15 8 26 16 32 27 26 30 31 28 26 32 29 30 26 22 14 18 11 15 11 10 11 5 12 15 23 21 19 22 22 20 21 22 20 17 17
41 42 42 41 45 51 34 28 32 27 22 23 20 25 31 35 27 25 34 33 24 25 21 15 3 6 5 12 10 8 11 10 17 19 19 13 21 21 19 16 18 17 17 16
45 45 45 47 50 53 47 32 37 12 11 18 24 31 35 34 31 25 27 35 28 32 6 8 9 4 11 4 14 14 12 12 11 7 2 20 10 14 16 16 16 15 16 16
46 48 49 49 52 52 55 21 34 19 9 18 24 31 26 33 30 27 24 33 41 34 21 2 1 2 4 4 12 17 12 10 7 9 13 13 18 13 14 13 18 18 20 17
44 48 51 51 53 51 50 33 43 22 15 16 39 19 29 18 19 19 26 40 34 33 11 8 9 8 6 6 6 6 18 14 8 5 15 18 5 11 15 17 13 12 14 13
42 45 51 50 53 50 51 42 44 25 8 26 26 14 18 30 26 15 19 30 20 28 4 3 8 8 9 7 6 5 2 8 11 10 6 7 7 13 23 17 8 8 14 17
37 41 43 44 50 47 49 45 46 39 5 20 18 19 20 25 31 14 18 10 9 8 11 12 8 6 8 11 10 8 7 3 4 7 8 12 7 13 17 10 12 9 14 9
36 35 37 40 49 47 43 25 45 37 20 2 11 14 20 22 26 26 23 19 16 7 5 6 6 3 4 6 4 5 3 8 3 5 2 5 17 22 20 14 11 14 11 14
34 35 36 38 49 42 40 32 44 28 10 4 9 11 26 13 19 30 17 25 14 12 28 6 3 3 3 3 7 5 12 10 6 2 9 16 4 17 27 20 17 20 13 14
34 40 37 44 39 38 39 36 46 23 13 3 5 12 16 15 16 12 15 13 18 13 19 7 3 3 8 5 5 6 7 15 16 11 12 18 39 22 17 15 19 11 8 8
36 40 39 38 37 37 32 39 24 16 12 3 3 7 11 6 15 11 7 9 11 12 3 4 5 5 3 2 5 6 10 12 7 6 7 4 15 20 19 14 19 21 12 14
39 37 37 42 51 30 37 10 18 20 20 4 5 7 7 10 7 17 12 14 25 16 9 10 8 10 6 3 5 10 16 16 16 7 14 11 17 20 16 13 13 24 13 13
36 37 42 42 37 24 10 6 22 24 20 4 2 3 5 10 11 15 16 14 8 6 3 4 6 12 12 3 6 9 15 13 13 13 20 16 18 11 13 13 10 13 13 11
52 52 41 33 26 22 15 17 23 18 8 2 1 2 1 9 8 7 12 7 6 7 5 3 5 6 2 2 10 11 10 17 20 14 8 5 10 16 14 13 7 5 6 6
44 36 30 25 16 6 9 18 19 11 4 3 2 1 2 5 9 10 9 11 4 4 3 2 2 3 2 9 17 21 21 15 17 14 11 9 8 9 8 7 7 5 6 8
38 30 9 6 8 22 25 8 3 3 3 3 2 3 2 3 3 2 5 6 3 4 5 5 4 3 11 21 18 17 19 20 16 14 15 19 15 11 6 4 3 3 7 11
10 4 7 20 21 6 2 3 3 4 2 6 4 9 5 4 3 2 4 3 5 4 5 7 5 4 12 22 20 17 16 14 13 12 11 11 10 6 3 6 7 9 14 18
9 16 17 14 2 3 2 3 1 3 2 5 3 7 14 9 16 4 4 3 1 5 6 4 3 5 19 19 18 17 14 11 9 8 7 8 9 9 10 12 11 13 16 19
11 5 4 2 2 2 3 4 2 1 5 7 4 3 4 5 5 2 3 3 3 1 3 4 5 18 18 16 15 16 16 13 12 14 14 13 16 15 14 17 15 17 18 18
6 4 4 5 5 5 4 4 4 5 6 13 12 2 1 3 3 2 4 1 1 3 4 5 7 17 16 16 16 19 22 21 22 23 22 23 24 25 24 23 21 23 25 22
7 7 5 6 6 9 10 11 4 10 10 10 3 5 6 5 4 4 3 4 6 7 5 4 15 16 17 19 21 23 24 26 28 27 29 30 30 31 31 27 26 28 28 27
6 10 4 14 4 8 13 12 10 13 14 7 4 3 3 6 4 5 8 4 6 4 4 12 14 19 21 24 25 27 28 31 33 34 34 34 34 34 34 32 30 29 28 27
5 5 14 8 5 10 10 10 13 13 6 2 3 6 6 3 4 4 5 4 6 13 15 17 19 20 22 24 28 30 31 33 33 33 33 33 31 31 31 32 28 26 24 22

GFSNW_850_spd_039.txt.gz
Wind_Speed
38 38 38 35 33 31 29 27 6 17 36 13 10 20 12 13 12 26 17 8 12 14 17 15 11 5 6 20 11 17 18 4 13 22 11 11 9 13 10 5 5 4 3 10
40 39 39 38 37 37 35 19 13 27 47 12 17 18 29 25 21 13 5 14 9 8 17 9 4 2 7 15 13 10 11 15 14 12 12 9 19 13 10 5 5 7 5 5
40 40 38 39 40 41 42 16 6 12 41 35 25 23 26 25 12 23 26 17 17 19 17 14 10 3 3 17 17 33 19 14 15 20 5 5 6 7 9 9 5 5 7 5
39 38 40 41 42 43 45 22 9 16 13 24 20 18 7 26 18 19 23 15 23 21 9 15 10 3 6 7 18 15 6 10 22 18 14 12 14 21 19 17 14 10 7 7
32 33 33 35 38 44 50 15 9 17 11 28 22 19 28 28 20 17 20 19 17 14 19 21 13 4 3 1 9 11 11 12 6 7 19 20 15 16 21 16 6 14 11 12
34 35 36 37 42 42 38 32 32 21 17 15 17 28 34 30 17 20 31 18 18 19 23 14 9 12 15 11 4 6 11 10 7 15 3 6 12 18 14 9 15 12 11 13
39 39 39 40 43 46 45 35 24 16 6 18 23 28 27 26 19 20 18 35 16 38 12 13 5 13 7 7 7 13 4 16 4 5 4 8 16 5 13 10 13 12 6 4
40 41 41 43 45 48 47 24 22 16 10 17 22 25 20 31 23 22 24 34 23 13 20 8 4 2 2 7 7 12 6 4 5 3 11 5 12 7 12 10 12 7 6 5
42 46 47 47 47 49 47 35 29 12 5 12 39 22 27 14 16 17 23 35 31 21 4 4 7 4 3 4 1 5 10 2 2 5 8 16 3 15 11 1 7 4 4 8
40 42 44 46 49 50 49 41 32 19 2 16 33 16 22 33 16 11 17 17 17 19 3 3 6 6 6 4 3 5 3 3 3 11 4 7 6 9 4 5 5 7 15 9
40 40 42 45 47 52 51 43 36 32 7 7 20 30 18 29 27 12 9 7 13 2 4 4 4 4 5 3 6 7 8 8 5 4 4 6 18 7 12 6 16 21 24 5
36 37 39 42 48 52 52 29 35 33 24 9 26 27 35 25 34 28 20 11 6 12 4 4 4 3 6 15 9 3 4 6 7 8 5 9 24 11 26 23 23 27 2 11
29 32 36 42 44 53 57 30 34 33 27 16 8 21 34 28 25 22 6 16 21 9 6 2 3 4 5 1 6 4 1 4 3 5 5 9 20 22 28 21 25 30 17 17
26 27 32 37 44 49 50 39 33 34 16 4 5 8 21 27 24 18 18 25 18 23 16 3 1 2 3 4 5 5 3 7 4 2 3 17 21 12 25 32 28 33 32 8
27 28 32 36 44 48 43 35 30 26 11 3 6 15 13 15 20 19 18 16 16 6 4 2 5 4 5 3 2 3 5 5 4 5 14 13 7 5 10 22 24 26 23 16
29 31 30 43 50 45 32 13 29 26 15 2 3 7 17 14 15 19 14 17 15 2 5 2 2 5 10 1 2 4 5 6 5 3 10 14 16 16 9 9 6 12 16 10
32 34 40 38 36 37 6 5 24 40 10 3 2 2 4 8 9 11 13 13 6 4 2 4 3 5 4 3 2 13 26 22 13 12 14 10 7 6 6 8 12 11 12 12
35 40 39 33 30 22 18 24 21 14 8 6 3 0 3 3 5 3 9 8 10 5 3 5 3 10 5 3 12 21 27 22 21 23 16 10 9 10 10 8 12 9 9 5
39 37 30 27 15 8 16 20 20 14 8 3 3 2 1 2 1 6 8 9 2 5 2 4 3 2 4 7 14 16 19 18 24 19 14 11 11 12 10 9 8 11 11 12
29 22 8 6 14 27 24 8 4 5 5 3 2 4 2 2 4 2 3 4 3 2 5 4 4 3 9 19 15 14 17 17 17 19 20 21 18 13 9 11 11 10 13 18
7 5 7 27 13 5 4 4 3 3 2 3 3 4 3 2 2 1 2 3 2 3 4 5 3 3 8 17 17 17 14 12 9 7 8 10 9 9 9 11 12 12 14 16
5 17 15 4 4 5 4 2 2 1 2 2 3 5 6 5 7 2 1 3 1 4 3 4 3 5 16 18 17 17 14 11 11 10 10 10 12 14 14 14 14 15 16 19
8 5 4 4 6 5 4 2 1 2 4 7 5 2 5 5 7 1 2 2 2 3 4 4 3 13 16 16 15 17 18 17 18 20 20 20 22 21 20 22 20 20 22 22
7 5 6 4 5 4 4 3 3 4 6 12 6 2 2 3 2 1 4 3 2 4 4 4 4 14 16 16 16 20 23 24 27 28 28 30 30 31 29 29 26 27 30 28
8 8 5 5 5 8 9 12 5 9 13 10 2 3 2 2 3 4 5 5 5 6 3 2 11 16 20 22 23 26 28 30 32 31 33 34 34 35 35 32 32 32 32 32
7 9 4 13 4 5 9 11 8 13 14 3 3 2 3 4 3 4 4 4 5 3 3 12 18 21 23 25 28 31 33 35 36 36 36 36 36 37 36 34 33 31 30 29
6 5 15 11 2 5 9 12 16 14 8 3 3 6 5 4 4 4 5 3 5 13 16 22 22 23 25 27 30 32 33 34 35 34 34 34 32 31 32 33 28 26 24 23

GFSNW_850_spd_042.txt.gz
Wind_Speed
33 33 31 28 28 26 22 23 5 18 31 13 11 19 12 6 10 12 12 5 5 9 4 3 3 3 5 6 2 4 5 7 12 23 17 10 7 11 11 6 4 3 5 9
36 35 32 31 30 30 25 12 9 29 42 12 19 15 16 21 3 6 3 7 10 2 4 3 5 6 2 7 4 4 6 4 4 7 9 5 8 5 10 5 4 9 7 5
37 35 34 33 33 32 30 7 5 11 35 18 18 20 21 20 16 22 23 12 9 5 3 6 7 2 3 3 6 11 8 5 5 11 7 5 5 11 10 11 6 5 7 7
37 36 36 35 35 35 33 19 7 11 9 20 14 15 10 24 19 16 14 6 19 9 5 5 7 4 2 2 2 5 4 6 12 17 14 18 19 9 9 14 7 9 7 9
37 36 36 36 36 35 40 13 10 9 1 21 22 20 23 24 17 12 13 15 4 17 20 9 8 7 5 5 2 3 2 2 10 10 13 16 20 20 16 15 10 7 8 8
35 33 33 35 37 38 32 35 21 15 14 11 17 31 34 16 16 13 32 15 15 13 7 14 14 11 10 6 7 3 5 3 5 6 16 13 11 27 19 6 7 6 8 8
32 32 33 35 36 43 43 26 23 11 6 15 27 16 20 21 19 22 16 25 15 19 24 13 7 1 1 3 2 5 6 6 4 7 14 8 18 4 16 16 9 7 5 6
34 34 34 35 35 37 44 37 17 19 10 15 20 23 21 25 27 21 24 32 30 15 17 1 5 3 2 6 6 8 4 5 3 4 7 16 5 12 3 7 14 8 8 11
34 36 36 38 40 40 43 38 42 15 4 17 29 19 21 13 16 14 30 25 29 26 2 3 9 5 3 4 4 7 7 3 4 3 4 6 9 7 19 2 8 9 15 12
36 37 39 41 41 43 46 35 39 26 4 14 22 14 19 22 16 9 6 26 11 16 4 5 5 7 6 6 9 6 3 0 7 4 4 8 11 23 15 11 7 19 6 14
36 38 39 40 43 46 45 43 30 37 12 17 13 28 15 24 30 12 7 5 8 2 7 4 4 4 6 4 7 7 8 8 5 5 4 10 2 13 5 6 9 21 26 10
35 38 41 41 44 46 48 32 39 30 21 5 19 19 28 25 38 31 19 9 8 12 4 4 2 2 1 6 3 4 4 7 5 9 7 4 3 1 10 5 9 13 23 23
34 33 38 43 43 44 49 42 33 35 14 14 23 22 25 32 24 36 17 15 16 13 13 5 4 4 5 3 6 6 4 5 4 3 8 11 7 9 19 12 9 15 23 24
33 31 33 40 41 44 48 40 40 33 12 4 8 29 22 32 34 24 37 21 19 16 19 5 3 3 8 5 5 5 5 7 6 5 6 5 18 9 12 10 5 11 14 19
25 26 30 35 39 44 46 38 39 37 25 7 4 15 20 24 31 31 21 28 25 16 2 3 5 4 3 2 3 2 6 3 4 6 11 7 15 14 8 10 6 10 13 15
20 23 26 33 34 42 39 15 34 35 36 5 4 6 16 18 27 29 24 26 19 20 6 4 5 6 9 3 3 7 13 16 21 7 19 13 13 12 8 15 14 11 13 12
25 29 31 38 46 50 25 11 18 40 28 6 3 2 10 13 17 19 17 14 10 10 5 3 3 2 12 3 3 12 16 21 14 22 18 7 15 8 8 5 2 4 5 12
34 39 42 42 36 36 13 10 19 43 13 4 3 1 3 6 4 3 12 8 7 5 6 1 3 2 4 4 10 15 15 18 12 22 16 11 6 5 7 8 8 5 2 1
38 37 36 28 14 6 24 25 21 11 4 3 3 3 2 3 2 4 3 4 2 8 3 2 1 4 4 6 12 16 17 14 16 16 12 15 14 13 13 11 9 9 9 8
18 17 6 6 12 27 26 9 5 5 1 3 2 5 2 4 2 2 2 1 3 3 4 9 3 3 8 14 13 13 15 13 13 13 14 18 17 16 17 15 10 10 12 13
6 8 9 20 14 5 4 4 2 1 2 3 3 3 4 3 3 2 2 2 1 2 2 3 3 2 8 15 15 13 10 9 8 6 5 6 7 9 11 13 14 14 16 18
11 16 12 4 5 5 5 2 2 3 2 4 2 2 3 5 4 2 3 2 1 2 2 4 3 3 13 13 13 13 13 11 11 10 10 11 12 13 15 17 18 18 20 22
6 5 5 5 6 9 4 2 2 2 3 8 6 2 3 4 4 1 2 3 2 4 4 3 3 9 11 11 11 15 15 17 20 21 21 20 22 22 23 24 23 23 26 27
7 6 6 4 5 4 3 2 2 3 5 10 5 2 1 2 2 0 4 3 4 4 3 3 3 11 13 14 14 18 22 25 26 27 28 30 31 33 31 30 30 32 33 31
8 8 5 4 4 8 6 10 4 8 10 5 1 4 4 3 3 5 4 4 5 4 2 2 10 16 17 19 21 25 28 29 29 30 32 34 34 35 35 34 34 34 33 32
7 9 5 12 3 5 8 12 9 14 13 2 4 3 3 4 3 5 5 3 4 3 3 12 19 21 23 23 25 28 30 31 31 31 32 33 33 33 33 31 31 30 30 29
6 5 19 11 5 7 12 14 16 14 7 3 3 5 5 3 4 4 4 3 5 14 20 24 23 24 24 24 26 27 29 29 29 29 29 29 28 27 27 29 26 25 25 24

GFSNW_850_spd_045.txt.gz
Wind_Speed
25 24 24 24 23 19 23 18 4 16 28 10 6 13 12 15 6 7 10 3 5 5 2 5 2 4 3 5 3 3 1 1 5 17 14 5 1 5 6 7 7 4 4 11
28 28 26 27 24 23 22 8 7 23 36 11 14 8 11 10 3 2 1 4 1 3 3 4 5 4 2 4 4 3 3 3 4 7 6 2 6 7 8 2 2 16 7 9
30 30 30 29 27 26 28 6 4 10 29 11 16 11 14 13 18 15 5 2 4 2 3 3 4 4 5 10 4 9 7 2 3 2 5 8 7 15 8 12 7 3 13 7
33 34 33 31 29 28 27 12 6 8 8 15 7 17 10 20 15 13 9 9 13 6 4 3 4 7 6 5 3 3 2 3 2 5 6 10 15 16 18 16 12 13 7 11
37 37 35 34 32 29 33 12 6 8 2 14 19 16 21 17 18 11 16 7 2 9 13 14 6 3 1 5 2 3 3 5 1 4 6 2 13 20 18 19 14 8 6 7
40 38 37 36 35 34 29 30 22 10 8 10 17 22 18 16 14 21 21 14 14 10 18 18 25 24 22 11 5 4 5 4 2 5 2 6 8 5 13 17 17 9 12 9
40 38 37 36 35 39 43 26 21 14 8 15 13 16 22 22 19 17 20 31 9 17 17 20 15 11 14 12 8 7 6 6 3 4 1 3 9 3 14 18 20 15 8 5
37 35 34 33 34 37 45 34 28 19 13 8 17 15 13 23 28 20 23 20 20 14 13 4 4 3 1 7 8 8 5 5 2 2 2 7 9 6 2 8 24 23 15 9
34 32 32 31 32 34 40 39 35 19 8 14 9 8 20 8 14 11 20 22 22 16 3 1 3 4 4 3 4 5 5 3 3 3 2 6 18 5 16 12 20 5 7 9
31 32 33 34 34 34 37 32 35 22 8 8 20 11 10 9 13 4 11 21 12 17 3 3 4 5 4 4 8 5 3 1 7 4 4 8 8 1 7 1 7 22 16 16
34 35 34 35 35 36 39 38 24 35 10 9 8 20 13 22 28 7 10 6 8 3 6 4 4 4 5 5 6 7 7 8 4 4 4 8 7 4 7 5 36 27 22 19
32 36 38 36 37 39 38 29 40 29 14 7 23 29 21 17 29 31 23 11 9 13 4 4 3 2 1 5 4 4 4 6 5 9 7 7 7 5 12 6 12 32 25 22
31 32 35 35 35 38 41 38 32 36 12 9 16 15 32 26 24 28 16 18 17 18 16 5 4 4 4 4 5 5 4 5 4 2 7 11 20 26 22 16 8 33 31 19
31 33 37 38 39 39 39 39 34 38 11 2 6 26 24 18 29 28 27 22 20 18 16 3 3 3 7 4 5 6 6 5 6 8 10 10 23 25 25 23 21 17 24 19
31 35 36 37 35 40 39 40 38 38 26 6 7 18 21 29 32 28 29 22 31 21 4 2 3 3 2 1 2 3 2 2 3 4 6 5 12 20 16 19 21 12 19 16
21 30 37 38 36 40 41 10 37 41 37 4 1 9 15 27 25 27 29 32 27 26 17 3 5 8 10 3 3 4 5 4 3 6 19 19 14 5 9 7 5 10 14 13
16 30 34 37 44 49 29 11 16 44 37 6 3 3 7 17 22 26 26 28 14 9 10 3 2 5 9 3 3 5 7 11 7 14 14 4 12 12 15 12 11 10 9 9
24 31 40 41 46 37 12 5 15 43 23 10 3 2 5 13 8 8 15 9 11 7 6 6 3 4 1 3 8 11 12 14 6 12 12 9 12 9 10 10 10 10 8 8
40 38 37 37 19 9 8 20 38 32 9 4 3 3 3 8 6 7 5 5 1 4 4 4 7 3 5 6 11 13 14 12 17 14 9 10 11 12 12 11 9 9 10 8
39 38 11 7 8 25 30 20 12 10 7 4 1 2 2 4 3 2 4 5 3 3 3 7 3 3 9 11 10 12 13 13 10 10 6 11 11 11 13 13 13 12 11 12
4 5 10 40 39 19 4 5 4 6 4 1 2 3 3 3 3 3 4 3 2 3 2 3 2 2 5 12 13 13 10 7 5 2 2 3 4 7 8 12 13 12 13 17
11 14 14 7 4 3 5 2 1 4 3 3 2 3 4 4 4 3 1 3 1 3 3 4 2 3 11 11 12 11 10 10 9 7 9 9 10 9 12 14 16 16 17 18
6 4 5 6 8 10 5 3 3 2 2 6 3 2 3 3 2 2 2 2 2 4 4 3 2 8 8 8 10 12 13 15 17 20 19 19 22 22 23 24 22 23 27 28
9 7 7 4 5 4 2 2 2 3 4 7 1 3 2 1 1 1 4 3 4 4 3 2 2 8 10 12 14 18 20 22 25 26 27 29 30 31 29 30 29 30 32 30
9 8 6 5 5 7 7 12 4 9 8 5 3 5 5 4 4 4 4 4 4 3 2 2 9 15 17 19 21 23 25 26 27 27 30 32 32 31 31 29 29 30 30 30
7 10 5 11 2 6 10 13 10 14 10 3 5 3 3 4 3 5 4 3 2 1 3 13 19 20 21 22 25 27 27 28 28 29 31 31 30 29 29 27 27 27 26 26
6 5 20 11 3 5 10 14 17 12 6 3 3 5 6 2 4 4 4 2 4 15 18 22 21 22 22 23 23 24 25 25 26 26 26 26 24 23 24 26 24 23 22 22

GFSNW_850_spd_048.txt.gz
Wind_Speed
29 26 21 18 14 13 16 15 5 10 17 11 4 9 5 6 4 4 8 4 6 3 5 4 3 4 5 18 6 4 3 3 4 10 7 5 1 2 6 4 5 4 2 6
29 26 23 20 16 16 16 7 9 9 30 8 9 3 9 6 3 3 3 3 2 1 1 3 3 4 6 20 8 3 1 2 2 1 1 6 5 3 6 4 3 7 4 4
30 27 25 22 20 21 20 7 3 13 28 14 14 8 9 8 11 7 2 3 3 3 4 2 4 6 3 14 5 6 2 3 4 2 2 3 3 6 5 1 3 4 9 5
32 29 27 25 25 24 24 13 6 7 6 11 8 14 9 14 8 11 2 3 5 1 2 5 3 4 6 3 5 4 1 4 3 3 5 4 8 9 6 5 6 7 8 12
33 30 29 29 29 27 30 11 7 9 4 12 14 15 13 17 17 10 7 6 2 6 8 8 7 6 1 4 6 3 4 1 3 4 9 10 11 7 8 6 5 8 11 14
31 31 31 32 31 31 27 28 23 14 12 5 13 14 15 17 12 14 25 10 8 8 13 13 21 19 19 9 4 7 3 3 2 2 2 3 7 7 12 7 5 5 5 10
36 35 35 35 36 39 39 19 20 9 7 12 11 15 18 17 19 14 17 25 6 6 3 14 8 16 18 12 12 11 2 3 2 1 0 3 6 3 5 8 9 8 7 6
39 39 39 39 39 42 43 33 25 17 9 11 14 14 11 24 27 21 17 16 32 14 6 4 4 2 2 5 13 9 6 4 2 3 3 7 10 6 6 8 17 5 8 7
42 41 40 40 41 41 42 45 40 18 4 14 22 8 16 10 12 14 21 30 17 8 2 3 3 3 3 3 3 6 6 3 3 3 2 5 4 3 5 3 9 3 5 6
41 40 39 38 37 39 42 32 45 26 8 17 24 11 9 8 10 4 6 15 12 16 2 3 4 3 3 3 5 5 5 1 8 3 3 7 6 6 1 2 6 13 10 10
34 34 34 35 33 35 38 37 30 42 12 13 18 25 16 12 16 4 8 6 6 3 6 3 4 3 4 3 4 6 6 6 4 4 4 8 7 2 6 7 11 11 19 17
26 27 27 27 28 29 31 23 28 37 15 4 28 22 30 25 33 28 23 12 9 13 3 3 2 2 1 6 3 1 3 6 6 8 7 4 7 10 11 16 18 19 19 22
27 30 32 33 35 35 35 35 23 28 9 7 17 22 24 20 20 27 11 16 14 8 10 5 4 4 4 4 5 4 3 6 4 2 5 12 21 21 20 18 23 27 17 14
27 28 29 31 36 37 37 39 32 29 5 1 5 16 22 20 31 32 30 19 16 15 10 3 3 3 7 4 4 5 6 5 4 10 7 13 24 10 25 26 21 24 25 17
27 28 30 32 31 35 32 38 37 37 20 3 4 10 13 28 20 31 31 29 27 14 5 1 3 2 2 2 2 2 0 2 3 4 5 3 12 17 21 16 18 17 17 16
24 30 31 32 31 32 34 8 31 38 31 2 1 3 8 26 27 23 25 27 22 21 5 3 5 5 2 2 2 5 5 2 4 6 18 19 19 11 15 16 17 21 18 14
22 31 34 34 34 35 28 7 7 36 31 4 1 3 6 16 23 28 23 26 17 11 9 6 2 1 8 2 2 7 8 10 10 8 16 7 10 10 17 17 10 15 15 11
19 32 36 34 36 33 14 7 15 36 19 5 2 3 4 16 9 8 18 15 16 9 4 6 4 3 2 2 5 8 11 13 8 9 10 11 13 10 11 11 9 10 12 12
34 36 38 40 24 8 13 21 35 26 8 5 3 2 3 11 7 8 12 9 2 4 2 3 5 2 2 4 7 9 11 10 14 15 11 9 8 10 10 12 15 11 13 13
46 42 12 8 16 31 38 18 5 6 5 2 2 4 3 8 5 3 5 4 3 3 3 8 3 2 8 9 8 10 10 10 9 9 6 10 9 9 11 13 11 11 11 12
11 7 10 44 37 18 5 5 4 5 3 5 4 9 2 3 2 3 2 3 2 3 2 3 3 2 2 8 8 9 8 6 4 2 3 4 4 6 9 12 10 12 14 16
14 22 23 11 6 6 3 2 2 1 2 1 1 3 3 4 3 3 0 3 2 3 3 3 2 2 8 9 9 9 9 9 9 7 7 8 11 12 15 17 16 17 18 18
21 8 7 4 7 8 3 2 2 2 3 6 3 3 3 3 5 3 2 3 3 5 3 2 2 6 7 7 9 8 10 12 14 16 16 17 18 18 20 22 22 25 29 29
7 5 6 4 4 3 3 2 1 4 4 7 3 3 3 4 3 3 4 2 3 4 3 2 2 6 7 8 9 13 16 17 20 22 24 26 27 28 28 27 25 25 27 26
8 7 5 4 4 6 8 10 2 8 5 3 4 6 5 4 4 3 3 4 4 2 2 2 9 12 14 15 16 18 21 23 26 26 28 29 29 29 29 27 26 26 28 28
7 10 5 11 2 6 10 12 9 13 7 4 5 3 4 5 3 5 3 3 2 2 2 12 16 16 17 18 19 21 24 26 27 26 26 26 26 26 26 25 24 23 22 22
6 5 18 8 2 5 9 12 14 10 5 3 2 5 4 3 3 3 3 2 1 12 16 18 18 19 18 18 19 20 21 22 23 23 22 22 20 21 21 23 20 19 19 19

GFSNW_850_spd_051.txt.gz
Wind_Speed
24 23 23 21 15 12 13 7 3 5 13 9 3 3 6 7 4 4 5 3 6 4 4 7 6 6 5 19 6 3 3 3 4 6 1 2 2 1 3 7 6 1 0 5
25 25 22 21 16 16 12 6 9 11 14 6 8 3 3 7 4 3 1 2 1 2 5 5 3 3 6 13 11 5 5 2 3 2 2 4 6 3 2 2 1 5 4 4
27 25 24 21 19 20 17 6 3 9 19 20 11 8 9 8 10 9 1 2 3 2 2 2 3 4 4 18 7 11 2 2 2 3 3 3 1 3 3 1 2 1 5 8
27 27 25 22 22 24 20 13 6 6 3 10 13 9 7 14 10 11 13 4 8 2 2 3 3 2 6 8 12 6 2 2 2 2 4 5 5 7 7 5 8 6 6 11
27 30 27 25 26 27 27 9 6 10 5 9 13 11 9 18 14 11 8 11 6 9 12 10 10 2 4 4 6 5 8 2 2 3 9 8 7 8 10 13 14 13 14 12
31 31 28 27 29 30 23 24 19 6 7 9 8 14 18 14 13 13 18 12 9 13 15 16 19 21 15 8 5 3 4 2 3 2 2 1 6 8 14 8 9 6 10 12
31 31 31 30 32 36 34 21 14 11 7 10 13 13 16 17 20 13 13 19 13 4 4 10 11 10 10 11 9 10 2 2 2 2 1 5 2 4 4 7 12 14 14 12
33 33 34 34 35 36 38 35 23 9 8 12 15 16 15 12 20 22 17 21 19 16 3 3 4 1 1 6 10 10 10 3 2 2 4 8 10 6 4 6 10 3 3 7
37 36 36 37 38 38 38 40 36 20 4 14 19 13 17 11 7 5 15 11 12 14 2 3 3 3 2 2 3 3 9 4 4 3 3 5 3 1 1 2 6 4 4 8
40 40 42 41 39 41 39 39 40 30 10 15 22 12 15 8 9 5 6 15 11 12 3 3 4 3 2 3 3 5 6 3 10 4 4 7 10 8 3 2 2 2 4 13
37 38 39 43 43 42 41 42 38 42 15 11 22 28 18 18 8 4 8 7 6 6 6 5 4 4 4 3 3 5 8 8 5 6 5 8 4 5 4 2 14 13 13 15
27 28 30 39 41 40 39 38 38 36 21 7 23 23 26 30 25 23 18 7 8 10 4 4 3 3 2 6 4 2 5 6 5 8 6 1 4 3 12 16 14 15 19 21
28 26 27 33 35 36 36 27 28 35 12 13 14 21 33 27 28 25 10 16 12 10 8 4 2 3 4 5 5 5 3 5 4 2 5 14 16 8 9 16 15 19 22 19
25 27 27 25 28 30 33 29 31 31 10 2 4 26 24 34 33 24 25 11 14 9 8 1 2 2 6 4 2 5 5 6 5 8 9 13 8 10 17 20 17 18 18 10
20 22 26 29 29 28 28 26 28 33 8 3 5 7 21 28 29 23 27 26 19 12 7 3 4 2 2 0 0 3 3 4 4 5 2 4 8 18 17 18 18 18 18 15
23 25 28 25 28 32 30 15 31 31 28 3 3 7 14 27 31 25 33 33 24 18 6 3 6 8 3 3 3 4 3 2 1 2 8 15 12 8 11 17 17 15 12 12
22 23 24 27 28 32 28 8 13 43 31 6 1 2 6 16 26 24 17 24 17 15 7 5 3 1 10 2 3 5 4 5 7 6 8 7 5 8 16 15 13 12 11 11
23 24 25 25 28 32 29 3 22 41 19 8 3 2 3 14 9 7 18 7 8 10 7 4 3 7 2 3 5 6 9 12 5 7 7 11 9 10 11 11 10 9 9 10
26 30 30 34 26 10 16 14 39 26 5 6 3 4 3 12 7 10 11 11 3 4 2 2 4 1 2 5 6 8 10 10 14 16 13 3 3 6 8 8 8 8 9 10
42 41 19 8 14 37 38 21 5 6 4 4 3 4 3 7 4 3 5 5 3 2 2 6 3 2 8 7 6 6 8 9 10 10 6 8 5 6 5 5 6 6 7 8
21 6 10 49 38 9 5 5 4 4 3 6 6 12 4 8 3 4 5 4 3 4 3 4 2 2 3 8 8 8 7 7 5 3 4 4 2 3 5 9 9 10 13 17
18 26 26 11 5 6 4 2 3 3 2 3 3 5 8 6 8 3 5 3 3 3 2 3 3 3 5 5 7 8 8 7 7 5 6 7 8 9 11 13 15 16 18 21
24 8 6 5 6 7 3 2 2 2 3 5 2 2 5 5 2 1 2 4 3 5 3 2 2 6 6 6 7 9 10 10 12 13 13 13 15 16 17 19 19 22 26 27
9 5 6 4 4 3 3 2 1 3 5 7 4 2 3 5 3 3 5 3 2 3 2 2 2 6 7 8 10 12 16 17 18 19 21 23 24 25 24 24 24 25 27 26
7 7 5 4 3 5 6 7 2 6 5 3 2 5 5 4 4 4 3 3 4 3 2 2 8 10 11 13 14 17 18 19 20 21 23 24 25 26 26 24 24 25 25 25
6 9 3 8 2 5 9 11 7 11 6 4 5 3 4 5 3 5 3 2 2 2 2 9 12 14 15 16 18 20 20 21 21 22 23 24 24 25 25 23 22 20 19 20
6 5 15 6 2 4 8 9 13 9 5 2 3 4 3 2 3 3 3 2 3 12 13 15 16 17 17 18 19 18 19 20 20 20 20 21 20 19 19 21 18 17 17 17

GFSNW_850_spd_054.txt.gz
Wind_Speed
30 25 21 22 16 13 13 8 4 7 13 9 4 6 9 7 8 8 11 7 7 8 8 8 6 4 7 14 16 2 6 3 7 10 4 5 12 17 18 10 11 6 5 6
24 21 23 23 19 16 13 8 10 8 14 5 8 4 8 10 11 10 6 7 3 5 8 6 7 5 4 10 11 9 5 7 9 10 6 5 4 3 4 3 2 10 8 3
26 23 25 22 23 18 20 6 4 10 13 14 9 16 13 13 12 14 10 8 6 5 10 11 6 4 4 9 8 13 10 3 6 10 3 2 7 5 3 5 6 8 10 9
27 25 25 22 27 21 21 12 5 8 5 13 15 12 4 17 12 15 16 10 15 10 7 12 11 6 6 6 8 4 2 3 2 1 1 1 4 7 7 6 6 6 8 9
27 27 25 25 30 24 27 8 7 7 15 11 15 18 14 17 12 11 13 14 9 13 17 15 8 6 10 7 5 6 6 4 4 5 5 6 8 9 9 10 11 11 15 17
27 25 24 27 30 26 24 22 18 8 10 16 13 13 15 15 12 15 21 14 11 11 15 17 16 16 14 13 8 5 4 3 5 9 3 5 8 15 16 13 12 9 11 8
28 29 28 32 30 31 28 20 18 13 9 9 13 15 16 15 15 17 14 12 13 3 8 12 16 15 15 16 15 13 5 4 3 3 3 7 1 3 0 6 9 8 8 8
28 28 30 34 33 31 32 31 22 10 12 19 20 19 16 18 14 15 16 20 17 7 4 4 8 6 7 12 15 15 12 6 3 4 11 9 12 6 8 7 4 0 3 6
31 31 31 31 30 30 34 38 36 22 7 7 20 16 20 13 13 12 7 15 14 11 3 4 5 5 3 5 7 14 13 12 7 5 7 6 4 5 1 1 3 7 7 8
33 34 34 34 33 34 35 33 36 29 18 28 23 13 14 16 6 4 3 10 10 17 4 5 5 5 1 4 7 8 10 11 14 11 7 3 9 6 2 5 4 11 15 15
35 34 34 35 36 36 37 40 33 36 18 25 16 29 22 16 16 8 4 7 5 4 6 5 4 4 5 5 3 9 10 9 8 11 6 6 6 3 4 7 9 16 19 20
36 36 37 37 38 40 39 40 38 34 25 15 25 34 24 25 25 16 9 4 7 11 7 6 4 4 2 8 6 11 7 7 6 7 7 3 3 3 8 10 12 15 17 20
34 34 35 37 39 42 44 46 39 35 33 18 22 23 25 29 28 22 8 8 8 7 10 2 4 5 6 6 9 9 8 9 7 5 8 10 8 2 6 9 9 11 14 15
29 29 30 30 31 38 45 47 40 37 9 5 10 17 27 28 28 27 25 13 11 7 9 8 4 4 6 6 8 8 9 7 10 12 13 12 13 2 8 10 10 12 13 13
27 25 24 26 26 31 38 41 41 41 26 4 7 9 22 22 26 30 24 22 13 8 4 2 3 6 4 4 3 8 12 11 8 8 5 1 6 9 9 13 12 13 14 14
27 25 26 28 26 33 39 11 31 44 26 5 5 4 8 23 19 22 25 20 15 12 5 3 6 10 3 4 8 5 4 2 5 4 6 8 12 11 7 10 10 10 10 11
21 21 23 32 31 36 21 7 14 40 19 3 1 3 4 13 16 15 17 18 15 10 3 5 3 4 9 3 6 5 2 5 6 5 8 7 8 4 11 12 11 9 6 7
20 26 25 28 33 30 21 6 13 33 14 6 2 2 4 11 9 9 12 9 10 4 3 4 5 8 3 2 4 3 5 8 4 7 7 9 12 10 10 10 8 5 5 6
26 26 27 35 28 18 19 9 31 30 6 6 4 5 4 11 9 9 9 8 3 6 4 3 8 3 2 5 3 4 7 7 11 12 9 3 1 5 7 6 6 2 4 5
33 33 13 8 16 27 33 14 6 6 4 4 3 4 4 10 10 10 7 6 4 3 1 6 1 3 9 5 4 4 6 7 8 9 3 7 4 4 5 4 4 3 3 4
26 5 6 39 32 15 4 4 3 4 3 6 5 10 5 6 3 4 7 4 4 4 2 3 4 3 3 5 5 5 5 4 5 4 3 4 4 4 5 8 6 7 9 11
12 23 31 21 6 4 3 4 4 4 4 5 4 6 5 6 5 3 5 4 4 3 5 4 5 4 4 4 6 7 8 8 7 6 7 7 9 9 10 11 11 13 15 17
29 9 5 1 4 3 2 6 3 4 2 2 4 3 9 6 9 3 4 4 2 8 2 2 3 5 5 5 5 7 8 8 10 11 11 12 13 13 14 17 17 19 22 22
7 5 5 4 3 4 3 2 2 3 1 2 2 4 1 0 2 1 3 2 3 4 4 3 4 6 6 6 7 8 11 12 14 15 17 20 21 21 21 21 21 21 22 21
7 6 5 5 4 4 4 3 1 3 4 3 3 4 1 2 4 3 3 3 3 3 3 3 8 8 9 10 11 12 14 15 17 19 21 22 22 23 23 22 21 21 21 20
7 8 3 5 2 6 6 7 4 6 4 1 2 2 3 5 3 3 3 2 3 3 4 11 11 11 12 13 14 16 17 18 19 20 21 22 22 22 21 19 18 17 16 16
5 5 9 5 4 4 6 7 9 7 5 2 2 4 5 1 3 3 4 3 6 14 14 12 13 14 15 17 18 18 18 19 19 18 18 18 17 16 15 16 14 13 13 12

GFSNW_850_spd_057.txt.gz
Wind_Speed
24 23 18 17 21 17 10 11 4 8 16 12 8 11 17 18 10 16 14 9 12 11 9 9 5 5 4 7 12 8 15 6 11 18 20 20 18 21 20 10 9 12 8 2
23 20 19 19 23 19 10 12 15 13 15 8 12 13 16 19 15 16 13 13 14 13 11 6 7 10 3 6 7 9 13 8 9 15 11 9 14 19 20 20 14 12 9 6
23 21 19 21 20 19 18 7 4 16 16 17 13 15 14 17 18 19 17 12 12 10 12 11 9 8 3 5 3 6 13 11 14 12 12 13 15 7 10 10 10 13 14 13
26 27 24 22 23 23 20 12 7 8 8 15 17 15 7 19 17 17 18 13 16 15 15 14 15 15 12 7 4 4 5 6 11 9 5 5 6 14 11 12 12 10 12 10
26 25 26 24 23 22 26 7 7 19 18 15 18 19 17 16 14 15 16 16 16 16 17 14 9 8 6 10 5 5 7 3 9 8 6 6 7 9 11 13 12 12 14 14
26 26 26 25 26 26 22 28 19 9 10 16 13 12 18 21 17 13 19 13 13 13 12 11 13 14 10 13 12 10 8 7 4 4 7 8 8 14 14 13 14 13 13 9
29 28 27 27 26 33 33 16 21 13 10 11 13 19 17 14 15 17 14 18 13 9 4 9 13 17 18 18 18 16 12 10 10 5 5 4 6 5 3 12 13 11 7 4
30 30 28 30 28 29 30 32 17 13 9 18 17 15 14 14 13 16 13 14 13 3 3 4 8 10 12 14 20 18 15 11 5 5 7 10 5 3 9 7 7 3 2 3
32 31 27 29 30 32 31 32 26 15 10 14 20 19 20 12 12 12 11 7 3 6 2 3 7 8 11 10 8 19 16 12 9 5 11 11 5 3 2 3 7 11 5 4
33 33 30 30 30 29 30 29 31 23 12 28 19 8 10 14 13 9 2 3 5 13 4 5 6 8 4 5 9 15 14 12 14 11 8 6 8 9 0 11 5 10 6 8
38 35 32 31 31 30 30 29 24 30 17 29 20 21 21 16 7 4 2 3 6 4 6 5 6 4 4 6 3 15 13 10 9 13 10 13 8 3 7 8 5 8 8 10
39 37 34 33 33 32 31 29 25 27 22 16 16 29 30 22 20 12 8 9 2 12 7 6 2 4 2 7 5 12 9 10 8 11 9 3 3 8 9 7 7 10 11 11
39 36 35 33 32 32 34 32 27 27 25 20 27 30 20 22 31 27 8 8 7 8 11 2 3 5 3 5 9 5 9 9 4 1 7 9 6 7 7 9 10 11 12 14
37 36 34 34 34 34 36 38 32 29 8 6 19 17 25 33 26 27 31 26 17 12 9 3 2 4 4 5 9 6 7 3 9 8 9 7 7 8 7 10 12 14 15 16
32 33 33 33 34 35 36 38 40 35 27 5 15 20 23 19 28 28 25 24 17 10 4 2 3 4 3 6 7 7 8 6 5 4 10 9 8 9 9 13 14 15 16 16
30 30 30 32 35 34 33 21 42 45 37 9 3 7 7 15 19 23 23 21 15 12 3 3 5 9 3 3 4 10 7 8 9 4 7 8 11 10 10 11 12 12 13 13
26 29 25 22 28 30 28 8 11 43 33 9 5 4 1 12 13 14 16 18 9 6 5 5 2 2 6 3 8 6 6 6 7 8 11 1 10 6 8 9 9 8 7 8
29 29 27 25 28 34 23 12 12 35 31 8 3 2 5 12 7 5 10 6 9 5 3 3 4 5 4 3 6 5 7 7 1 6 7 6 7 4 7 8 9 5 6 6
24 23 30 30 26 17 9 16 35 31 8 6 4 4 4 12 8 9 7 6 1 2 3 3 3 4 3 4 5 7 9 8 10 11 7 3 4 5 7 8 7 5 6 6
32 40 19 7 15 22 21 21 7 6 6 6 3 10 3 10 12 9 7 6 4 3 4 4 5 3 8 5 5 5 7 8 10 9 4 9 6 5 6 7 6 6 5 6
32 7 5 28 29 19 8 6 5 5 5 8 5 10 5 4 5 5 8 3 4 3 4 3 4 3 4 4 5 5 7 7 7 6 5 4 3 4 4 7 8 8 10 11
10 25 29 13 6 4 4 3 4 4 4 4 5 7 4 5 3 1 4 3 2 3 7 4 3 4 6 5 5 5 6 7 8 7 7 7 8 9 10 11 12 13 14 16
33 10 5 2 3 2 4 6 3 4 3 4 3 3 4 3 2 1 2 4 4 6 3 2 3 7 6 6 6 8 9 8 10 10 11 12 13 13 13 16 16 16 18 18
4 3 5 4 3 3 3 4 4 5 3 4 4 5 2 3 3 1 2 2 3 4 5 3 5 8 6 8 8 8 11 12 14 14 16 18 18 20 19 19 18 17 17 15
6 6 4 4 4 5 4 3 2 3 1 2 4 4 2 2 2 0 2 4 3 5 4 4 10 9 9 10 10 11 12 13 15 15 17 19 18 19 19 18 17 16 16 16
6 7 4 2 4 6 6 7 7 4 2 2 3 2 3 2 1 1 3 2 4 3 4 12 11 11 12 12 13 14 14 14 15 17 18 18 18 17 17 15 14 12 11 10
5 5 8 6 8 7 6 5 6 4 4 2 0 2 4 1 3 3 5 3 6 12 13 13 13 13 13 15 15 15 15 15 15 15 15 15 14 13 12 13 11 11 10 10

GFSNW_850_spd_060.txt.gz
Wind_Speed
20 19 20 15 14 13 11 12 4 7 15 13 9 10 17 27 19 14 13 8 12 12 9 9 13 11 4 6 6 7 12 6 10 18 18 14 16 14 18 7 9 12 5 1
21 20 19 16 16 16 12 9 19 17 11 7 12 16 20 24 22 18 17 13 12 15 13 13 12 14 10 6 4 8 10 6 9 9 8 13 17 19 12 14 8 6 5 5
21 21 19 15 15 15 17 7 4 18 17 20 16 16 19 18 23 19 25 18 14 14 13 12 11 11 3 3 3 7 6 8 10 9 4 6 7 16 20 16 6 5 8 4
22 20 20 17 17 14 16 9 7 10 5 14 16 19 9 18 18 21 19 18 18 15 13 15 15 15 17 12 7 5 3 5 12 15 17 16 12 15 13 9 13 9 12 13
22 22 21 20 21 19 21 9 7 15 19 21 14 19 19 21 17 19 16 18 17 15 17 16 15 12 12 7 5 2 5 3 12 11 9 9 9 10 7 17 15 5 9 7
24 22 22 22 21 23 21 23 22 10 8 12 15 13 18 22 19 15 18 13 15 15 9 7 13 6 5 8 10 10 2 3 4 3 8 9 8 11 14 16 8 5 9 5
25 24 24 25 24 27 28 21 14 10 13 12 14 18 13 16 19 19 16 14 14 6 10 10 11 12 14 14 15 15 13 9 3 4 6 5 4 2 8 12 7 11 12 4
28 28 26 26 26 26 31 27 19 11 10 17 20 17 16 15 18 13 13 7 4 3 6 4 6 9 9 17 19 19 15 12 4 4 4 8 10 4 2 3 6 11 3 6
30 30 28 27 27 26 29 30 25 20 8 13 22 18 15 12 11 10 13 4 5 3 2 1 4 6 9 7 6 21 17 14 10 7 4 3 7 3 2 1 2 10 11 9
34 32 32 29 28 26 31 26 28 18 8 16 14 5 7 8 6 8 7 6 5 3 3 3 7 11 13 8 11 10 15 12 13 11 8 6 6 3 3 6 5 15 16 14
40 38 35 32 29 29 31 30 25 25 14 21 17 18 17 14 11 4 2 3 1 4 4 4 6 5 6 7 7 6 13 10 8 10 9 12 3 4 5 12 18 13 11 11
32 37 39 35 32 31 29 27 25 24 19 13 10 18 26 24 23 11 5 5 2 3 4 6 3 5 3 5 3 4 3 9 7 9 8 6 7 18 16 17 17 10 10 12
27 31 40 37 33 31 32 26 21 20 21 22 25 27 23 19 21 17 8 6 6 5 7 5 4 5 2 2 4 1 4 15 10 2 8 8 16 13 18 14 14 11 11 12
22 24 39 37 34 31 31 31 23 21 5 6 15 17 20 23 23 17 21 23 27 19 16 5 3 2 7 3 5 6 4 4 4 7 3 11 19 9 18 17 14 13 12 13
21 29 37 36 32 30 29 28 27 27 22 2 6 18 22 17 14 21 25 21 19 17 3 4 3 3 1 3 3 5 4 3 2 4 9 17 11 17 16 15 13 13 12 12
25 33 35 33 31 29 23 14 30 32 26 8 3 7 9 12 24 22 20 25 18 8 3 4 6 6 2 2 1 10 11 15 20 6 10 12 15 17 16 14 14 13 15 14
28 32 32 31 30 30 30 9 7 29 29 4 3 4 5 14 15 18 16 17 8 8 3 4 5 5 4 2 1 5 10 13 12 16 17 7 18 11 15 13 14 12 13 12
29 30 29 29 29 27 27 23 4 23 24 4 3 3 4 12 6 4 8 6 8 7 5 4 3 4 3 2 6 9 13 10 13 16 12 10 9 12 14 14 13 12 12 11
27 26 23 21 21 13 20 28 10 26 10 7 5 3 2 11 6 7 9 8 2 5 3 4 3 2 2 4 8 11 12 10 13 12 8 9 11 11 13 13 12 10 10 10
31 28 13 5 16 19 25 21 10 8 8 5 4 6 3 6 8 7 5 4 3 4 5 3 3 3 6 6 7 7 9 10 11 10 11 10 10 8 10 11 10 10 10 10
30 9 6 25 30 17 5 7 6 7 4 8 9 12 4 4 4 3 6 2 2 3 4 5 6 3 3 6 9 9 8 8 10 9 7 6 6 10 11 11 11 11 11 12
12 21 28 20 5 2 4 5 5 6 5 4 6 6 5 3 2 1 3 3 2 2 7 3 4 3 7 6 7 8 8 7 10 10 10 11 11 12 13 13 14 14 14 14
30 10 5 5 3 5 4 5 4 4 2 2 2 4 4 2 2 1 2 1 2 2 3 3 3 11 10 9 8 10 10 10 11 12 12 13 14 14 15 16 15 15 16 15
5 3 4 3 3 4 4 4 4 4 5 8 7 5 2 1 2 1 2 2 2 2 3 4 6 12 10 10 10 9 11 12 13 15 16 18 18 18 17 17 15 14 15 15
5 6 4 4 4 6 3 3 5 5 5 5 8 4 1 2 2 1 1 2 1 5 4 4 11 11 11 11 11 12 13 14 14 15 17 17 17 18 18 15 15 15 14 13
6 8 3 2 6 6 9 9 10 4 4 3 2 2 2 2 1 1 4 5 4 3 5 13 12 12 12 13 13 13 14 15 16 15 16 16 15 15 15 13 11 10 9 8
5 4 9 6 11 9 7 8 5 4 3 2 2 3 4 1 2 3 5 4 6 13 14 13 13 13 14 14 15 15 15 15 15 14 13 14 14 13 12 12 11 9 10 11

GFSNW_850_spd_063.txt.gz
Wind_Speed
18 17 16 16 13 11 12 8 3 7 13 10 6 9 7 10 23 29 17 10 5 8 12 6 5 3 5 5 3 4 4 4 5 14 16 12 10 13 10 2 2 3 2 4
18 17 18 16 15 13 10 6 11 20 16 5 6 7 11 19 19 20 10 10 11 7 10 5 4 6 6 7 2 3 4 4 3 7 5 5 2 5 12 14 6 4 3 3
18 18 17 16 13 14 14 4 3 8 18 20 6 8 11 16 23 20 23 17 15 14 8 7 5 6 1 11 4 7 4 1 5 4 9 1 4 9 11 13 5 5 7 4
18 17 16 15 14 13 13 7 4 9 2 7 7 9 10 16 7 18 19 12 13 17 10 6 4 5 7 8 10 4 3 3 4 11 14 6 9 13 13 9 11 8 4 12
18 17 16 15 17 14 17 6 5 8 12 15 8 9 10 18 18 8 11 9 13 12 10 3 3 5 3 2 5 4 2 3 5 4 9 12 7 17 14 10 6 15 5 8
20 19 18 17 17 17 14 16 19 13 8 6 3 3 8 10 14 20 18 13 10 10 7 7 7 6 4 3 1 2 1 2 3 3 11 12 6 3 7 4 5 6 8 10
22 21 19 19 19 21 24 19 12 6 8 7 8 14 18 15 16 13 19 18 13 6 10 10 8 10 10 10 7 7 5 5 2 3 5 3 7 17 12 14 16 20 12 11
21 22 22 21 21 21 24 26 20 6 2 7 12 15 11 19 13 13 15 13 1 4 7 1 2 3 3 7 15 12 10 5 2 2 2 9 9 9 4 8 4 8 11 12
25 25 24 24 23 23 23 26 26 14 5 8 14 14 17 7 6 4 7 5 7 5 3 3 1 3 4 4 4 17 12 6 4 2 4 4 3 11 15 3 5 14 17 15
28 28 28 27 25 25 24 27 22 21 7 17 24 6 6 1 4 5 6 3 3 2 2 2 3 3 4 4 4 2 8 7 13 7 4 5 6 9 11 3 2 12 20 23
30 32 31 31 29 26 26 29 24 23 10 16 14 16 20 10 6 4 11 5 2 2 2 2 4 3 4 4 6 3 5 7 5 4 4 8 8 5 2 9 16 19 22 25
33 34 32 33 34 29 27 27 25 24 19 10 8 16 21 16 16 15 4 6 8 3 3 1 3 2 2 1 2 4 2 4 2 8 6 4 16 16 23 23 21 20 21 19
34 33 32 28 37 32 32 29 20 18 20 20 27 31 23 19 19 15 5 5 4 6 9 3 3 4 3 1 2 3 2 4 3 4 9 8 24 23 23 24 26 21 18 15
26 27 26 28 36 33 32 29 24 20 4 5 10 10 16 14 16 21 18 18 17 13 11 4 3 3 2 2 3 2 1 3 3 3 8 21 22 18 23 25 22 19 15 14
17 17 21 24 35 31 28 26 25 24 14 3 7 16 17 17 15 17 23 18 12 9 1 3 2 4 4 2 0 3 4 3 2 3 8 17 16 16 17 15 10 17 15 11
11 17 19 31 34 30 25 10 25 27 20 5 3 6 12 11 15 15 17 20 16 10 3 2 5 9 4 1 2 7 15 20 26 8 9 23 19 18 14 12 12 11 11 9
15 22 27 34 33 34 26 9 7 21 23 3 3 4 4 9 17 18 19 12 10 7 4 5 4 5 6 1 2 8 12 14 15 18 12 16 16 11 10 13 13 9 10 11
25 29 32 30 28 26 27 12 7 17 21 6 3 3 3 7 6 4 9 9 8 10 4 3 3 4 3 3 7 9 13 9 18 20 17 18 15 12 13 13 10 12 12 11
30 31 28 24 22 15 24 27 15 24 7 7 4 1 4 6 3 3 5 6 2 8 3 3 4 1 3 3 8 11 16 12 10 8 16 16 17 15 11 11 11 13 14 14
34 34 17 6 15 9 14 8 11 7 6 6 2 5 2 3 9 4 4 4 2 2 4 4 3 3 10 10 12 8 9 12 11 7 10 11 13 14 14 16 15 15 16 17
32 11 8 19 28 17 9 5 4 5 3 6 8 13 3 4 2 2 4 2 2 2 3 4 2 2 4 10 10 8 7 9 12 10 9 8 10 11 11 13 12 12 13 15
17 13 29 22 7 5 4 4 4 5 4 4 4 4 9 3 2 2 1 1 1 2 6 2 2 3 11 11 10 10 8 6 8 9 10 11 12 11 13 14 16 18 18 18
31 9 5 5 4 3 5 7 3 2 2 1 4 4 3 3 2 3 1 0 2 7 2 2 3 12 13 12 9 10 9 8 7 7 8 9 12 13 15 17 17 17 17 15
4 4 4 3 3 3 3 3 2 3 4 10 14 5 3 2 2 2 1 1 2 2 3 2 3 14 11 9 6 6 10 10 12 13 15 17 17 18 17 17 15 15 17 17
5 5 3 3 2 4 2 4 5 5 7 8 7 4 3 2 2 1 2 1 1 3 2 2 12 10 8 9 10 12 12 13 15 15 17 16 16 17 17 15 14 13 13 11
5 7 3 4 4 6 10 10 8 4 5 7 3 2 2 1 1 2 4 3 3 2 3 15 16 14 12 12 11 11 13 14 15 15 15 14 14 13 13 11 9 9 7 7
5 4 13 9 10 10 7 7 6 2 3 1 2 4 1 1 3 3 3 2 4 13 17 16 14 14 14 14 15 15 15 15 15 15 14 13 12 10 9 9 9 8 8 8

GFSNW_850_spd_066.txt.gz
Wind_Speed
12 13 13 11 12 11 11 5 2 4 2 8 4 9 4 9 15 14 7 7 8 8 5 3 5 3 3 5 5 3 1 1 4 6 9 4 8 8 7 2 5 4 2 3
14 15 14 13 12 10 9 4 9 20 16 2 6 6 11 15 14 14 5 5 2 9 6 4 3 4 1 2 3 4 2 2 3 6 3 3 4 9 13 5 2 5 2 2
15 14 14 14 13 10 13 4 2 5 6 15 5 4 8 11 12 13 14 12 14 11 5 4 5 6 1 2 3 7 4 1 2 3 3 3 6 6 8 9 3 2 5 3
13 13 15 14 12 10 12 7 5 3 2 3 4 8 5 12 12 4 13 5 12 11 5 6 6 2 5 6 4 4 3 1 2 7 12 12 12 8 12 16 12 6 4 11
15 14 12 12 11 13 17 6 3 2 6 11 7 7 3 8 9 9 13 6 15 7 4 4 8 4 1 2 5 3 4 1 3 3 5 8 7 13 12 13 16 14 13 10
17 16 15 14 13 14 12 9 10 4 5 3 5 5 5 12 12 10 10 14 12 8 6 3 7 4 6 4 3 2 2 1 2 3 7 9 5 3 10 8 7 11 5 4
19 19 18 16 15 17 20 13 5 4 4 4 4 9 15 17 14 7 16 17 3 6 11 10 7 7 8 6 4 5 3 2 2 3 5 3 4 13 11 13 9 8 7 6
18 18 17 18 17 16 20 21 17 7 4 1 4 6 8 15 13 10 12 12 10 4 6 2 2 3 3 5 9 9 9 4 2 3 3 6 10 4 5 4 3 7 8 10
20 19 19 18 18 17 19 22 20 13 5 6 17 4 7 4 4 5 5 10 3 5 1 2 3 3 3 2 4 10 6 3 3 2 2 4 3 6 19 6 2 10 7 18
20 21 20 20 21 20 21 23 21 19 6 11 14 4 3 6 3 3 4 14 5 3 2 2 2 3 3 3 2 1 3 2 10 4 3 6 6 2 9 2 2 6 21 17
25 25 25 24 24 23 23 26 24 21 5 16 12 7 6 4 11 1 7 9 5 2 1 2 2 3 4 2 4 3 5 4 3 3 3 8 14 9 5 5 6 17 20 25
24 26 27 27 28 27 25 27 25 22 21 9 6 15 18 24 26 10 3 3 3 4 1 1 2 2 2 2 2 4 3 4 2 6 4 7 22 17 20 21 19 15 18 21
27 27 32 33 32 31 33 31 23 21 17 19 27 27 25 23 24 17 8 4 3 4 7 2 2 3 1 1 2 3 4 2 3 3 6 9 19 27 28 23 25 22 20 19
25 26 28 33 35 32 34 33 28 22 4 4 7 6 11 11 18 24 25 21 12 8 3 2 2 3 2 2 2 1 2 1 3 2 11 14 15 19 19 16 19 19 17 16
17 17 17 23 25 25 33 27 26 23 14 3 6 18 12 16 13 14 18 21 10 5 1 2 2 3 3 2 1 4 5 3 2 2 7 13 11 11 10 9 13 13 10 10
16 18 13 16 24 37 30 10 24 24 20 6 3 6 9 7 9 16 18 20 21 9 2 3 5 5 4 2 2 6 6 11 9 5 17 22 13 13 7 12 8 5 7 6
11 12 17 24 37 36 14 9 7 30 20 4 3 5 3 9 6 14 13 13 12 9 4 5 4 4 5 2 2 5 9 12 9 13 7 11 6 10 9 7 6 5 8 7
17 19 24 36 32 30 10 10 11 30 20 3 2 3 5 3 5 5 14 10 9 8 5 3 3 3 3 3 7 9 8 10 16 17 11 15 15 12 9 6 3 4 7 6
28 31 34 30 21 19 8 7 14 25 7 6 3 2 3 5 6 7 7 9 2 6 4 3 4 2 3 4 10 11 10 6 4 8 9 8 9 9 6 3 4 6 9 9
40 38 17 6 16 13 12 4 9 10 7 5 3 6 3 4 2 3 5 6 3 3 5 5 2 3 14 13 12 8 7 5 4 6 8 6 7 6 7 7 7 9 12 14
35 12 6 14 21 10 8 4 5 5 4 7 7 15 4 5 1 2 5 3 2 2 3 2 2 3 4 10 11 10 10 7 6 6 8 8 5 6 8 9 11 13 14 13
19 12 26 23 7 4 4 3 3 4 4 6 4 5 9 3 2 1 2 2 1 2 2 2 1 3 9 8 9 8 7 6 9 10 12 11 11 10 12 12 13 14 15 14
32 9 7 6 6 5 5 7 3 2 3 3 4 3 4 2 2 2 1 1 1 6 3 2 2 11 7 7 6 8 6 5 7 10 11 11 13 13 15 18 17 17 17 15
4 3 4 2 2 1 1 1 1 1 2 11 13 4 3 3 2 1 2 1 2 1 2 3 1 9 7 5 4 4 8 9 12 14 14 16 17 18 17 15 13 13 14 13
4 4 2 1 2 1 1 3 4 5 5 4 6 5 3 2 3 1 3 2 2 2 3 2 9 9 7 7 8 10 11 13 15 15 16 16 16 17 18 14 12 11 10 9
4 6 3 3 5 4 7 7 6 5 4 5 4 2 3 2 2 3 2 1 2 2 2 13 12 11 10 10 10 10 12 13 14 15 15 14 13 13 13 10 8 7 5 4
4 4 10 9 9 7 7 6 5 2 3 2 3 4 1 1 3 2 2 2 3 13 16 13 9 10 10 10 12 12 13 14 14 14 13 12 11 10 8 8 8 7 7 7

GFSNW_850_spd_069.txt.gz
Wind_Speed
10 8 7 7 6 8 8 2 2 4 5 1 4 5 3 2 7 7 5 5 7 9 4 7 2 4 4 4 4 4 1 2 3 7 7 11 10 7 4 2 4 2 1 3
9 9 9 7 7 8 5 2 6 7 6 2 2 5 6 11 13 16 5 5 6 5 2 5 9 6 5 4 1 4 3 1 3 7 4 5 3 10 9 6 1 4 3 2
9 9 8 7 8 7 5 2 2 2 4 3 3 4 7 6 10 11 8 9 11 12 6 3 9 5 4 14 2 6 3 2 2 2 3 2 6 11 7 8 2 2 4 0
9 8 7 9 9 7 7 6 3 3 2 1 2 4 5 7 4 7 8 5 3 4 4 3 10 4 2 3 3 3 3 2 1 6 7 8 11 12 11 8 6 4 3 8
10 10 9 8 7 8 13 5 3 2 3 6 3 5 2 8 6 6 6 5 13 5 5 4 10 2 2 2 3 2 2 1 2 4 4 8 10 11 11 13 11 11 16 12
13 12 11 10 10 11 9 8 6 2 2 1 2 2 5 9 13 8 11 10 10 8 11 13 14 10 6 4 2 1 2 3 2 4 6 10 7 0 6 5 11 6 11 8
15 15 15 14 13 15 15 8 5 2 2 3 4 7 10 11 12 12 20 14 7 6 15 20 16 10 9 4 5 3 4 4 3 3 4 3 5 12 8 5 5 8 9 9
16 16 16 16 16 16 18 16 13 5 3 8 6 9 5 14 16 9 13 9 14 23 13 3 4 3 3 5 8 9 7 4 2 2 3 6 11 3 3 8 8 2 6 6
17 15 15 15 14 15 19 18 16 11 2 6 18 7 8 3 4 5 5 14 14 4 2 2 3 3 3 2 4 2 5 3 3 1 2 3 4 8 4 6 6 3 5 6
20 19 19 18 17 16 19 19 17 15 6 10 14 5 5 3 2 3 4 13 8 3 1 1 2 1 2 2 2 3 3 2 8 6 3 6 5 12 12 3 5 13 10 22
19 20 20 20 19 19 21 23 21 19 8 15 14 9 9 5 4 1 7 6 5 4 3 1 0 1 3 1 3 2 5 4 3 3 4 7 15 11 3 4 17 15 21 23
21 22 22 23 23 23 23 25 23 22 17 11 11 14 21 28 24 14 4 3 2 4 3 2 2 2 3 0 2 1 1 1 2 5 2 5 10 10 13 11 20 10 22 17
23 23 23 24 26 26 28 32 25 20 17 19 25 27 25 25 23 12 6 6 3 5 12 2 1 3 1 2 3 2 2 3 1 1 8 9 12 19 23 21 24 19 16 14
25 25 28 31 31 31 31 34 34 26 6 4 10 8 13 12 13 19 24 24 11 13 8 3 2 2 0 2 4 1 3 2 3 1 9 14 12 13 18 18 20 18 15 14
23 24 23 27 30 29 31 38 34 29 18 3 6 13 14 13 11 13 18 24 24 19 3 2 2 3 3 2 1 3 5 3 2 2 6 9 8 8 10 17 17 14 12 13
21 18 16 19 18 22 33 7 25 25 24 3 3 5 6 4 10 18 18 17 18 13 2 3 5 3 3 3 2 5 8 11 2 3 14 14 13 10 9 13 12 11 9 9
14 15 15 12 22 27 18 8 9 29 21 3 3 4 3 9 7 13 15 18 12 9 6 5 4 4 4 1 1 5 11 14 10 7 2 6 8 9 9 9 10 8 9 9
14 14 17 17 30 22 11 6 10 31 18 5 2 4 2 4 5 4 7 8 9 8 5 2 3 4 0 2 5 6 5 7 13 12 8 11 11 6 8 7 5 6 8 7
22 25 33 37 20 7 8 12 22 25 6 5 4 2 3 1 5 5 6 6 2 5 3 3 3 1 2 4 7 7 9 5 4 5 7 8 6 6 5 5 6 6 6 6
35 39 14 7 12 18 29 14 9 10 6 5 3 5 2 3 6 6 7 7 4 4 5 6 2 2 8 7 6 4 4 5 1 1 3 3 4 3 5 5 5 6 8 8
33 7 4 21 18 6 2 4 4 6 3 6 6 14 4 8 2 2 7 3 2 3 3 3 2 2 3 3 4 4 5 5 4 1 0 1 1 3 4 6 7 7 7 7
14 14 26 23 6 4 3 4 3 4 4 5 4 5 10 4 4 2 2 2 1 2 7 2 2 2 8 4 3 2 2 2 2 3 4 4 3 2 2 5 6 7 7 7
30 14 7 6 5 4 4 5 3 3 4 5 5 2 3 2 1 1 1 3 2 4 3 2 1 11 9 7 4 2 1 1 2 2 2 3 4 6 7 11 12 11 11 11
5 5 6 3 3 3 4 3 2 2 1 7 11 4 2 2 3 1 1 2 2 2 2 4 2 10 8 6 4 4 5 6 8 8 8 10 11 13 13 13 12 10 9 9
3 3 2 1 0 2 1 3 4 3 4 7 7 4 3 2 1 0 2 2 1 2 3 2 12 10 7 7 7 9 11 13 14 14 14 15 14 14 14 12 10 8 7 6
3 5 3 3 3 3 4 5 4 3 5 5 2 2 3 2 2 3 1 1 3 3 2 13 14 11 10 10 10 12 13 14 15 15 14 14 13 12 11 9 7 6 4 3
4 3 8 9 8 5 4 3 3 3 2 2 3 4 2 1 3 1 1 3 3 10 15 13 11 12 12 12 13 14 14 14 14 14 13 12 10 9 7 6 7 6 6 5

GFSNW_850_spd_072.txt.gz
Wind_Speed
4 3 2 2 3 6 6 4 3 1 4 2 1 1 3 2 5 17 5 5 6 7 6 3 3 6 7 3 2 1 4 2 3 8 4 7 3 5 5 3 2 3 1 3
4 4 4 4 3 4 4 3 3 2 2 2 2 2 3 6 4 6 3 4 3 7 6 5 2 7 15 23 3 4 7 3 2 2 3 6 4 1 2 3 1 3 2 2
6 5 5 4 4 4 1 2 2 1 2 1 3 3 3 4 3 4 7 8 6 8 5 8 4 2 6 16 18 2 4 2 2 2 3 2 4 8 6 2 2 2 3 1
7 6 4 5 5 4 3 3 2 1 2 1 1 3 3 6 5 3 7 3 2 5 3 5 6 7 5 9 23 3 3 2 2 3 3 1 4 8 11 8 9 4 3 5
8 6 5 5 4 6 7 4 3 2 2 4 2 4 3 5 4 3 6 4 11 9 5 6 4 5 3 7 6 7 4 2 0 3 2 6 5 10 9 11 12 10 13 12
9 8 7 7 8 8 5 4 7 4 1 0 1 2 3 4 10 8 10 12 14 8 10 10 19 13 13 13 6 3 1 4 2 2 4 7 6 4 5 5 5 6 6 2
12 11 10 10 11 10 9 8 5 3 1 3 3 4 7 9 9 9 22 18 9 4 21 27 16 18 16 15 10 5 2 3 2 2 3 1 5 10 4 1 4 10 7 3
14 13 13 13 13 13 13 13 10 5 2 5 6 10 7 11 18 5 9 11 16 23 11 3 4 3 3 5 7 7 4 3 2 2 2 5 8 3 4 3 9 3 3 5
12 10 10 11 12 13 14 14 12 7 2 5 15 6 6 3 4 5 5 20 18 10 3 4 5 4 3 3 2 6 5 4 2 1 2 4 5 4 14 5 5 7 6 5
15 15 14 14 14 13 15 15 16 10 6 10 9 4 4 3 3 3 6 15 10 10 3 2 1 2 1 2 3 3 3 2 5 4 3 6 4 9 9 1 4 9 14 12
19 18 17 16 15 15 17 18 18 18 6 13 13 7 8 8 3 2 8 9 4 4 3 3 3 2 3 2 1 3 4 4 3 3 4 7 13 7 0 1 8 16 24 17
17 17 17 17 17 18 18 21 19 20 17 9 8 14 22 25 22 14 5 6 5 4 3 3 3 2 3 4 2 2 1 3 3 5 2 5 9 6 10 11 11 13 22 20
19 19 19 19 20 21 23 25 22 20 18 21 24 26 23 25 27 16 7 4 5 4 9 4 2 2 2 2 2 4 4 2 3 1 5 8 12 12 13 17 21 17 19 20
19 20 22 23 22 23 24 29 29 26 6 4 10 7 11 8 10 19 27 24 8 9 13 5 2 2 1 2 3 2 2 6 5 2 5 13 16 13 13 16 19 19 20 18
21 20 21 21 25 31 29 30 38 32 21 4 6 12 10 11 15 15 16 23 23 14 4 3 2 3 3 2 2 2 5 3 2 2 7 7 10 11 12 17 18 16 18 18
17 20 22 24 25 27 33 11 32 36 33 3 2 6 4 5 5 15 12 13 16 10 4 3 5 3 2 2 1 5 12 10 5 3 16 19 16 16 15 17 16 15 16 15
18 18 18 15 18 18 19 8 9 38 27 4 3 5 2 2 5 7 11 11 7 7 4 4 4 5 5 1 1 7 10 13 12 5 3 11 11 10 14 14 14 12 13 14
15 15 14 10 15 17 12 8 17 33 14 5 2 4 5 5 3 2 5 6 9 7 5 2 3 3 3 1 4 6 8 7 14 16 15 16 12 11 12 10 8 8 10 10
14 20 22 25 13 5 10 20 32 19 3 8 4 3 3 3 4 5 6 6 3 5 3 3 3 0 2 3 4 8 10 7 5 5 8 8 8 9 8 7 8 9 11 11
27 34 8 6 12 27 32 16 6 6 4 5 4 7 2 7 4 4 4 2 2 3 5 5 1 1 5 4 4 4 6 7 3 1 4 5 6 6 7 8 8 9 11 12
23 5 4 33 27 4 4 5 5 6 3 6 7 14 4 9 3 3 10 4 4 3 3 2 2 2 3 4 4 5 6 7 7 5 3 2 2 4 6 8 8 9 9 11
11 16 22 14 3 2 3 3 3 4 4 5 4 5 9 5 6 4 5 3 2 2 7 2 1 1 7 4 3 4 5 4 4 5 5 5 4 4 4 7 9 10 11 12
31 11 5 6 3 3 4 6 3 3 3 5 5 2 5 4 4 1 1 1 2 4 2 2 1 9 7 4 3 4 4 4 4 5 6 6 7 10 12 14 14 13 14 13
5 5 6 4 4 5 4 3 3 1 2 5 9 4 1 0 2 1 0 1 1 2 0 3 1 9 6 2 1 3 3 4 6 9 11 13 14 16 16 15 14 11 11 11
4 4 4 4 1 2 3 4 4 2 2 5 6 4 2 1 1 1 2 2 1 2 2 2 9 9 5 3 4 5 8 9 11 12 13 14 13 13 14 13 11 9 9 8
3 4 3 3 3 2 3 3 3 1 3 4 2 2 3 1 2 3 2 3 3 3 2 9 11 8 8 8 9 10 12 12 13 13 13 13 11 10 9 8 6 6 6 6
3 3 8 7 7 5 3 2 1 2 2 1 3 4 1 1 3 1 0 4 3 5 13 11 9 11 12 12 12 13 14 14 13 12 11 9 8 7 6 5 5 5 5 6

GFSNW_850_spd_075.txt.gz
Wind_Speed
4 3 1 1 2 5 7 4 3 3 6 5 3 1 1 4 6 6 5 4 6 7 8 6 6 4 4 15 12 2 2 1 5 8 3 7 4 2 4 3 2 4 3 3
3 3 4 3 1 4 6 4 3 3 3 3 2 3 3 4 3 5 2 4 3 6 5 4 6 5 7 9 13 7 3 1 2 7 4 4 3 3 3 3 2 5 3 1
6 4 4 3 2 2 5 3 2 4 6 4 3 1 2 4 2 2 4 6 7 12 12 10 8 4 3 7 13 20 6 4 5 2 4 3 2 4 3 5 3 5 6 6
10 6 5 4 3 3 4 3 1 2 1 2 1 3 2 3 4 3 2 1 6 10 5 7 12 12 9 5 3 5 2 3 7 6 4 4 2 6 8 8 9 5 5 6
8 7 6 5 3 5 4 4 3 2 0 2 0 2 1 4 3 3 5 3 11 15 6 9 9 9 5 5 4 2 3 3 5 3 6 1 4 9 5 6 9 13 15 16
9 9 8 6 6 6 4 5 4 2 0 1 0 1 1 3 9 6 6 11 16 12 10 10 17 22 19 12 5 2 3 1 2 1 3 7 4 5 6 5 6 9 9 7
10 9 8 8 8 7 5 6 5 4 2 4 3 3 6 10 9 8 16 15 5 7 24 29 17 19 19 15 16 10 3 5 1 1 2 3 2 8 3 3 4 9 11 4
11 10 10 9 9 9 8 8 8 4 2 6 6 10 7 7 11 7 11 7 15 21 10 4 6 2 3 9 9 10 12 4 1 1 2 6 3 4 4 3 5 10 8 5
13 12 12 12 12 11 11 10 10 5 3 5 10 4 5 4 3 4 5 16 19 7 3 3 4 5 5 5 6 2 7 2 1 1 2 4 0 2 10 4 6 11 13 10
13 12 10 10 10 12 13 11 14 7 4 9 7 3 3 2 2 3 5 13 7 5 3 4 4 3 2 3 4 5 5 3 8 6 4 6 5 13 6 4 3 13 15 17
14 13 13 13 12 14 14 15 14 16 7 11 12 10 11 10 3 2 8 9 3 3 4 4 4 5 4 2 2 0 2 5 3 5 5 6 12 4 2 6 6 9 14 20
14 14 16 16 15 15 15 16 14 16 13 9 10 12 17 24 22 13 6 5 9 4 3 3 4 3 4 4 1 3 1 2 1 4 1 6 9 8 7 11 9 9 11 13
15 15 16 16 16 16 19 20 15 16 17 19 22 19 10 16 24 15 5 5 4 3 5 4 3 3 2 2 2 3 2 7 2 4 5 10 11 12 11 11 15 13 13 17
16 17 18 18 18 18 20 24 22 19 5 3 9 9 11 5 9 19 25 26 7 5 12 5 3 2 2 2 3 2 4 6 5 0 8 13 19 16 12 15 17 18 16 16
18 17 17 18 19 19 20 23 31 28 20 5 5 10 4 9 14 13 11 19 23 13 4 2 2 3 3 2 2 3 5 4 2 2 6 11 9 10 11 16 16 15 16 17
17 17 17 16 17 19 19 21 33 27 33 5 2 5 5 5 4 9 15 14 13 8 4 4 5 4 2 3 0 5 10 12 14 4 15 20 16 14 13 16 15 14 15 13
16 14 15 17 19 20 24 8 9 21 37 6 1 4 3 4 7 6 9 10 7 7 5 4 3 6 4 2 0 5 10 13 13 9 15 12 3 9 12 13 13 11 12 12
14 16 17 22 18 19 9 8 8 32 16 6 2 3 3 8 5 4 8 8 9 7 4 2 3 4 3 1 4 6 6 9 14 18 14 16 14 11 11 9 8 10 12 11
13 13 20 19 14 6 9 13 25 19 2 8 4 2 2 5 4 4 6 7 3 4 3 3 3 1 2 3 5 8 8 5 4 8 11 11 12 10 9 9 9 11 12 11
29 29 7 5 9 26 30 6 3 3 3 4 3 5 2 6 4 6 3 2 2 3 4 4 3 1 6 6 7 6 7 8 5 4 6 6 8 9 9 10 10 11 12 13
24 6 5 34 33 8 4 4 2 2 2 5 7 14 4 8 3 2 7 3 3 3 3 5 3 2 3 5 6 7 7 7 8 6 6 5 6 8 10 11 11 12 13 15
9 22 26 23 3 3 3 4 4 4 4 5 5 6 10 4 8 5 6 4 5 3 7 3 2 2 7 6 6 6 5 5 6 6 7 7 7 7 10 13 13 14 16 16
35 11 6 6 3 3 5 6 4 3 4 7 9 4 8 7 10 6 4 2 2 4 1 1 1 7 7 6 6 5 4 5 6 8 8 9 11 13 14 16 16 16 16 15
5 5 5 4 3 4 4 3 3 3 3 5 6 5 3 4 2 1 1 0 1 2 2 2 3 9 8 4 3 3 7 9 10 12 14 16 18 19 19 17 15 13 14 13
4 4 4 4 1 1 2 4 2 1 0 3 5 5 2 1 2 1 1 1 1 1 1 2 7 10 7 6 8 10 12 14 16 16 17 17 16 16 17 15 13 11 10 10
3 4 3 3 3 1 2 3 3 2 2 3 2 2 2 1 1 1 1 1 1 1 2 10 12 9 8 10 12 14 15 15 16 16 16 15 14 12 12 11 9 9 8 8
3 3 5 5 5 4 2 1 2 2 3 1 2 3 1 1 2 1 1 2 1 5 12 11 9 10 12 13 14 15 15 15 14 13 12 11 11 10 9 7 7 6 6 6

GFSNW_850_spd_078.txt.gz
Wind_Speed
8 6 5 6 6 4 3 3 1 2 5 3 3 4 2 3 3 2 4 6 8 11 12 16 15 16 9 10 10 7 3 5 11 16 8 8 10 8 8 4 4 2 3 2
8 7 7 6 5 4 4 3 3 3 5 3 4 4 3 1 2 4 3 4 5 9 12 8 11 16 17 6 4 6 7 5 7 8 7 10 11 7 5 3 2 3 4 2
8 5 6 6 7 5 4 3 3 3 7 7 6 3 3 3 2 2 3 6 7 9 10 13 11 14 7 6 13 4 9 7 11 9 2 2 9 11 10 5 3 4 6 12
10 7 7 7 7 6 3 3 2 2 4 5 4 2 1 1 2 2 1 3 1 5 6 14 12 18 18 18 5 2 3 7 12 5 2 13 4 7 8 11 10 6 9 11
12 8 7 7 7 6 4 3 3 2 8 4 3 2 1 2 1 3 2 3 10 12 9 13 14 11 12 10 4 3 1 4 10 7 8 16 9 10 8 8 5 9 11 12
10 10 9 8 7 8 2 6 7 3 5 4 2 3 2 2 7 4 8 9 14 11 7 13 22 23 22 19 14 4 3 5 10 5 8 8 10 11 5 4 4 4 8 12
12 11 11 8 7 7 4 7 6 3 4 3 2 2 6 8 9 11 14 15 9 9 22 24 23 24 24 23 19 13 3 11 4 3 3 6 7 3 1 3 2 8 8 11
13 12 11 10 9 8 6 6 4 3 2 3 4 6 7 8 8 12 13 11 9 21 15 7 9 7 9 13 18 12 12 4 3 2 3 6 3 6 5 6 4 10 11 11
14 13 12 11 10 9 8 6 6 4 2 3 5 4 3 5 5 5 6 11 15 6 3 4 5 4 5 6 5 6 7 12 7 3 1 1 7 3 9 7 4 11 14 13
15 14 13 13 12 11 9 6 9 5 2 4 5 4 4 3 4 5 7 13 6 3 4 4 5 8 8 4 8 6 5 7 10 6 3 2 6 10 7 6 4 14 13 14
16 15 13 12 12 11 11 7 9 6 4 6 7 7 8 9 7 5 8 8 2 5 4 3 4 3 4 2 2 5 6 6 4 3 3 3 15 2 4 7 6 8 10 11
17 16 14 13 13 13 11 6 10 10 7 5 7 11 15 16 13 10 3 6 7 4 4 4 4 4 6 6 3 3 2 5 3 5 4 6 11 10 6 8 8 6 8 10
16 14 14 16 15 14 13 10 10 11 9 15 14 10 8 11 18 15 6 4 2 3 4 5 3 4 5 5 4 5 4 9 3 5 9 9 10 9 10 12 12 10 11 13
13 14 13 15 16 16 16 18 15 15 2 4 4 7 10 7 10 16 23 18 13 9 11 9 3 4 5 3 4 3 4 8 6 3 6 9 11 11 11 13 13 15 15 14
14 15 15 16 17 17 16 19 22 18 11 3 4 8 4 6 11 10 11 15 12 10 5 4 3 5 4 2 3 3 6 4 3 2 5 8 7 9 10 13 13 12 12 13
14 15 15 15 15 15 13 8 22 25 27 6 3 5 8 9 7 9 12 9 7 5 4 5 6 5 4 4 1 5 5 5 8 3 12 15 12 12 11 12 11 11 11 11
15 16 16 15 16 18 24 7 5 12 30 7 3 4 4 9 6 5 6 9 5 7 4 5 8 9 4 3 1 5 7 9 7 9 12 8 3 7 9 10 9 10 11 11
14 14 13 17 16 19 22 27 25 18 19 6 2 3 3 8 7 6 7 6 6 6 5 4 6 5 4 1 5 5 5 8 12 10 6 11 11 8 7 6 6 7 8 8
14 12 13 15 16 8 6 12 11 24 5 4 3 3 3 6 5 4 5 6 4 4 3 3 3 3 2 4 7 6 6 4 5 7 8 8 7 7 6 5 5 6 7 7
12 21 8 5 6 18 20 8 5 3 3 4 4 4 3 7 7 6 4 5 3 3 4 5 4 1 7 6 6 6 5 4 4 6 5 3 4 5 6 6 6 6 7 8
23 6 4 20 23 4 2 4 5 5 4 7 6 12 5 7 4 4 7 2 2 3 3 4 4 3 4 6 6 6 5 6 6 4 4 4 5 6 7 8 8 9 9 10
10 13 21 17 4 2 3 4 4 5 4 6 6 8 11 5 5 4 5 3 4 4 8 3 2 4 8 6 5 5 5 5 6 6 6 7 7 7 9 9 9 10 11 12
31 8 6 5 4 4 5 7 4 4 4 7 7 5 8 5 6 4 3 5 4 7 4 0 3 9 8 7 5 5 5 5 6 6 7 8 9 10 10 12 13 13 13 12
6 7 6 5 4 5 4 3 2 2 3 6 8 5 5 5 5 2 3 1 2 3 3 1 4 9 8 5 4 5 6 7 8 10 11 13 14 15 15 14 13 12 11 10
4 3 4 6 1 2 2 4 3 1 2 6 6 3 4 2 2 2 1 2 2 2 2 3 9 9 7 5 6 9 10 12 14 15 16 16 16 16 15 13 11 9 8 7
2 2 2 2 4 3 4 3 4 2 3 3 2 2 3 2 1 3 2 1 1 3 3 9 9 8 7 9 11 14 15 15 15 15 15 14 13 12 11 10 8 7 7 6
2 2 2 2 3 4 4 4 3 2 3 1 2 3 2 2 2 2 1 1 3 8 11 9 8 10 13 15 16 17 17 16 16 14 13 11 10 9 8 6 6 6 5 3

GFSNW_850_spd_081.txt.gz
Wind_Speed
8 6 6 10 7 5 6 3 1 2 5 1 2 3 2 0 2 1 2 4 5 6 9 12 14 18 20 8 11 13 10 8 14 21 17 16 9 13 13 6 7 5 5 1
10 7 7 8 6 6 3 1 3 2 3 2 3 4 4 0 2 1 1 3 3 8 10 8 9 13 16 22 12 2 6 6 10 17 14 14 12 17 10 6 2 11 6 1
8 6 8 8 7 5 6 2 2 3 2 3 6 5 3 6 2 3 2 3 4 6 8 10 9 15 12 11 12 3 1 5 14 15 6 3 9 20 11 13 5 7 9 11
8 6 7 8 7 6 6 1 1 2 3 4 5 7 5 4 3 5 4 1 4 3 5 14 12 13 12 18 19 14 5 9 14 20 25 7 1 15 16 16 11 7 11 13
11 8 9 9 7 7 2 2 2 3 7 7 4 2 4 2 3 2 3 3 7 10 12 12 16 14 15 10 12 5 4 9 11 19 22 12 8 14 12 8 9 10 10 10
9 11 10 9 10 8 1 1 1 4 7 7 5 4 3 3 3 4 7 6 10 13 13 14 23 25 26 20 17 16 6 5 6 11 18 8 4 17 17 8 5 6 7 13
12 11 11 10 10 8 3 3 3 2 4 5 4 3 5 6 6 7 9 9 11 15 18 26 27 29 29 26 21 20 9 10 3 12 15 11 7 4 0 3 1 8 9 12
14 12 12 10 8 8 4 3 1 1 2 2 5 7 8 7 8 8 9 10 10 16 21 12 11 12 16 18 19 18 13 7 4 6 10 7 12 6 3 5 6 11 9 11
15 13 12 10 8 9 5 3 2 1 4 4 1 5 4 6 4 4 4 5 12 9 3 5 8 6 11 3 8 16 11 12 4 9 3 5 9 8 4 7 4 11 13 12
17 15 13 11 9 9 6 2 5 1 2 2 4 1 4 2 3 5 5 9 8 3 4 7 6 5 13 6 11 9 8 8 12 7 3 8 13 9 8 7 5 13 12 13
17 14 12 12 11 9 8 3 6 2 3 4 4 5 5 4 4 4 9 7 4 5 4 4 4 4 3 4 3 7 6 4 4 5 3 3 23 5 6 7 5 10 11 10
16 14 13 12 11 10 10 3 6 6 5 5 5 7 10 10 10 10 6 6 5 3 4 5 4 5 5 8 2 4 2 4 3 6 4 12 16 12 10 10 10 11 9 10
15 15 14 12 12 11 11 4 8 5 5 10 9 6 4 9 10 11 8 6 1 4 4 6 4 5 7 6 4 4 3 14 4 3 7 10 13 11 11 11 12 11 11 11
16 17 14 12 13 12 11 11 8 6 4 4 1 5 5 6 8 11 16 16 13 13 12 8 4 5 8 5 7 4 6 8 8 4 5 5 12 11 9 11 13 14 14 12
15 13 11 12 14 13 13 14 13 11 8 5 7 6 10 6 6 7 10 12 11 11 5 3 4 6 6 5 4 5 7 4 4 3 7 6 8 8 7 11 12 12 13 13
16 13 13 12 13 14 11 6 16 20 15 4 3 3 8 10 8 10 11 9 7 4 4 5 6 10 6 4 2 5 8 7 7 3 8 12 10 11 9 11 12 11 13 12
16 13 12 12 15 16 15 3 2 2 21 4 4 5 6 11 9 9 8 7 6 8 5 7 10 12 4 3 2 6 9 8 4 6 6 8 7 6 8 9 11 12 12 11
14 12 12 14 13 16 19 25 18 15 15 6 3 3 3 8 9 7 6 6 8 7 7 5 6 9 4 1 5 4 5 6 8 8 7 10 8 7 7 6 6 8 9 9
11 13 11 13 15 11 13 16 14 18 10 4 5 3 2 5 6 4 7 6 4 5 4 4 4 2 2 4 6 5 4 2 3 5 7 6 5 5 5 5 6 6 7 7
14 15 9 6 9 13 10 6 8 6 7 5 4 9 2 6 7 5 3 6 3 3 5 3 3 0 8 5 5 4 4 3 2 1 1 2 2 3 4 5 6 6 7 8
18 9 4 10 15 7 6 4 6 7 4 7 8 12 5 7 4 4 6 2 2 3 4 4 4 3 5 6 5 4 4 5 4 3 3 3 3 3 4 6 7 8 8 9
14 10 18 14 4 3 3 4 3 5 4 6 9 9 12 5 5 4 4 3 3 5 6 3 2 4 9 8 5 4 4 4 5 5 5 6 6 5 6 7 7 8 9 9
20 6 5 5 5 5 5 7 4 4 6 6 7 4 7 4 6 3 2 3 5 5 3 1 3 9 7 7 6 5 5 5 5 6 7 7 8 8 8 9 9 8 9 8
4 6 6 5 5 5 4 3 3 4 4 10 13 7 5 4 4 2 4 2 3 3 3 3 4 10 9 6 5 5 6 7 8 9 9 9 10 10 10 10 9 8 7 6
6 5 4 6 1 2 3 3 4 4 6 9 5 3 5 3 3 3 3 3 3 1 3 3 12 12 8 6 6 8 9 9 10 10 11 12 11 11 10 9 8 6 5 4
2 2 2 2 4 4 5 6 4 3 3 5 3 2 3 4 2 3 3 3 1 3 4 11 12 10 9 9 10 10 11 11 11 11 11 10 10 8 7 6 5 4 3 3
2 2 1 2 3 4 4 6 5 3 3 2 3 3 1 2 2 2 1 2 3 9 11 10 11 11 11 12 13 13 12 12 11 10 8 8 7 6 5 3 2 2 0 1

GFSNW_850_spd_084.txt.gz
Wind_Speed
5 2 3 7 5 6 7 2 2 2 4 4 4 2 3 2 3 1 1 3 3 4 6 9 10 13 12 20 23 15 8 4 13 20 20 21 20 15 16 8 7 6 9 3
6 5 6 7 7 7 4 4 4 1 2 2 4 3 4 2 1 2 1 2 1 7 6 5 6 10 11 15 15 11 1 5 8 15 16 16 8 11 20 18 3 9 5 4
6 5 5 7 7 8 1 2 1 3 4 1 3 4 4 5 2 2 2 4 3 4 5 9 8 15 6 9 16 3 7 9 11 14 10 14 14 17 17 12 6 5 7 9
5 4 6 7 9 10 3 2 3 1 2 3 5 4 2 3 1 4 7 2 4 6 7 11 14 12 13 14 16 13 11 16 17 21 24 16 16 22 10 17 15 8 9 9
5 4 7 8 10 8 4 1 4 3 6 6 5 2 5 3 5 2 4 2 9 11 10 13 15 14 14 16 13 11 10 12 17 20 20 19 25 20 6 9 10 7 19 3
1 7 8 9 10 6 1 1 4 5 8 5 5 6 4 2 1 5 9 8 9 11 14 20 22 23 26 22 19 16 11 4 8 14 14 14 12 18 10 11 19 10 3 8
4 7 9 11 10 7 3 1 1 2 2 6 5 3 0 4 5 6 10 10 9 13 17 23 25 29 29 26 21 19 15 11 7 7 9 7 12 12 13 6 17 12 10 14
9 9 10 11 11 6 8 2 5 2 3 3 5 3 5 7 7 9 11 10 10 14 19 10 10 9 14 16 17 16 16 10 5 4 5 15 17 7 8 6 9 16 16 16
12 12 12 10 10 8 7 3 3 3 3 2 5 1 3 6 4 3 7 3 5 13 4 5 7 10 15 5 8 16 15 10 3 3 2 4 7 17 5 3 6 14 15 12
14 12 11 9 8 9 6 3 2 2 2 3 2 4 3 4 3 5 5 11 10 3 3 6 6 5 11 3 4 13 8 4 9 9 6 3 17 18 8 1 5 14 13 11
15 13 11 8 7 8 6 3 2 2 1 2 1 2 2 2 5 4 8 6 7 5 4 4 4 3 4 7 1 9 7 6 5 7 6 5 29 13 7 6 15 12 13 12
15 14 11 8 8 10 9 3 3 3 2 4 7 6 8 8 8 8 6 6 6 6 4 5 3 6 4 8 3 7 2 4 3 6 3 8 17 15 12 12 13 13 13 12
14 13 10 9 9 10 8 3 3 1 4 8 5 6 5 7 8 7 6 3 6 5 3 4 3 5 5 5 3 6 10 17 4 3 8 12 16 15 15 15 15 13 12 12
14 13 13 10 8 8 8 3 2 1 3 3 1 1 6 5 6 8 8 9 10 9 10 7 3 4 8 5 7 3 7 8 9 4 5 7 16 15 12 13 13 14 13 13
15 13 12 10 9 9 9 7 8 6 4 5 8 10 8 8 4 4 6 6 6 7 6 3 6 8 5 6 2 5 8 5 4 3 10 5 9 10 11 14 14 12 12 14
16 14 12 9 8 9 5 3 7 10 6 3 3 4 7 9 8 8 7 6 4 2 3 6 6 12 5 3 3 6 9 9 9 4 9 12 10 12 13 12 10 11 12 12
16 12 10 10 10 10 6 1 4 8 13 2 5 4 3 9 8 9 8 8 4 4 5 7 15 15 4 2 2 7 8 8 5 5 6 9 11 7 8 9 11 11 12 12
15 12 10 9 10 12 12 13 5 4 4 3 3 4 3 7 6 7 7 6 5 6 6 9 8 8 3 1 5 5 5 7 10 10 9 11 9 7 5 7 7 8 10 10
13 10 9 9 9 7 11 11 12 14 9 4 5 3 2 4 6 4 6 6 4 7 4 4 3 2 1 6 7 4 5 5 4 7 8 7 7 6 8 7 7 9 10 9
13 16 7 5 7 13 6 3 6 7 7 6 5 8 4 5 4 4 3 6 4 3 5 3 2 2 7 6 6 6 6 4 4 3 4 4 5 7 9 10 10 10 10 9
15 7 4 6 15 10 7 5 6 8 5 7 9 15 7 6 4 4 5 2 2 3 4 4 4 3 5 6 6 7 7 7 8 6 5 8 9 9 9 9 9 8 7 5
16 5 12 19 5 5 4 4 3 4 4 6 9 8 11 4 6 2 3 3 2 3 2 2 2 4 10 8 7 7 7 8 9 8 9 9 10 8 8 6 4 4 7 7
12 6 6 5 5 4 4 7 4 4 5 2 3 1 3 3 2 2 2 2 4 4 3 2 3 12 10 8 8 7 7 7 7 7 7 7 9 7 6 9 9 8 9 9
6 6 6 4 5 4 4 5 2 3 3 8 9 4 2 2 2 1 3 2 3 2 3 3 5 12 11 10 8 8 6 6 6 7 7 9 9 10 10 10 9 8 8 7
4 5 4 6 1 3 4 4 4 3 4 8 5 2 4 3 2 3 3 3 4 2 3 3 14 13 10 7 6 7 8 8 9 9 11 12 12 11 10 9 8 6 6 5
3 2 0 1 2 3 2 4 5 4 5 6 2 2 3 4 2 4 4 3 3 3 4 12 12 11 11 10 10 11 11 11 11 11 11 11 9 7 8 6 5 4 3 3
2 2 4 1 1 4 6 5 5 8 4 2 3 4 1 2 2 3 2 2 3 10 10 10 11 11 12 13 14 13 13 12 11 11 8 7 8 7 9 6 5 5 5 5

GFSNW_850_spd_087.txt.gz
Wind_Speed
6 4 6 6 6 9 9 2 1 2 4 2 4 1 4 2 7 4 4 1 1 1 5 3 3 4 5 16 12 5 3 3 6 16 21 18 17 10 5 7 6 5 0 1
6 4 5 9 8 11 5 2 4 4 2 2 1 3 7 6 2 5 2 2 5 6 3 2 3 7 12 11 5 2 5 3 5 10 7 7 8 8 11 15 0 8 6 3
7 5 6 9 9 7 1 2 2 2 2 3 4 5 6 5 5 6 2 3 3 3 3 4 3 5 4 12 9 3 2 3 6 8 13 11 11 20 17 6 4 4 5 6
5 4 6 9 9 7 4 2 1 1 1 2 6 5 2 9 4 3 6 1 3 1 2 5 6 9 11 12 9 8 2 5 8 13 18 19 17 21 17 14 16 5 9 11
6 3 7 9 10 6 7 2 3 1 7 7 6 3 2 1 7 1 4 3 4 5 4 5 7 9 8 4 5 4 3 3 5 11 17 18 21 19 16 14 15 8 2 7
8 6 9 11 11 8 5 4 5 3 6 2 2 4 3 4 7 4 2 4 4 6 6 13 17 20 18 13 12 11 7 3 2 8 13 12 10 13 16 10 7 1 0 5
7 9 10 11 9 10 9 7 4 4 1 2 4 7 7 4 5 2 11 12 4 5 15 20 21 24 25 22 19 20 12 5 3 6 10 5 3 14 9 18 11 12 14 11
9 11 12 13 11 11 11 8 6 6 1 1 8 6 4 5 4 4 7 10 4 11 10 4 6 5 4 9 17 14 16 7 2 3 3 8 5 9 8 0 9 16 12 11
10 11 13 13 10 9 10 7 7 7 3 6 12 7 4 1 3 2 4 8 9 11 2 2 2 3 4 4 7 6 10 12 6 2 3 4 10 17 32 20 6 13 12 9
11 11 13 11 10 7 6 9 7 7 5 10 10 5 3 4 4 1 5 10 8 8 2 1 2 3 7 3 5 3 4 4 9 6 2 3 9 27 34 3 4 13 12 12
12 12 11 10 10 8 7 8 5 7 3 7 6 3 4 4 7 2 8 4 7 5 4 3 3 2 3 4 2 6 3 2 3 4 4 1 27 10 7 6 14 13 14 12
13 11 10 8 8 10 8 8 2 5 4 2 2 3 4 3 2 2 5 3 3 3 3 3 2 2 3 8 2 6 3 4 2 5 3 7 12 13 15 14 14 12 13 11
13 11 9 7 10 11 7 10 9 7 5 3 0 2 3 2 1 4 1 4 3 3 3 3 2 2 3 3 3 4 10 19 3 4 5 11 15 16 17 16 15 12 12 11
12 12 10 11 10 9 8 7 5 3 3 1 1 2 1 2 4 4 3 5 4 5 9 2 2 1 3 3 2 3 4 7 6 5 9 11 14 14 11 13 14 16 14 13
13 13 12 10 8 7 6 4 2 3 4 3 6 6 4 8 3 6 7 5 4 3 3 1 2 4 2 3 2 3 7 4 3 3 7 9 7 8 8 15 16 14 14 15
14 14 11 8 8 8 6 1 4 7 2 1 2 4 4 6 9 6 7 8 5 3 1 4 4 8 2 1 3 4 5 7 9 4 11 14 11 11 12 15 16 14 13 13
14 13 11 9 8 9 2 3 1 5 4 1 4 4 1 9 9 11 9 6 5 4 3 4 4 4 2 1 2 8 4 3 3 5 9 11 8 6 10 15 16 18 19 16
16 13 10 9 8 9 4 3 10 10 1 1 1 3 2 5 4 3 7 7 6 5 4 4 4 6 4 3 8 7 5 7 9 11 12 13 9 7 7 11 12 12 12 9
17 13 10 7 5 4 5 5 5 4 3 1 3 2 3 4 2 4 5 6 1 6 3 4 2 1 3 5 12 4 2 2 7 8 9 10 11 12 13 14 12 11 11 9
16 13 6 5 6 6 6 3 2 1 3 5 4 5 2 7 7 5 3 5 3 2 6 5 2 3 11 11 10 7 4 4 3 9 9 8 10 8 7 9 10 9 8 8
16 7 4 5 11 8 4 3 4 5 4 7 8 15 4 5 3 3 4 2 2 2 3 3 2 3 4 12 12 10 10 9 8 9 8 8 8 7 6 6 5 5 4 4
13 7 10 16 6 4 4 4 3 4 4 8 6 7 17 4 4 1 3 2 1 3 3 2 1 3 15 14 11 8 7 6 7 6 8 8 8 5 2 2 3 4 6 7
11 3 5 5 6 5 5 5 3 1 3 2 4 1 7 4 4 2 2 2 3 0 1 2 2 13 13 12 10 10 7 6 7 7 6 6 7 4 4 8 9 9 9 9
4 4 4 3 2 4 3 1 2 1 3 7 8 4 2 2 2 0 2 3 2 3 2 2 3 14 15 14 11 7 6 5 5 5 5 9 8 9 10 11 11 9 8 7
4 5 4 4 3 3 3 2 3 2 2 7 6 3 1 1 1 3 2 2 3 3 2 2 14 18 15 12 8 5 7 7 9 11 13 14 12 11 11 10 8 7 6 6
4 1 2 0 3 5 2 3 4 4 6 7 3 1 2 4 3 2 3 2 3 1 2 14 16 13 10 9 8 11 11 11 12 13 12 12 11 10 8 7 5 5 5 4
2 2 4 1 0 0 5 5 5 6 6 2 2 4 6 1 1 2 3 2 2 12 14 13 11 13 12 11 14 13 12 12 12 12 11 11 10 8 8 8 6 6 8 10

GFSNW_850_spd_090.txt.gz
Wind_Speed
11 7 5 9 11 15 13 6 2 7 10 3 4 2 3 9 5 11 6 4 6 5 4 4 3 4 5 6 1 2 3 3 4 4 11 13 9 5 3 3 5 4 4 9
7 5 9 11 11 14 9 7 4 8 8 2 1 2 5 8 4 7 4 4 5 5 3 3 3 4 5 10 4 2 1 3 4 10 4 6 5 7 9 9 8 4 3 5
6 6 10 12 12 10 5 3 2 4 7 3 4 4 3 4 9 5 5 5 7 5 4 5 3 5 6 15 7 2 1 3 4 4 9 9 14 15 10 5 4 8 9 12
8 7 9 10 12 7 4 1 1 1 2 3 5 3 4 7 3 3 4 4 4 4 3 5 4 5 5 7 3 4 3 2 1 6 11 14 16 15 15 13 13 8 10 16
8 8 10 10 11 6 4 2 2 2 4 6 6 4 2 6 8 3 2 4 2 5 3 2 2 0 1 4 1 2 4 3 3 14 12 14 16 16 17 15 15 15 17 11
10 10 11 10 10 8 3 3 3 2 3 3 4 2 4 6 4 6 11 5 3 4 1 4 11 14 12 10 7 5 5 3 2 8 6 12 11 9 15 13 7 9 10 3
11 11 12 11 8 7 10 7 5 3 1 3 3 10 12 9 5 4 2 4 3 1 8 16 16 17 18 16 16 16 5 6 4 4 7 4 1 16 10 11 8 3 10 5
12 13 14 13 11 10 10 9 5 3 2 2 9 9 6 8 6 3 3 6 5 8 7 4 5 4 4 4 7 10 14 6 3 2 3 11 8 7 5 2 6 7 8 3
12 13 15 12 10 9 9 8 7 5 7 5 1 7 7 3 1 3 6 9 9 7 3 3 2 2 3 4 8 10 5 10 6 2 3 3 3 12 14 3 3 7 5 4
12 12 12 12 9 6 5 6 6 10 9 11 7 5 4 3 4 3 3 4 7 8 2 2 1 3 4 4 6 3 3 4 7 5 4 3 12 20 17 3 3 8 10 14
13 13 12 11 10 6 5 8 7 9 6 9 10 11 10 8 6 3 2 3 6 4 4 2 2 1 3 3 3 7 2 3 3 4 1 2 24 7 6 4 11 11 15 13
14 14 12 11 11 7 7 9 8 12 7 7 6 4 5 4 5 5 3 3 2 2 3 1 1 2 3 4 3 6 4 5 2 5 3 5 11 11 12 12 13 12 14 10
14 13 11 9 11 8 9 14 12 11 10 10 8 6 6 4 2 5 5 4 3 3 1 4 2 1 1 2 3 3 7 12 2 2 4 9 15 13 14 13 14 14 13 14
13 13 10 11 13 11 10 10 10 9 6 4 3 7 3 3 4 6 5 6 4 1 2 2 2 1 2 1 2 2 4 9 5 3 6 8 13 13 10 12 14 15 15 15
15 14 14 12 11 11 9 9 8 8 5 3 1 3 3 5 3 5 3 2 4 1 1 2 2 3 0 1 2 2 6 3 3 1 7 7 6 6 10 12 13 12 14 14
15 16 14 11 9 8 6 3 3 3 4 2 1 1 1 9 8 6 6 5 3 2 1 3 4 5 1 2 2 2 2 5 7 2 9 12 10 10 11 13 13 12 13 12
17 14 12 9 8 8 6 4 3 5 2 2 3 4 2 7 11 8 6 10 5 3 2 3 3 4 4 2 2 7 3 0 1 2 9 7 2 7 12 13 11 10 12 12
16 14 11 9 10 12 11 11 10 8 1 4 2 3 1 4 4 3 5 6 7 4 3 3 4 3 4 2 10 10 8 6 5 6 6 12 11 11 13 9 7 8 10 10
16 13 11 10 7 5 6 6 6 3 2 2 0 2 3 5 3 3 4 4 1 4 2 4 3 1 1 4 15 11 7 5 8 9 11 14 15 13 15 8 5 5 8 7
18 14 4 4 7 5 7 3 2 2 1 2 3 4 2 5 5 2 2 3 2 1 5 4 2 2 6 8 9 8 6 7 10 12 12 13 11 10 10 7 6 5 6 7
15 5 3 9 12 5 2 2 1 1 2 5 6 10 2 5 3 3 5 2 2 2 2 3 2 3 4 11 10 7 6 5 7 11 9 9 7 8 8 8 7 6 5 5
8 8 14 14 4 2 3 3 1 3 3 6 5 7 12 3 4 2 0 2 2 3 3 2 1 1 16 14 12 9 6 6 8 7 8 10 8 6 5 5 6 5 6 7
12 4 5 4 4 3 4 4 3 0 3 5 5 2 7 4 4 2 1 2 3 4 1 2 1 12 15 13 11 9 6 6 7 8 8 7 7 6 5 9 10 9 8 8
2 3 4 3 2 3 4 3 3 1 1 8 11 4 2 2 3 1 1 3 2 2 3 2 2 16 17 14 11 9 8 6 7 8 8 8 9 12 13 12 12 9 8 7
1 3 3 4 2 3 4 2 3 3 2 4 6 4 1 0 1 2 2 2 3 2 1 2 14 19 17 14 11 7 7 7 9 11 12 13 13 12 12 11 9 7 5 5
2 3 1 1 5 3 2 3 3 3 7 4 4 2 2 3 3 2 3 2 1 2 3 13 20 18 16 13 9 8 9 11 14 15 15 14 13 11 9 8 7 5 5 3
3 1 3 1 2 1 5 6 5 5 6 1 2 3 6 3 0 1 0 2 3 9 13 16 15 15 13 11 11 13 14 15 15 16 14 13 12 10 8 7 5 5 5 6

GFSNW_850_spd_093.txt.gz
Wind_Speed
13 11 12 8 11 16 19 8 3 14 19 4 3 3 4 3 4 5 3 4 6 3 3 3 3 4 4 2 2 3 3 2 1 1 8 5 3 2 4 1 3 3 3 5
11 12 8 10 15 19 11 10 7 11 11 3 3 2 3 5 2 3 3 3 4 4 3 5 4 5 6 15 4 3 1 1 2 1 4 5 4 4 3 3 6 7 5 4
10 8 10 12 15 14 7 5 3 5 11 6 3 4 3 4 6 5 6 3 5 4 4 6 3 3 4 9 5 9 4 1 3 4 5 1 6 9 8 6 3 5 7 12
10 9 12 14 15 9 4 3 2 5 4 3 3 3 3 5 3 2 5 4 5 3 3 2 3 4 3 3 4 4 3 2 2 5 5 5 9 13 14 14 13 11 13 16
10 11 12 13 13 7 4 4 2 2 2 6 6 3 2 7 6 3 3 5 7 7 4 3 2 2 1 3 2 3 3 1 1 6 5 8 13 16 16 17 17 15 17 20
11 12 12 13 12 8 2 2 4 2 3 2 4 2 3 5 6 9 7 5 4 5 4 6 9 12 10 7 6 4 3 3 2 5 2 8 11 8 11 16 16 10 13 7
10 12 12 11 11 8 5 7 5 4 1 3 2 9 12 9 4 5 4 8 4 1 6 10 7 8 13 11 11 11 5 5 3 3 3 4 2 7 9 5 7 5 2 8
12 14 14 11 9 8 9 9 4 4 2 3 9 11 9 10 10 5 9 8 4 3 4 3 4 4 2 1 5 9 12 5 2 2 3 8 7 5 6 5 3 7 5 9
13 14 14 11 10 9 6 7 8 7 7 3 2 5 8 4 3 4 4 7 7 2 3 3 3 2 2 3 7 7 7 5 4 4 3 4 1 13 14 5 1 9 8 7
14 15 14 11 7 6 6 7 9 9 9 6 6 4 5 5 4 3 3 3 4 5 2 3 2 1 2 2 3 3 4 3 8 4 3 5 10 17 18 2 3 9 13 12
14 14 13 10 6 4 6 8 13 8 7 9 10 10 9 7 5 3 1 3 5 3 3 2 1 1 2 2 2 6 3 2 3 5 5 3 22 7 5 3 9 8 13 13
15 13 12 10 6 4 9 12 11 16 7 11 13 12 9 8 6 9 3 4 2 2 3 1 2 1 2 1 2 4 2 3 2 4 2 5 9 9 10 10 8 8 11 8
15 13 11 10 8 6 7 13 13 18 19 13 10 7 5 4 4 6 5 2 3 3 2 5 2 0 2 1 1 1 4 9 2 2 4 6 11 10 12 11 12 10 8 9
14 12 11 11 10 9 9 13 11 14 7 5 3 10 8 8 9 7 7 12 8 5 1 2 2 1 2 1 1 2 3 4 4 3 5 4 11 11 9 12 12 11 11 11
14 11 12 14 13 11 9 12 13 8 4 5 6 6 7 7 7 8 9 7 6 2 2 2 1 2 1 1 2 2 3 2 2 1 4 5 5 6 8 12 11 9 9 10
15 14 13 14 13 10 8 4 5 8 8 5 2 3 6 9 7 6 5 3 2 2 1 1 2 3 1 1 1 2 4 7 4 4 8 10 7 8 8 11 10 9 9 9
16 14 12 10 8 8 2 4 4 5 4 3 3 2 4 10 9 4 5 5 1 1 1 1 2 3 5 2 2 7 4 3 4 5 10 7 5 7 10 11 11 11 11 10
16 13 11 10 9 11 10 8 5 4 4 4 3 1 2 7 5 3 4 5 4 2 2 2 3 2 2 1 6 9 6 6 5 4 4 9 13 10 9 7 6 8 9 8
16 14 11 11 11 5 7 9 5 3 4 3 2 3 3 5 3 3 3 3 1 1 1 3 3 1 2 2 14 11 6 3 5 8 7 8 10 11 8 3 4 6 6 4
16 15 3 4 6 9 6 1 2 5 5 3 1 1 1 4 3 1 3 2 2 1 4 4 2 1 3 8 10 8 7 5 9 11 10 10 11 11 7 3 2 3 4 5
13 3 4 14 12 3 3 3 2 1 1 3 4 7 1 5 3 3 6 2 2 2 3 4 3 3 4 10 10 8 4 6 10 12 9 9 6 7 5 5 3 2 2 3
5 9 12 8 3 2 2 1 1 2 2 5 5 6 9 3 3 2 2 2 2 3 5 2 1 1 15 13 11 8 6 5 7 7 8 7 6 5 4 4 5 5 5 5
17 5 3 3 2 2 4 4 2 1 3 7 6 1 6 3 3 3 2 3 3 3 1 2 2 10 15 15 13 10 7 5 5 7 7 7 6 5 4 6 8 8 7 6
2 3 4 2 2 3 4 3 3 1 1 6 11 5 2 2 3 0 2 3 2 2 1 3 3 17 19 15 11 8 8 7 7 8 8 7 7 10 11 10 9 7 5 3
2 2 2 4 3 2 3 3 4 4 3 4 6 4 1 2 3 1 2 2 2 1 2 2 12 20 18 14 11 9 8 8 9 9 10 11 11 11 11 11 8 7 4 3
2 1 1 2 3 2 2 2 2 2 5 4 3 2 2 1 2 2 4 2 3 2 2 6 18 19 17 14 11 8 7 9 11 13 13 14 13 11 9 8 8 6 4 3
2 1 2 1 1 2 4 4 4 3 3 2 2 3 6 2 2 2 2 3 3 4 7 13 16 16 16 13 10 10 13 15 17 17 16 14 12 10 7 6 5 4 3 3

GFSNW_850_spd_096.txt.gz
Wind_Speed
12 10 8 9 12 19 19 10 3 19 20 5 4 3 5 2 3 9 5 3 4 4 5 4 4 4 4 7 1 3 1 3 2 2 7 2 1 4 4 3 2 2 2 4
13 10 12 11 17 21 15 8 7 14 23 3 3 3 2 4 1 3 3 5 4 4 2 4 6 5 3 7 3 4 3 1 3 2 2 3 4 4 4 0 2 5 2 4
12 13 10 11 15 17 10 5 3 5 13 8 3 4 5 6 4 3 4 3 3 3 5 7 4 4 4 8 4 8 4 2 3 3 2 2 1 3 2 4 2 3 10 14
14 11 11 13 16 16 8 6 4 8 4 5 5 2 2 4 3 2 4 4 3 3 3 2 3 3 3 4 5 4 3 2 2 4 1 2 4 9 10 7 10 5 16 14
14 12 12 14 16 13 9 4 3 5 2 7 5 1 2 6 4 2 2 5 4 5 4 3 3 3 2 1 5 3 4 2 2 2 6 7 8 11 10 13 14 16 19 21
13 11 14 14 15 12 6 4 3 3 1 3 4 3 4 4 6 8 7 9 5 7 3 2 3 5 4 3 4 2 1 3 2 2 0 4 6 1 0 6 9 12 15 15
11 12 14 13 16 13 5 6 5 3 0 2 3 6 8 6 3 6 4 8 4 2 1 2 1 1 4 3 3 5 4 4 2 2 2 1 1 5 1 8 7 11 8 5
12 14 14 11 10 9 8 8 4 2 2 2 9 11 10 15 15 6 7 6 2 1 3 3 2 2 2 2 3 4 5 3 1 2 1 5 4 5 5 4 4 7 8 4
15 15 13 12 11 8 6 7 5 4 5 2 3 5 7 4 3 3 3 7 5 3 3 3 2 1 1 2 3 9 6 3 2 2 2 4 2 11 13 8 4 9 9 5
16 16 13 11 9 7 6 6 9 7 9 3 4 3 5 6 5 3 2 3 3 5 2 3 2 2 0 2 1 1 4 3 4 3 2 3 8 14 13 3 4 10 10 9
17 16 12 10 8 6 8 8 9 7 7 7 7 6 7 8 5 3 1 3 4 3 3 2 2 2 1 2 3 4 2 1 2 3 4 4 18 4 5 6 7 9 10 11
15 14 11 7 5 5 10 11 11 19 10 12 16 15 12 8 5 10 3 3 2 2 4 1 2 1 1 3 0 4 2 0 1 2 2 4 7 8 9 9 8 9 11 14
14 12 10 6 3 6 11 16 16 19 21 15 9 8 7 5 6 5 5 2 3 4 3 5 2 3 2 1 1 1 4 6 2 3 2 4 8 10 12 12 12 12 13 14
14 12 10 8 6 8 14 20 16 17 10 5 4 11 10 10 7 5 7 12 9 7 4 3 2 2 1 1 2 2 2 4 2 3 4 6 10 8 6 9 10 12 12 12
14 12 12 11 10 11 11 14 14 12 5 6 7 9 9 9 10 12 10 8 7 4 3 3 1 1 2 2 2 2 3 2 1 2 1 6 5 6 7 9 10 9 10 11
13 12 14 13 12 14 15 7 7 11 17 6 2 4 8 8 6 7 8 7 6 3 2 1 1 1 2 2 1 2 5 4 1 3 8 12 10 7 7 9 9 9 10 10
15 14 13 12 9 6 6 5 6 8 7 5 3 2 4 8 7 3 2 1 2 2 2 1 1 1 4 2 2 9 7 5 6 7 12 9 4 7 9 9 8 9 9 9
15 13 12 11 8 7 8 8 7 6 5 5 3 1 3 9 4 2 3 2 1 1 1 1 2 0 1 1 7 11 9 6 5 6 1 6 11 10 8 6 5 5 7 7
15 13 12 12 8 4 6 8 8 7 5 4 3 4 3 7 3 3 3 2 1 1 0 2 3 1 3 2 16 16 13 7 13 10 10 10 11 10 7 4 3 3 4 5
16 15 4 5 5 10 5 3 2 3 5 4 2 3 1 4 3 1 2 1 1 0 3 5 2 2 2 4 14 13 13 8 13 14 10 12 14 10 7 4 3 2 4 5
8 4 5 13 9 6 5 4 4 3 2 1 2 3 2 3 3 2 3 2 1 1 3 4 3 2 5 11 13 11 8 9 12 9 5 8 7 9 7 6 5 4 4 4
4 10 14 6 3 3 2 2 1 1 1 3 4 3 2 3 2 3 3 1 2 3 6 1 2 1 11 14 12 10 8 7 8 9 10 10 9 7 6 6 5 5 5 5
19 5 3 2 2 2 3 3 1 1 3 6 6 1 4 3 2 4 2 2 1 3 2 3 2 7 14 14 12 11 9 7 7 9 9 8 8 7 5 6 7 7 7 6
4 2 3 2 1 2 3 3 3 1 0 7 8 5 2 2 3 1 1 4 1 1 2 3 2 13 16 14 11 7 7 7 8 9 9 8 7 8 11 11 11 9 7 6
3 2 1 2 3 1 1 2 4 6 5 5 5 4 1 2 3 1 2 2 2 3 3 3 9 17 17 14 10 7 7 7 8 7 7 9 10 11 12 11 9 8 6 5
2 3 3 3 3 3 3 5 5 4 4 5 4 2 3 2 3 1 3 1 3 3 2 4 13 18 15 12 10 8 7 8 9 11 12 14 13 11 9 8 7 6 4 4
2 3 4 4 4 3 4 2 3 1 2 1 1 2 5 0 1 2 2 3 2 1 2 9 15 16 15 13 10 7 9 12 14 16 15 14 12 10 9 7 6 5 5 5

GFSNW_850_spd_099.txt.gz
Wind_Speed
13 12 11 10 13 14 18 7 3 20 18 3 3 2 4 3 2 3 7 5 4 1 5 4 6 4 3 2 1 3 1 2 3 3 4 3 1 2 2 2 4 1 3 4
18 13 13 13 18 23 16 5 6 15 13 2 3 3 5 2 2 4 1 2 3 2 2 4 5 5 2 5 2 3 2 1 3 2 1 2 5 4 5 3 2 4 4 1
19 13 14 15 20 26 14 6 3 5 10 3 1 4 5 4 3 3 3 4 5 1 2 6 4 4 4 5 6 10 4 2 1 4 2 3 4 4 3 3 3 3 10 15
20 16 16 17 23 21 12 6 4 8 5 6 7 2 8 7 5 3 2 1 3 4 2 3 4 3 3 7 5 4 2 2 1 1 3 2 3 8 7 7 8 7 8 16
18 15 18 18 21 18 13 4 4 8 5 9 11 6 6 10 4 2 2 3 1 3 3 1 4 5 2 2 4 2 3 3 2 3 6 6 9 12 10 9 10 13 16 21
20 17 18 19 19 17 8 5 5 3 2 4 5 4 4 5 7 4 5 9 7 9 4 6 7 7 7 4 4 2 2 4 3 2 1 3 8 8 9 2 5 9 12 16
18 17 18 18 19 18 10 4 3 3 2 2 4 5 5 10 2 6 3 4 3 2 4 8 9 9 7 5 3 2 4 4 2 1 2 3 4 6 2 4 9 3 11 11
15 17 17 17 17 15 11 7 5 4 3 2 7 10 10 13 13 5 5 5 4 4 4 2 3 2 3 5 5 2 3 3 2 1 2 4 4 4 3 4 3 8 10 7
14 17 16 15 14 12 11 11 10 3 5 1 6 7 9 7 3 2 3 6 5 3 3 2 2 2 2 3 2 7 6 2 1 3 2 2 1 11 10 7 3 10 11 8
17 18 16 15 14 12 10 8 9 4 8 3 5 3 4 6 4 3 1 1 2 3 2 3 2 2 0 2 2 2 4 3 3 3 2 1 6 14 11 3 5 10 12 14
20 18 15 13 12 11 10 8 9 7 7 7 7 6 6 7 5 3 3 3 2 2 3 2 2 2 1 3 1 2 1 2 2 2 3 2 15 2 3 6 6 9 12 14
20 17 14 11 10 11 11 9 11 18 9 16 19 17 12 8 5 11 4 3 2 3 3 1 3 2 1 2 2 3 1 1 1 2 2 4 7 7 5 6 9 9 12 11
19 16 12 8 8 11 12 17 19 26 25 15 10 14 12 9 8 6 6 3 3 3 4 4 2 3 1 2 2 2 2 4 2 4 3 5 8 9 10 11 13 12 12 13
17 14 11 8 7 13 14 21 16 17 11 5 5 11 14 12 8 9 9 15 12 9 5 3 2 2 0 2 3 1 1 2 2 3 6 8 9 9 8 11 12 13 13 13
17 15 13 12 13 14 15 17 16 11 5 6 7 14 13 13 12 15 13 10 9 4 3 3 2 2 2 2 2 2 1 2 2 2 3 6 6 7 8 11 11 10 12 14
16 16 15 14 16 17 16 6 9 15 23 9 3 6 6 9 10 11 11 9 8 5 3 3 2 2 2 2 2 3 5 5 4 4 5 11 10 9 9 11 10 11 13 13
16 16 14 11 9 8 4 7 10 14 10 6 3 2 4 8 6 6 5 7 5 4 3 2 2 1 3 1 2 10 8 11 13 15 16 9 4 8 10 11 12 11 12 12
17 15 13 11 10 12 14 14 12 9 7 5 3 1 3 7 3 2 1 2 3 4 2 2 1 3 1 2 6 11 10 10 11 12 1 6 14 12 10 9 9 9 11 10
19 17 15 13 6 5 8 12 12 9 5 5 3 4 3 6 3 3 2 2 2 2 1 1 2 1 3 4 16 14 13 10 13 11 11 14 12 11 8 6 7 8 9 8
18 15 4 5 6 14 9 4 2 3 5 4 3 3 3 5 2 2 2 2 1 1 1 4 1 2 3 5 16 15 15 14 16 16 12 11 10 9 7 5 6 6 7 8
5 3 5 14 9 5 4 4 5 4 2 3 3 3 4 3 2 2 2 2 1 1 2 3 2 3 5 12 17 16 14 12 12 7 6 10 8 9 7 7 7 7 8 8
5 13 13 6 4 5 5 3 1 1 1 2 3 4 4 4 3 3 2 1 2 2 6 2 2 1 11 17 16 14 12 13 14 10 10 11 9 8 7 7 7 7 8 9
12 6 4 3 4 5 3 3 1 0 3 5 5 2 3 3 2 4 2 0 0 1 3 2 1 8 13 16 16 14 12 11 12 14 13 12 10 10 7 8 10 10 10 9
5 3 4 3 2 1 2 1 2 1 2 9 7 5 2 2 2 1 2 1 1 1 1 2 3 14 17 17 15 14 14 12 13 13 13 11 10 10 11 13 13 11 10 9
4 2 3 1 2 2 4 4 6 6 8 8 6 5 2 2 3 0 1 0 2 3 2 1 8 19 21 18 15 12 13 14 13 12 12 12 13 14 16 14 12 11 9 9
4 4 3 2 3 5 7 10 9 4 5 5 4 2 3 1 2 2 3 2 3 2 1 3 15 20 19 16 14 13 13 13 14 14 15 17 17 15 14 13 11 9 8 8
3 3 7 7 8 5 5 5 4 3 3 2 1 2 2 1 1 2 2 3 1 1 2 9 17 20 18 15 14 12 13 15 16 18 19 19 17 15 13 12 11 9 8 6

GFSNW_850_spd_102.txt.gz
Wind_Speed
20 17 16 17 18 17 16 9 4 24 19 4 3 8 5 2 4 6 3 2 3 4 4 5 6 5 3 3 5 6 5 2 4 2 3 2 3 2 3 5 8 4 6 6
23 21 19 17 20 20 13 9 6 17 19 6 8 6 7 8 6 8 6 4 3 1 6 2 10 4 3 2 5 5 2 2 3 3 1 1 2 1 2 2 1 9 9 3
25 23 20 18 21 25 12 8 5 6 11 3 5 10 11 10 10 6 4 4 3 3 5 2 10 10 4 5 4 6 1 3 5 5 3 4 4 7 4 2 3 4 9 13
25 24 19 20 27 30 12 7 5 10 8 11 10 9 10 14 8 7 7 6 5 4 5 4 6 6 10 5 0 3 1 3 2 4 4 2 2 6 7 10 10 6 9 11
29 26 21 22 26 33 11 7 5 9 4 15 14 9 9 13 9 8 9 4 6 10 4 3 8 10 7 5 3 3 2 3 1 2 3 4 8 9 10 11 12 14 15 16
32 26 22 24 32 26 7 6 4 6 11 13 11 12 9 13 10 2 4 6 6 9 9 11 10 9 7 7 6 4 3 4 3 2 2 1 7 5 10 9 7 7 11 12
30 24 27 26 27 23 8 5 4 5 6 12 12 13 12 12 11 6 8 8 6 5 11 13 11 11 9 7 7 3 6 6 3 3 3 4 6 5 7 3 9 5 8 12
24 24 27 26 26 26 20 6 3 3 4 8 10 11 9 10 11 10 9 6 5 9 7 6 7 5 6 5 5 5 4 3 3 3 5 4 4 3 3 3 2 6 9 10
22 21 25 21 22 22 21 11 6 2 2 4 8 9 15 10 7 7 5 6 7 4 2 2 4 4 5 6 5 4 6 2 3 3 3 4 5 7 4 1 6 6 7 8
20 21 20 19 19 19 14 10 9 2 4 4 7 5 8 6 4 4 6 5 4 2 3 2 2 3 0 6 6 5 5 2 5 5 3 5 1 10 3 5 5 7 8 10
23 23 19 18 19 17 15 11 10 5 5 5 4 4 5 6 5 5 7 5 2 3 3 2 3 3 2 4 2 1 4 5 4 3 3 2 13 1 4 5 6 6 9 11
24 22 20 18 17 16 15 9 12 12 6 9 16 14 9 7 4 8 4 2 3 2 2 2 3 3 3 4 4 2 3 3 2 4 4 5 8 6 4 4 7 8 9 9
22 19 17 16 16 16 13 11 19 18 15 14 8 8 11 9 7 8 3 3 4 3 3 2 2 3 2 4 3 4 4 5 2 5 5 7 6 7 8 8 9 9 9 10
21 16 14 13 13 15 13 22 20 15 10 5 6 8 12 13 9 7 6 13 10 8 4 3 2 2 2 2 4 0 3 5 6 5 8 9 7 6 7 9 10 11 11 11
19 16 13 13 14 16 18 19 16 14 5 5 9 11 14 14 13 15 13 10 7 4 3 2 2 3 3 3 2 3 1 3 3 2 9 8 9 8 8 10 10 11 11 12
20 18 18 21 22 23 20 8 9 15 19 9 4 6 5 10 11 13 11 7 6 4 3 3 3 2 1 3 2 3 4 2 5 6 8 14 14 11 10 11 11 11 12 11
20 18 16 15 17 17 7 7 14 17 15 7 5 5 3 7 4 5 6 7 5 4 3 2 2 3 0 1 2 11 8 7 12 17 20 15 13 10 12 13 13 12 12 11
20 17 15 15 15 13 13 18 16 12 8 6 4 3 6 5 3 3 3 2 2 4 2 2 2 5 1 2 9 14 13 12 14 10 4 12 18 16 14 12 12 12 11 11
21 18 15 14 11 6 10 17 14 9 5 4 3 6 4 6 3 3 2 1 2 0 1 2 3 3 3 1 16 16 16 14 14 9 13 19 17 14 12 12 11 11 11 10
21 17 4 4 6 18 13 5 3 4 5 5 3 3 4 6 4 3 3 1 1 2 2 4 2 2 2 5 11 14 14 11 18 18 17 17 16 14 12 11 9 10 10 11
10 3 4 15 10 4 4 4 3 2 3 3 4 4 8 3 3 3 1 2 1 1 3 3 2 3 5 7 12 14 13 14 14 9 12 13 14 15 14 13 12 12 12 12
4 12 13 5 3 3 4 3 2 1 3 3 5 8 6 4 2 2 2 1 1 1 5 2 3 3 10 13 14 13 12 13 11 10 13 13 13 13 13 13 13 13 13 13
14 5 4 2 4 3 2 4 3 3 5 5 8 4 3 3 2 4 2 2 0 2 3 2 2 9 12 14 14 13 11 13 13 14 14 15 14 13 13 15 15 15 14 13
5 3 4 3 2 2 1 3 4 4 5 11 8 4 2 2 2 1 2 2 1 2 2 0 4 14 15 13 13 14 13 13 15 16 16 15 14 15 15 16 16 15 13 12
4 2 3 2 3 3 4 5 6 4 7 6 6 5 2 2 3 1 1 2 3 3 1 2 6 16 16 15 15 15 15 15 15 16 16 16 15 17 19 18 16 14 12 10
3 4 4 3 9 8 9 10 9 6 4 4 3 2 2 2 2 3 3 2 2 2 2 4 12 16 16 16 15 14 14 15 17 17 17 18 19 19 19 17 15 12 10 8
3 4 7 8 9 7 5 5 4 5 1 2 1 2 2 3 2 2 2 2 2 2 3 6 11 17 19 17 15 15 16 16 17 18 20 21 20 18 16 15 13 12 10 8

GFSNW_850_spd_105.txt.gz
Wind_Speed
35 30 26 24 21 21 21 9 3 28 27 5 4 9 5 3 9 10 8 6 7 9 10 9 6 10 3 2 7 15 9 4 6 12 4 4 9 10 4 3 6 7 9 1
34 35 26 24 27 27 13 8 6 27 27 5 7 10 12 9 9 11 8 8 8 6 12 6 3 7 4 2 5 9 8 7 8 8 8 6 7 7 7 5 5 11 9 2
28 34 28 28 27 27 13 8 4 6 15 11 10 18 12 13 15 8 8 3 5 9 10 9 8 7 4 4 4 1 2 5 8 6 2 2 6 9 8 5 5 10 11 9
26 38 30 29 25 29 16 6 6 14 7 9 12 13 10 17 9 14 13 6 11 10 6 9 9 10 11 6 4 4 5 6 6 2 1 1 2 6 7 8 9 6 10 11
30 45 33 29 26 26 20 4 5 12 6 25 20 13 11 18 16 14 11 8 8 12 6 4 10 9 10 6 6 5 2 3 5 8 4 6 8 9 11 11 11 13 13 11
26 41 32 29 29 36 13 11 7 11 9 16 16 14 16 16 11 4 5 7 7 11 6 3 4 4 3 3 9 7 4 4 4 7 2 4 9 6 8 10 10 7 9 9
23 36 30 26 31 32 14 10 7 7 6 12 15 18 14 12 16 6 6 16 8 9 10 12 10 8 7 6 4 4 5 5 3 1 4 5 6 8 4 7 7 8 7 10
30 38 31 27 28 36 14 8 3 5 5 12 15 15 14 9 9 9 9 5 7 15 12 7 8 6 5 4 4 5 5 4 3 3 7 7 6 6 3 3 3 6 6 7
37 36 27 28 27 37 21 7 4 6 4 8 17 12 15 11 10 8 8 8 10 10 4 5 6 5 6 6 6 5 3 2 4 5 4 4 6 6 6 3 4 6 7 7
29 25 27 30 27 25 20 16 7 4 2 4 3 6 11 9 10 7 12 9 6 6 5 5 4 3 2 7 8 6 5 3 7 6 5 5 1 6 3 4 5 6 8 10
23 23 27 28 25 23 20 15 7 5 2 6 5 3 7 5 7 6 13 7 3 6 7 5 3 3 3 4 3 5 7 7 5 4 4 3 10 1 2 3 5 4 8 10
24 23 23 22 23 23 23 5 9 6 1 7 10 10 7 5 3 7 16 2 12 4 5 2 3 3 3 7 6 2 2 2 2 4 3 5 8 9 4 4 6 6 8 9
25 20 20 23 24 19 13 3 13 10 15 14 9 6 9 6 6 9 7 4 5 4 2 1 0 2 5 5 4 5 3 5 3 6 6 6 7 8 8 8 9 9 9 9
25 22 21 20 19 17 12 10 17 8 7 5 7 6 7 8 5 5 2 11 7 9 6 2 2 2 2 3 4 1 2 8 7 4 7 9 7 8 9 10 10 11 11 10
21 20 19 19 19 18 13 16 17 11 2 6 11 12 11 9 10 12 11 9 8 8 4 3 2 4 3 3 2 4 2 4 3 2 15 7 13 11 10 10 10 10 10 10
16 15 12 16 19 18 17 6 7 13 20 7 4 6 6 8 9 10 8 6 5 3 3 3 4 3 2 3 2 2 3 4 6 5 11 13 16 13 11 12 11 10 10 10
18 18 20 21 22 15 12 6 13 18 12 5 6 6 4 4 3 4 5 6 4 4 3 2 2 5 3 1 3 9 7 9 14 18 21 15 15 10 13 13 12 12 10 9
19 16 15 14 13 10 6 18 19 12 6 4 3 3 6 3 3 4 2 2 2 4 2 2 1 4 2 2 10 13 13 15 17 13 2 15 17 17 15 14 13 12 11 10
20 19 18 13 7 4 6 14 12 6 3 3 3 7 4 4 4 2 3 1 2 1 1 2 2 3 3 4 16 17 18 13 15 11 16 19 18 16 15 13 12 11 11 10
20 11 4 5 5 22 16 6 2 2 2 2 2 6 4 7 5 2 3 1 1 3 2 3 2 1 6 4 15 16 16 12 16 18 19 18 16 15 14 12 11 11 11 11
6 3 4 13 15 5 2 2 2 3 3 4 5 10 8 8 3 3 2 2 1 3 3 3 4 3 7 9 14 15 15 16 15 14 15 15 14 14 14 13 12 13 13 12
4 9 14 7 2 2 3 2 2 3 3 5 8 10 10 6 2 3 2 2 2 1 3 2 2 4 12 14 15 16 17 17 14 13 15 13 14 13 13 14 15 15 15 14
15 5 3 2 1 2 3 5 3 4 5 6 11 6 4 5 3 3 2 2 1 2 2 2 3 11 14 16 16 17 17 14 13 14 16 16 15 14 15 15 15 15 15 14
3 2 3 2 3 2 1 3 5 5 7 14 13 5 3 2 2 1 2 2 2 3 3 2 5 14 15 15 15 16 16 16 18 19 19 18 17 17 14 14 16 15 15 14
4 3 3 3 3 5 6 8 9 5 10 12 9 4 4 2 2 2 1 2 3 3 2 2 9 16 17 16 16 16 16 18 18 18 18 16 15 16 17 17 17 16 14 12
3 4 3 6 8 6 10 14 12 7 8 7 4 2 3 2 3 3 3 2 2 3 2 5 12 16 15 15 15 14 15 15 16 17 17 17 17 18 20 19 17 15 12 11
2 4 8 9 11 9 7 8 7 5 5 2 1 2 1 2 2 2 2 2 3 4 5 6 11 15 16 16 16 15 16 16 16 17 17 18 20 20 19 18 16 14 12 10

GFSNW_850_spd_108.txt.gz
Wind_Speed
26 30 29 33 32 25 22 9 3 15 35 4 3 7 7 6 15 14 8 5 10 13 11 12 11 8 6 5 14 16 20 4 6 12 11 4 6 8 5 4 2 2 2 2
29 29 28 32 35 28 21 5 5 20 31 5 5 9 16 12 12 12 11 11 11 10 10 7 9 3 6 3 4 2 9 6 7 3 8 9 10 11 10 8 7 6 3 2
29 28 25 29 34 28 27 6 4 6 12 8 9 13 15 17 11 12 14 8 8 11 11 12 4 6 7 6 7 5 4 8 9 6 5 6 12 12 8 6 1 6 6 7
27 22 22 27 35 32 32 8 6 13 7 8 13 14 11 18 13 17 13 9 13 12 10 13 14 6 8 8 3 5 3 5 9 8 2 3 3 5 6 8 9 8 9 8
24 21 20 25 34 37 29 5 5 11 8 27 22 15 13 16 17 11 15 14 14 13 12 10 7 10 11 7 6 5 4 2 7 10 9 6 8 7 8 9 10 11 10 5
25 25 25 25 37 34 20 15 10 10 7 9 17 18 14 18 14 17 14 13 8 10 8 7 5 7 8 4 11 8 7 4 3 9 7 3 7 6 8 7 6 8 6 11
26 27 26 29 41 36 16 15 11 3 5 11 16 20 22 18 11 9 12 13 4 2 13 7 6 8 6 6 8 7 4 5 3 1 5 4 9 8 4 4 11 11 9 10
24 24 20 38 38 33 27 19 4 3 4 9 18 20 15 19 10 6 10 8 7 15 15 8 5 2 3 5 5 6 6 5 3 3 7 6 8 6 3 2 5 8 6 6
30 25 23 34 31 32 32 16 1 2 2 8 18 14 17 6 6 8 14 12 13 14 4 5 5 6 7 7 7 8 7 7 4 5 5 6 6 5 8 5 4 7 7 5
33 29 35 33 30 27 31 13 5 2 4 2 2 5 14 8 13 7 12 9 5 7 3 4 4 4 4 7 9 9 6 7 8 7 6 4 1 4 1 3 4 8 5 8
31 36 36 29 27 24 31 24 8 5 4 12 11 6 5 15 7 8 16 7 5 5 6 5 3 2 2 4 2 9 7 5 6 6 8 5 8 3 3 5 8 10 8 11
37 32 27 27 25 25 26 17 11 4 3 5 10 12 10 9 4 11 20 4 14 8 6 4 1 2 1 6 5 2 2 2 2 5 3 5 9 12 7 6 11 9 10 10
24 22 27 26 21 25 20 13 10 6 8 9 4 5 8 5 9 11 8 4 5 2 1 2 0 2 4 5 3 5 4 6 3 6 6 6 8 10 10 11 12 12 11 12
25 26 25 24 22 22 19 11 11 6 3 3 7 5 8 6 5 5 5 10 7 6 3 1 1 1 4 3 4 3 2 7 9 5 8 10 7 9 12 14 13 14 13 12
22 22 25 25 21 21 11 11 11 3 4 4 10 13 10 9 10 10 9 9 11 9 4 1 2 3 3 2 4 5 4 3 4 1 18 3 16 13 13 14 14 14 15 14
21 17 18 16 19 16 10 6 5 5 5 6 4 7 7 9 9 9 8 5 2 1 2 2 4 3 3 2 2 2 8 7 4 6 14 13 18 15 13 15 15 14 14 13
20 17 18 17 20 18 7 4 11 13 11 5 5 4 4 3 4 5 5 4 1 2 3 2 4 4 3 2 3 9 10 11 15 19 22 15 17 12 14 15 15 15 14 13
14 16 20 24 14 12 3 9 20 12 5 3 2 4 5 5 5 4 1 3 3 4 3 1 1 4 2 2 7 14 13 15 15 16 0 16 15 18 16 15 16 15 14 13
20 22 21 17 8 5 6 16 13 5 2 1 4 6 4 4 3 4 2 2 1 0 1 1 1 3 2 7 15 16 17 12 16 9 16 18 19 18 17 16 15 14 14 12
25 21 6 5 4 16 16 6 2 2 1 2 3 7 4 7 5 1 3 2 2 3 2 4 1 2 4 11 16 17 17 14 16 20 20 18 17 17 16 14 13 13 13 12
8 4 3 11 21 9 2 2 2 3 2 4 6 10 7 9 3 3 2 2 0 2 3 2 3 3 7 10 16 17 15 16 15 14 17 15 15 17 16 15 14 15 14 15
5 8 14 11 3 2 2 2 1 4 3 5 6 12 11 4 3 3 1 1 1 1 2 1 2 4 13 13 15 17 16 15 14 16 17 17 16 16 17 17 17 18 17 16
15 7 4 3 1 2 4 5 3 4 3 3 13 6 4 4 5 3 1 1 1 2 2 2 3 12 15 18 21 19 19 17 15 17 17 19 18 17 17 19 16 15 16 15
3 3 4 1 3 1 3 5 4 3 7 12 14 5 3 3 4 1 1 2 2 2 3 2 5 12 17 20 19 23 19 16 19 22 22 20 18 17 14 13 13 16 17 16
3 4 3 3 3 6 6 7 8 4 14 13 8 4 5 2 2 1 2 2 3 3 3 2 13 17 18 19 21 20 19 19 20 20 19 18 16 15 14 14 16 15 15 14
4 5 3 5 7 5 8 10 6 5 9 9 4 2 2 2 4 3 3 2 2 3 2 7 15 17 17 18 18 19 19 18 19 18 17 16 16 15 17 18 17 16 14 12
3 3 8 8 12 8 8 10 5 4 4 0 2 2 1 1 2 4 1 2 2 5 6 8 13 17 18 18 17 17 17 16 16 17 17 17 17 16 17 19 18 15 13 11

GFSNW_850_spd_111.txt.gz
Wind_Speed
25 21 21 22 21 23 20 14 4 7 23 7 4 7 6 5 12 22 7 6 8 9 8 8 8 8 5 6 5 15 4 1 5 8 3 7 9 17 14 3 2 2 4 2
26 25 24 21 22 24 28 11 5 13 27 6 7 4 13 14 9 12 6 7 7 3 3 2 2 4 4 1 4 4 7 3 3 1 3 3 5 4 5 6 3 4 2 2
24 26 25 24 21 22 33 11 4 4 14 4 4 7 8 8 14 12 15 5 10 2 5 5 2 3 4 4 4 1 4 2 4 5 3 1 3 10 10 6 3 1 3 5
23 24 26 24 20 21 31 11 4 9 5 10 7 8 5 16 9 9 17 9 8 6 5 6 7 4 2 3 5 1 2 3 3 3 6 6 8 3 5 8 5 5 4 8
23 23 23 21 21 23 35 7 5 10 5 20 18 13 7 16 17 9 16 8 8 10 7 4 2 7 5 4 4 5 1 3 0 3 8 4 5 6 5 4 5 1 14 10
25 24 23 24 23 28 16 21 10 6 2 8 12 17 17 8 13 13 14 10 9 8 8 7 7 10 10 3 6 5 6 3 3 3 7 3 3 2 3 9 13 4 4 8
26 24 26 26 25 31 28 18 14 2 2 4 13 12 20 16 11 8 10 7 6 6 12 11 9 15 7 11 7 6 1 5 2 1 5 4 4 6 9 12 10 10 11 10
28 26 28 27 27 25 35 12 13 3 4 3 8 17 11 22 14 4 8 7 13 23 20 6 3 3 3 2 4 7 8 3 2 3 3 6 6 3 2 4 4 6 6 11
27 27 28 26 29 27 36 19 13 5 2 5 9 7 14 3 4 3 3 14 24 23 4 3 4 4 5 5 5 7 5 3 3 1 3 5 3 7 9 3 2 6 8 4
22 27 23 21 30 36 34 23 16 5 3 5 11 3 6 10 6 3 7 6 7 8 2 2 3 3 7 6 8 5 3 1 3 2 2 2 1 7 5 4 3 10 4 3
28 29 24 21 30 33 31 23 12 5 2 9 8 7 6 7 12 4 13 6 2 2 3 3 2 1 1 3 2 7 4 5 3 3 1 4 7 1 3 8 11 13 10 13
31 30 30 25 28 27 26 19 11 3 3 0 15 14 16 11 7 11 19 10 6 8 3 2 2 4 1 5 3 2 1 4 4 2 2 6 8 12 10 12 17 14 14 15
31 32 26 32 29 26 22 20 15 11 3 5 4 3 9 3 10 15 6 7 6 4 4 1 1 2 3 2 2 4 3 6 4 4 5 7 9 12 12 13 15 15 15 15
30 34 33 29 26 22 15 23 15 7 3 2 4 10 9 5 8 12 7 15 8 8 4 1 1 2 4 1 3 3 5 6 7 5 9 13 11 12 15 17 17 17 15 17
30 28 26 24 22 26 17 21 12 15 4 3 8 13 11 10 8 8 5 5 9 9 1 2 1 1 3 2 3 3 3 5 4 3 21 6 17 17 18 19 19 18 22 21
30 28 27 23 27 23 16 5 6 20 9 4 2 6 8 10 10 11 7 4 3 4 3 3 4 1 2 3 2 4 13 12 7 8 15 18 22 19 17 20 20 19 18 17
24 24 21 28 23 17 6 4 17 13 10 4 2 2 2 4 5 8 6 5 5 4 3 3 5 2 2 2 3 11 19 19 24 26 26 20 22 18 19 19 21 19 18 17
25 28 20 19 15 10 3 13 15 11 5 3 3 1 2 2 1 2 2 2 3 6 2 2 3 2 2 3 7 20 20 18 15 11 3 25 20 22 21 22 22 21 20 19
24 25 25 17 10 4 3 18 13 4 3 3 3 4 3 5 2 3 1 2 2 1 1 1 2 1 0 6 19 20 20 12 16 15 22 24 25 24 23 23 22 22 22 20
30 25 6 3 8 16 19 8 2 1 2 1 2 5 1 6 3 1 2 3 3 1 2 3 3 1 5 18 21 21 17 16 17 24 23 25 25 25 24 22 22 22 22 20
16 4 3 16 21 6 3 3 2 1 1 4 1 10 5 6 3 2 2 2 1 2 3 3 1 0 3 19 20 18 15 16 19 19 22 23 23 24 22 21 21 21 20 20
5 13 22 13 3 2 4 1 1 1 3 2 5 12 7 5 3 3 3 2 3 1 2 3 0 1 18 21 22 19 17 17 16 20 20 20 21 21 22 23 23 20 18 17
21 6 3 3 4 4 4 3 2 2 1 3 16 3 3 4 5 3 3 4 1 1 2 2 1 11 15 19 21 20 19 17 18 21 20 21 22 22 21 21 19 18 17 16
3 3 4 2 1 2 3 2 2 2 5 22 16 6 4 4 4 1 4 2 2 2 1 2 2 14 18 20 22 22 21 21 24 24 24 23 21 19 17 16 17 18 18 17
4 4 3 3 3 7 5 4 5 10 18 14 9 5 4 1 3 1 3 3 2 3 1 1 12 19 22 22 22 21 21 21 22 23 23 21 19 19 18 16 17 18 19 18
4 6 3 7 6 3 4 7 10 9 12 10 4 2 3 1 4 2 4 2 1 2 2 9 15 19 22 23 23 23 21 19 21 22 20 19 18 17 16 18 18 18 16 16
4 3 7 12 11 7 5 9 8 5 3 1 2 3 3 1 1 3 2 2 2 8 8 10 11 16 20 21 20 19 20 19 19 19 18 18 18 16 18 21 21 19 17 15

GFSNW_850_spd_114.txt.gz
Wind_Speed
24 22 21 22 20 18 17 9 4 7 20 8 3 6 11 16 6 13 14 4 5 6 5 3 3 8 6 4 2 4 2 4 7 12 4 9 10 11 10 3 4 2 2 2
23 24 22 19 21 23 23 7 6 10 23 8 10 3 8 7 5 10 5 13 9 7 6 4 4 2 3 7 4 5 6 3 2 2 4 1 7 8 11 10 3 5 3 2
23 23 25 24 22 23 25 7 2 7 14 9 7 7 6 9 12 11 9 8 9 5 6 5 6 4 2 3 5 13 10 4 5 4 3 4 5 8 9 9 3 3 6 7
25 24 24 25 25 22 24 9 5 8 5 6 11 7 6 16 8 9 2 6 14 11 6 6 5 3 4 3 13 5 6 5 5 7 3 4 5 2 8 12 12 7 6 9
22 22 23 23 24 22 28 10 5 8 5 8 16 8 11 17 14 12 7 7 13 8 8 6 8 8 4 5 4 5 3 2 2 2 11 3 4 3 2 2 2 8 15 10
25 23 23 23 25 27 20 22 20 6 7 5 9 14 18 11 16 9 23 17 15 9 6 7 5 8 13 8 7 4 6 4 3 3 7 5 5 2 5 5 7 6 6 6
25 26 25 23 27 32 32 20 16 9 3 7 11 9 18 23 21 10 14 24 11 5 17 16 13 11 6 6 5 7 6 5 1 2 6 4 2 5 8 14 6 6 13 12
27 28 27 25 31 32 34 25 21 9 3 4 8 10 12 18 25 19 8 10 6 25 12 4 3 2 3 3 4 6 6 4 2 3 4 3 4 4 5 4 3 3 8 12
30 28 27 28 31 28 29 36 23 12 3 5 8 5 16 12 4 9 5 9 16 22 3 3 5 4 4 5 5 9 8 4 3 3 4 6 3 3 6 4 1 5 7 13
30 31 30 29 29 29 28 26 20 14 7 4 2 5 5 10 6 3 3 6 1 15 4 3 3 3 6 6 7 7 5 3 7 2 2 0 1 4 3 4 4 11 9 7
25 26 28 28 29 30 31 27 24 13 3 4 5 7 15 7 12 5 7 6 3 1 3 3 2 3 3 3 4 6 9 6 3 3 2 5 1 0 5 7 13 15 11 6
26 25 28 30 31 29 32 24 22 13 7 3 3 6 3 18 17 14 18 5 7 8 3 1 3 2 0 4 3 3 1 5 5 2 2 3 6 10 14 11 19 13 16 18
25 28 29 24 24 35 38 27 19 12 6 5 3 4 9 18 13 17 7 6 8 5 3 4 2 3 3 3 3 3 2 3 4 4 4 5 9 12 12 14 16 15 16 19
27 27 24 21 28 32 31 21 19 8 6 3 3 4 2 12 9 23 12 16 10 11 5 3 3 2 1 3 4 3 4 5 7 4 7 11 8 12 15 16 16 18 17 18
29 28 28 29 30 25 20 18 19 11 4 4 4 10 6 9 8 12 12 13 12 8 3 2 2 1 2 1 3 2 1 5 4 4 18 8 18 19 17 18 19 20 22 23
35 33 34 30 26 23 19 6 15 16 12 3 2 4 9 9 11 12 10 10 7 5 4 2 3 4 3 3 1 1 3 8 11 6 26 11 26 20 19 20 19 23 23 22
37 33 30 27 29 20 8 5 22 20 10 3 2 2 3 4 6 10 10 8 6 4 4 3 3 2 3 2 2 5 9 12 17 25 26 22 25 20 23 22 20 19 19 19
31 29 30 28 20 15 14 30 19 14 4 3 3 1 2 3 3 3 4 4 4 6 3 3 2 3 3 2 6 16 18 23 26 16 1 24 26 25 25 23 23 22 21 21
30 30 26 20 11 9 16 17 11 5 2 4 3 4 2 3 3 3 4 4 3 3 2 1 2 2 1 6 18 22 26 14 15 10 21 29 30 26 28 28 24 25 24 24
28 23 6 5 8 23 16 4 3 3 2 1 2 4 1 5 2 3 2 3 2 1 2 2 3 1 4 18 23 21 17 16 17 27 25 27 26 29 30 28 26 26 26 25
12 4 5 25 22 8 3 3 2 1 2 2 3 6 4 4 3 2 1 2 0 2 3 3 1 1 1 15 19 19 15 17 16 18 24 28 30 31 30 27 26 26 25 25
6 15 23 11 4 2 4 1 1 1 3 2 4 8 6 5 3 3 3 2 2 1 1 3 0 1 13 20 21 17 16 16 16 18 22 22 24 26 27 26 26 25 22 21
21 4 3 1 3 6 4 3 2 2 0 5 8 3 4 4 5 4 3 4 2 1 3 2 2 8 18 22 21 19 17 17 17 20 21 23 24 24 25 24 23 21 21 20
3 3 4 3 3 1 1 1 2 2 11 22 15 5 4 3 3 0 4 2 2 3 1 3 2 14 20 22 21 20 19 18 22 22 23 23 23 23 20 20 22 20 21 22
4 4 3 2 2 5 4 4 6 14 17 16 11 6 4 2 3 1 3 4 1 4 4 1 9 16 20 22 22 20 20 21 24 24 25 22 19 21 21 20 20 20 20 21
4 5 4 8 6 2 4 10 13 11 15 11 6 3 3 1 3 3 3 4 4 3 1 7 13 15 18 21 21 18 18 21 22 23 23 21 20 19 19 19 19 19 19 21
4 4 9 12 10 5 6 10 10 8 5 2 3 3 3 2 1 1 1 2 1 6 7 9 10 14 19 19 19 19 19 20 18 21 21 20 19 18 19 21 21 20 20 19

GFSNW_850_spd_117.txt.gz
Wind_Speed
23 25 25 22 25 24 22 17 4 9 25 10 3 11 15 15 6 21 6 2 5 6 5 4 4 5 4 6 6 9 4 2 4 12 1 5 11 10 7 5 5 3 3 5
25 25 26 24 26 28 27 10 8 13 28 9 10 6 15 11 7 9 4 11 7 4 6 4 6 5 2 10 7 8 7 3 2 3 4 3 7 9 12 5 2 6 5 3
26 25 25 25 27 29 28 10 4 7 18 11 5 7 6 11 12 11 3 4 4 6 10 7 5 4 4 6 4 4 8 4 6 8 3 1 4 13 14 10 4 5 7 8
26 25 25 28 26 26 32 13 4 7 4 9 6 5 2 15 9 10 9 7 10 8 8 10 10 4 3 2 10 5 4 6 5 5 5 2 4 13 14 15 12 8 6 10
27 27 27 27 28 27 30 10 5 7 2 9 14 11 11 11 13 8 5 12 5 8 11 12 11 7 5 5 3 3 2 1 2 4 10 9 10 14 8 13 15 13 6 7
27 27 27 27 27 31 16 17 9 5 6 5 10 15 21 16 10 14 19 14 9 13 15 12 19 18 16 8 10 6 6 6 4 7 4 7 7 10 11 3 1 6 7 7
26 27 26 26 27 33 30 18 14 5 3 6 9 9 11 19 17 13 6 17 12 11 6 9 6 4 7 10 6 7 6 6 3 1 3 7 1 3 4 6 2 3 8 16
27 29 29 27 26 30 33 28 14 9 4 11 9 12 9 14 19 20 19 24 14 12 15 3 3 1 3 1 4 7 5 4 3 3 4 2 2 4 5 4 4 0 11 14
28 29 29 28 28 29 30 33 30 11 2 5 7 6 14 6 6 3 12 18 11 10 3 3 5 3 3 5 4 6 7 5 3 2 3 6 5 3 6 3 3 8 12 16
31 31 31 30 29 29 31 30 31 19 9 7 9 5 6 8 7 2 3 7 5 9 2 3 3 3 5 7 8 6 5 2 6 5 4 4 2 6 4 5 5 11 20 22
38 36 34 32 30 30 32 33 28 30 7 10 13 11 8 6 11 5 6 5 2 2 1 2 3 3 5 4 4 6 8 7 4 4 3 6 3 3 6 4 10 16 17 19
33 34 35 34 31 28 32 26 31 26 11 4 10 13 14 21 17 16 18 4 6 7 3 2 4 2 2 5 3 1 2 6 4 3 4 1 2 1 9 13 20 14 15 16
26 29 31 31 31 33 36 32 29 23 7 9 9 12 10 19 22 20 8 6 12 7 6 3 2 3 3 3 3 4 1 2 4 3 3 3 8 13 11 15 15 14 15 22
26 25 28 30 33 34 32 29 27 21 8 3 3 2 10 14 21 22 15 11 18 6 5 2 2 3 2 2 3 3 2 6 7 3 5 8 6 12 17 18 18 19 18 22
25 27 26 31 30 32 28 27 28 18 6 5 3 3 5 9 12 17 9 14 16 7 2 3 1 3 4 1 2 1 3 5 4 5 16 5 14 21 20 20 20 20 23 23
30 26 25 22 30 43 32 8 21 19 9 2 1 1 4 7 18 17 13 11 9 4 4 2 3 3 5 2 2 0 1 7 6 5 21 7 22 23 18 19 20 21 21 23
29 25 24 28 29 29 12 7 13 21 9 2 2 3 4 7 9 10 9 7 5 3 4 2 3 3 7 2 2 4 5 9 12 19 24 19 25 14 20 20 20 20 22 22
28 29 33 27 21 19 4 11 26 17 4 2 3 1 2 3 3 3 2 3 3 5 3 2 2 3 2 2 3 9 12 17 22 15 2 17 22 24 21 21 25 25 25 24
34 29 25 23 17 5 17 20 15 7 2 3 2 3 2 2 3 2 3 3 3 2 2 1 2 2 1 3 13 17 22 9 16 7 8 20 27 27 25 26 25 27 26 24
33 32 7 5 10 28 18 6 6 5 3 2 2 3 1 4 2 3 2 4 1 2 2 1 3 1 4 6 16 18 16 11 16 19 18 26 27 28 29 28 26 26 26 26
14 4 4 24 25 9 3 3 2 1 1 2 3 4 3 2 3 2 3 1 1 2 2 2 1 1 1 9 14 17 8 9 11 7 13 25 28 30 29 27 25 25 26 25
8 18 22 8 3 3 3 1 1 0 3 2 4 4 5 4 3 3 3 2 2 1 2 3 1 2 7 15 17 13 10 12 9 8 18 22 24 25 26 26 25 23 23 22
20 6 3 2 3 6 4 3 1 1 1 5 6 3 3 3 5 4 3 4 2 0 3 2 3 2 15 19 16 14 12 12 11 12 15 17 21 22 24 25 22 21 22 21
4 3 4 2 2 1 1 1 2 1 8 21 17 6 3 4 3 1 4 2 2 3 1 4 2 11 20 20 17 17 16 14 14 15 17 19 20 23 22 20 21 22 22 22
4 4 3 2 1 2 2 0 2 10 13 14 10 6 4 3 4 2 3 3 1 4 4 2 7 14 19 20 19 18 17 16 17 19 20 20 20 20 20 20 21 22 21 22
4 6 3 3 3 3 5 7 8 11 16 11 7 3 3 2 3 3 2 5 4 3 1 3 10 14 18 20 18 16 14 15 17 20 20 18 17 19 19 20 20 20 20 22
4 4 8 5 5 5 5 9 7 6 6 2 2 3 2 2 2 1 2 2 1 5 5 8 9 10 14 15 14 14 14 14 17 18 19 18 17 17 19 21 21 20 20 19

GFSNW_850_spd_120.txt.gz
Wind_Speed
31 28 26 24 23 25 24 20 4 8 27 12 10 13 17 14 7 12 7 2 5 4 3 1 1 4 4 2 6 8 6 5 9 13 3 5 3 5 6 4 4 4 3 5
38 35 29 25 27 28 32 14 13 13 28 8 7 10 20 24 14 7 4 8 6 3 3 3 6 6 3 8 6 7 6 1 1 5 3 2 6 7 10 4 2 15 5 4
32 28 26 28 26 30 33 11 4 10 13 13 11 12 9 11 13 16 5 3 5 5 8 4 4 2 2 3 3 1 7 5 6 8 4 3 3 7 10 12 5 4 11 7
29 30 29 28 29 31 36 16 5 7 5 10 11 11 6 14 11 11 14 5 7 6 5 5 8 5 1 1 4 3 4 8 5 5 5 5 5 6 7 16 17 9 6 10
30 29 28 28 29 31 35 11 6 5 5 18 12 14 10 9 10 6 6 12 6 12 12 10 3 7 5 6 3 4 2 3 4 4 7 10 9 11 9 12 10 7 7 6
31 29 28 29 30 33 13 11 15 8 9 4 9 12 15 14 7 7 15 10 7 9 13 13 16 10 8 8 6 7 5 5 4 6 4 2 8 17 13 6 4 5 13 7
28 27 27 27 27 34 26 16 12 6 3 6 9 5 13 17 12 14 5 22 13 8 13 7 6 7 7 10 11 10 6 5 3 2 3 10 1 4 5 8 4 4 3 14
24 25 27 27 27 30 35 22 13 6 2 4 5 6 3 9 18 19 14 21 7 6 7 3 4 3 3 3 7 11 7 5 3 3 4 4 3 4 5 7 6 5 11 12
22 24 25 25 27 27 29 30 23 7 3 6 11 8 13 7 4 2 8 16 14 10 2 3 6 5 2 5 6 8 5 4 5 3 4 6 5 1 3 2 6 9 15 16
24 25 25 27 26 26 26 22 26 19 4 6 11 5 7 9 8 3 2 7 9 15 4 3 4 8 4 7 8 6 4 3 8 4 4 6 4 5 6 5 5 16 24 25
26 26 27 29 29 27 27 26 24 26 10 15 12 18 13 12 12 5 5 4 4 3 7 4 4 3 5 3 4 5 8 7 4 3 3 7 6 4 6 3 5 19 22 25
34 31 31 31 30 29 27 24 25 22 20 9 10 23 23 23 14 11 15 4 5 9 3 3 3 2 1 5 4 3 4 6 5 7 5 1 2 1 4 9 17 18 25 26
37 40 36 34 31 28 30 28 23 24 18 18 21 23 20 20 22 22 7 10 6 7 5 3 2 2 3 3 4 3 1 2 3 3 2 3 4 8 11 10 15 18 20 25
23 31 37 35 34 31 28 30 26 27 5 3 8 11 19 19 22 25 31 12 13 8 10 2 2 1 3 3 3 3 3 7 5 1 2 5 7 10 15 14 14 16 18 23
19 27 30 31 32 31 29 30 28 28 16 3 5 8 8 16 21 27 30 24 16 8 2 3 3 4 4 1 2 1 4 5 5 5 13 5 8 22 19 18 18 19 23 26
26 23 26 30 32 30 30 13 31 31 20 3 2 3 6 6 12 20 20 13 21 14 8 2 2 2 4 3 1 1 3 5 4 2 17 6 16 23 21 19 21 22 24 26
23 24 25 29 30 33 30 6 7 27 22 4 1 1 3 13 12 9 6 9 11 5 4 2 3 2 4 2 2 2 3 5 8 14 20 15 24 15 22 19 21 21 20 22
26 26 27 25 32 25 21 9 16 20 11 4 2 1 0 4 6 6 8 6 5 3 3 2 2 2 3 1 2 6 10 15 18 8 2 11 22 25 21 21 24 24 24 25
25 18 23 25 19 12 11 17 25 18 4 2 2 3 2 1 3 4 3 3 3 2 2 1 2 1 1 2 10 12 17 7 11 8 10 19 24 27 25 25 25 27 28 26
34 32 7 6 11 20 26 14 13 7 4 3 1 2 0 3 2 4 2 4 1 2 2 1 3 1 2 2 10 14 12 10 15 17 14 21 24 27 26 28 27 27 28 27
18 4 4 21 20 8 6 5 4 3 0 3 3 3 3 2 3 2 3 1 1 2 2 2 1 2 1 7 12 17 7 6 9 1 2 17 22 26 26 26 25 25 25 26
7 20 26 9 1 2 4 1 1 1 3 2 3 4 4 4 3 3 3 2 2 1 3 3 1 2 5 12 14 14 6 7 6 1 4 15 17 20 23 23 23 22 23 23
10 5 4 1 4 6 4 3 1 1 2 5 5 3 3 4 4 4 3 4 1 0 3 2 3 1 11 15 15 11 9 7 6 7 9 12 14 18 20 22 20 19 20 21
4 3 4 2 2 2 1 0 1 1 3 16 16 5 3 4 4 1 4 1 2 3 1 3 2 6 15 16 13 11 10 7 7 9 10 11 14 17 16 16 18 19 21 22
4 4 4 3 2 1 1 1 1 6 9 13 8 6 4 3 4 2 3 3 1 4 4 2 2 10 17 16 11 8 8 9 9 11 12 12 12 14 15 14 15 17 20 22
5 6 3 3 1 2 4 5 4 6 12 9 6 3 3 2 3 3 2 5 4 3 1 2 4 11 15 14 11 10 9 9 10 13 12 12 10 12 14 14 16 17 19 20
4 3 7 4 3 3 4 5 5 6 4 2 2 3 1 1 2 2 2 2 2 3 3 5 7 8 11 13 13 12 11 10 12 14 16 13 11 12 15 16 18 18 18 18